[[{"header":{"parameterUnit":"m.s-1","parameterCategory":1,"la1":30.6,"la2":29.2853,"lo1":-89.7004,"lo2":-87.6739,"dy":0.0162,"dx":0.0183,"nx":112,"ny":82,"refTime":"2023-06-26T12:00:00:Z","depth":0,"parameterNumber":2,"parameterNumberName":"U-component_of_WINDS"},"data":[0.0,0.0,0.0,0.0,0.0,0.0,0.0,0.0,0.0,0.0,0.0,0.0,0.0,0.0,0.0,0.0,0.0,0.0,0.0,0.0,0.0,0.0,0.0,0.0,0.0,0.0,0.0,0.0,0.0,0.0,0.0,0.0,0.0,0.0,0.0,0.0,0.0,0.0,0.0,0.0,0.0,0.0,0.0,0.0,0.0,0.0,0.0,0.0,0.0,0.0,0.0,0.0,0.0,0.0,0.0,0.0,0.0,0.0,0.0,0.0,0.0,0.0,0.0,0.0,0.0,0.0,0.0,0.0,0.0,0.0,0.0,0.0,0.0,0.0,0.0,0.0,0.0,0.0,0.0,0.0,0.0,0.0,0.0,0.0,0.0,0.0,0.0,0.0,0.0,0.0,-0.3624,-0.3761,-0.3767,-0.3793,-0.3809,-0.376,-0.3707,-0.3689,0.0,0.0,0.0,0.0,0.0,0.0,0.0,0.0,0.0,0.0,0.0,0.0,0.0,0.0,0.0,0.0,0.0,0.0,0.0,0.0,0.0,0.0,0.0,0.0,0.0,0.0,0.0,0.0,0.0,0.0,0.0,0.0,0.0,0.0,0.0,0.0,0.0,0.0,0.0,0.0,0.0,0.0,0.0,0.0,0.0,0.0,0.0,0.0,0.0,0.0,0.0,0.0,0.0,0.0,0.0,0.0,0.0,0.0,0.0,0.0,0.0,0.0,0.0,0.0,0.0,0.0,0.0,0.0,0.0,0.0,0.0,0.0,0.0,0.0,0.0,0.0,0.0,0.0,0.0,0.0,0.0,0.0,0.0,0.0,0.0,0.0,0.0,0.0,0.0,0.0,0.0,0.0,0.0,0.0,0.0,0.0,0.0,0.0,0.0,0.0,0.0,0.0,0.0,0.0,-0.3602,-0.3655,-0.3633,-0.3648,-0.3804,-0.3474,-0.3275,-0.3271,0.0,0.0,0.0,0.0,0.0,0.0,0.0,0.0,0.0,0.0,0.0,0.0,0.0,0.0,0.0,0.0,0.0,0.0,0.0,0.0,0.0,0.0,0.0,0.0,0.0,0.0,0.0,0.0,0.0,0.0,0.0,0.0,0.0,0.0,0.0,0.0,0.0,0.0,0.0,0.0,0.0,0.0,0.0,0.0,0.0,0.0,0.0,0.0,0.0,0.0,0.0,0.0,0.0,0.0,0.0,0.0,0.0,0.0,0.0,0.0,0.0,0.0,0.0,0.0,0.0,0.0,0.0,0.0,0.0,0.0,0.0,0.0,0.0,0.0,0.0,0.0,0.0,0.0,0.0,0.0,0.0,0.0,0.0,0.0,0.0,0.0,0.0,0.0,0.0,0.0,0.0,0.0,0.0,0.0,0.0,0.0,0.0,0.0,0.0,0.0,0.0,0.0,0.0,-0.363,-0.345,-0.3608,-0.3585,-0.3604,-0.3716,-0.339,-0.3218,-0.3218,-0.3306,0.0,0.0,0.0,0.0,0.0,0.0,0.0,0.0,0.0,0.0,0.0,0.0,0.0,0.0,0.0,0.0,0.0,0.0,0.0,0.0,0.0,0.0,0.0,0.0,0.0,0.0,0.0,0.0,0.0,0.0,0.0,0.0,0.0,0.0,0.0,0.0,0.0,0.0,0.0,0.0,0.0,0.0,0.0,0.0,0.0,0.0,0.0,0.0,0.0,0.0,0.0,0.0,0.0,0.0,0.0,0.0,0.0,0.0,0.0,0.0,0.0,0.0,0.0,0.0,0.0,0.0,0.0,0.0,0.0,0.0,0.0,0.0,0.0,0.0,0.0,0.0,0.0,0.0,0.0,0.0,0.0,0.0,0.0,0.0,0.0,0.0,0.0,0.0,0.0,0.0,0.0,0.0,0.0,0.0,0.0,0.0,0.0,0.0,0.0,0.0,0.0,0.0,-0.3221,-0.3211,-0.3445,-0.3527,-0.3572,-0.3545,-0.3341,-0.3158,-0.3079,-0.3048,0.0,0.0,0.0,0.0,0.0,0.0,0.0,0.0,0.0,0.0,0.0,0.0,0.0,0.0,0.0,0.0,0.0,0.0,0.0,0.0,0.0,0.0,0.0,0.0,0.0,0.0,0.0,0.0,0.0,0.0,0.0,0.0,0.0,0.0,0.0,0.0,0.0,0.0,0.0,0.0,0.0,0.0,0.0,0.0,0.0,0.0,0.0,0.0,0.0,0.0,0.0,0.0,0.0,0.0,0.0,0.0,0.0,0.0,0.0,0.0,0.0,0.0,0.0,0.0,0.0,0.0,0.0,0.0,0.0,0.0,0.0,0.0,0.0,0.0,0.0,0.0,0.0,0.0,0.0,0.0,0.0,0.0,0.0,0.0,0.0,0.0,0.0,0.0,0.0,0.0,0.0,0.0,0.0,0.0,0.0,0.0,0.0,0.0,0.0,0.0,0.0,0.0,-0.272,-0.2956,-0.3109,-0.3413,-0.3536,-0.3422,-0.3294,-0.3074,-0.2778,-0.2908,0.0,0.0,0.0,0.0,0.0,0.0,0.0,0.0,0.0,0.0,0.0,0.0,0.0,0.0,0.0,0.0,0.0,0.0,0.0,0.0,0.0,0.0,0.0,0.0,0.0,0.0,0.0,0.0,0.0,0.0,0.0,0.0,0.0,0.0,0.0,0.0,0.0,0.0,0.0,0.0,0.0,0.0,0.0,0.0,0.0,0.0,0.0,0.0,0.0,0.0,0.0,0.0,0.0,0.0,0.0,0.0,0.0,0.0,0.0,0.0,0.0,0.0,0.0,0.0,0.0,0.0,0.0,0.0,0.0,0.0,0.0,0.0,0.0,0.0,0.0,0.0,0.0,0.0,0.0,0.0,0.0,0.0,0.0,0.0,0.0,0.0,0.0,0.0,0.0,0.0,0.0,0.0,0.0,0.0,0.0,0.0,0.0,0.0,0.0,0.0,0.0,0.0,-0.2655,-0.2745,-0.3053,-0.3188,-0.3312,-0.3411,-0.3138,-0.2956,-0.2766,0.0,0.0,0.0,0.0,0.0,0.0,0.0,0.0,0.0,0.0,0.0,0.0,0.0,0.0,0.0,0.0,0.0,0.0,0.0,0.0,0.0,0.0,0.0,0.0,0.0,0.0,0.0,0.0,0.0,0.0,0.0,0.0,0.0,0.0,0.0,0.0,0.0,0.0,0.0,0.0,0.0,0.0,0.0,0.0,0.0,0.0,0.0,0.0,0.0,0.0,0.0,0.0,0.0,0.0,0.0,0.0,0.0,0.0,0.0,0.0,0.0,0.0,0.0,0.0,0.0,0.0,0.0,0.0,0.0,0.0,0.0,0.0,0.0,0.0,0.0,0.0,0.0,0.0,0.0,0.0,0.0,0.0,0.0,0.0,0.0,0.0,0.0,0.0,0.0,0.0,0.0,0.0,0.0,0.0,0.0,0.0,0.0,0.0,0.0,0.0,0.0,0.0,-0.2491,-0.2376,-0.2465,-0.2779,-0.291,-0.3023,-0.3096,-0.2863,-0.2659,-0.2529,0.0,0.0,0.0,0.0,0.0,0.0,0.0,0.0,0.0,0.0,0.0,0.0,0.0,0.0,0.0,0.0,0.0,0.0,0.0,0.0,0.0,0.0,0.0,0.0,0.0,0.0,0.0,0.0,0.0,0.0,0.0,0.0,0.0,0.0,0.0,0.0,0.0,0.0,0.0,0.0,0.0,0.0,0.0,0.0,0.0,0.0,0.0,0.0,0.0,0.0,0.0,0.0,0.0,0.0,0.0,0.0,0.0,0.0,0.0,0.0,0.0,0.0,0.0,0.0,0.0,0.0,0.0,0.0,0.0,0.0,0.0,0.0,0.0,0.0,0.0,0.0,0.0,0.0,0.0,0.0,0.0,0.0,0.0,0.0,0.0,0.0,0.0,0.0,0.0,0.0,0.0,0.0,0.0,0.0,0.0,0.0,0.0,0.0,0.0,0.0,0.0,0.0,-0.1617,-0.1928,-0.2209,-0.2176,-0.2521,-0.2615,-0.2434,-0.2417,-0.2232,0.0,0.0,0.0,0.0,0.0,0.0,0.0,0.0,0.0,0.0,0.0,0.0,0.0,0.0,0.0,0.0,0.0,0.0,0.0,0.0,0.0,0.0,0.0,0.0,0.0,0.0,0.0,0.0,0.0,0.0,0.0,0.0,0.0,0.0,0.0,0.0,0.0,0.0,0.0,0.0,0.0,0.0,0.0,0.0,0.0,0.0,0.0,0.0,0.0,0.0,0.0,0.0,0.0,0.0,0.0,0.0,0.0,0.0,0.0,0.0,0.0,0.0,0.0,0.0,0.0,0.0,0.0,0.0,0.0,0.0,0.0,0.0,0.0,0.0,0.0,0.0,0.0,0.0,0.0,0.0,0.0,0.0,0.0,0.0,0.0,0.0,0.0,0.0,0.0,0.0,0.0,0.0,0.0,0.0,0.0,0.0,0.0,0.0,0.0,0.0,0.0,0.0,0.0,-0.1737,-0.1828,-0.1943,-0.2176,-0.2296,-0.2342,-0.2383,-0.2265,-0.2107,-0.1988,0.0,0.0,0.0,0.0,0.0,0.0,0.0,0.0,0.0,0.0,0.0,0.0,0.0,0.0,0.0,0.0,0.0,0.0,0.0,0.0,0.0,0.0,0.0,0.0,0.0,0.0,0.0,0.0,0.0,0.0,0.0,0.0,0.0,0.0,0.0,0.0,0.0,0.0,0.0,0.0,0.0,0.0,0.0,0.0,0.0,0.0,0.0,0.0,0.0,0.0,0.0,0.0,0.0,0.0,0.0,0.0,0.0,0.0,0.0,0.0,0.0,0.0,0.0,0.0,0.0,0.0,0.0,0.0,0.0,0.0,0.0,0.0,0.0,0.0,0.0,0.0,0.0,0.0,0.0,0.0,0.0,0.0,0.0,0.0,0.0,0.0,0.0,0.0,0.0,0.0,0.0,0.0,0.0,0.0,0.0,0.0,0.0,0.0,0.0,0.0,0.0,0.0,-0.1759,-0.1751,-0.181,-0.2014,-0.2018,-0.2083,-0.2123,-0.201,-0.1907,-0.1859,0.0,0.0,0.0,0.0,0.0,0.0,0.0,0.0,0.0,0.0,0.0,0.0,0.0,0.0,0.0,0.0,0.0,0.0,0.0,0.0,0.0,0.0,0.0,0.0,0.0,0.0,0.0,0.0,0.0,0.0,0.0,0.0,0.0,0.0,0.0,0.0,0.0,0.0,0.0,0.0,0.0,0.0,0.0,0.0,0.0,0.0,0.0,0.0,0.0,0.0,0.0,0.0,0.0,0.0,0.0,0.0,0.0,0.0,0.0,0.0,0.0,0.0,0.0,0.0,0.0,0.0,0.0,0.0,0.0,0.0,0.0,0.0,0.0,0.0,0.0,0.0,0.0,0.0,0.0,0.0,0.0,0.0,0.0,0.0,0.0,0.0,0.0,0.0,0.0,0.0,0.0,0.0,0.0,0.0,0.0,0.0,0.0,0.0,0.0,0.0,0.0,0.0,-0.1722,-0.1763,-0.1797,-0.1797,-0.1797,-0.1773,-0.1711,-0.1706,-0.1706,-0.1706,0.0,0.0,0.0,0.0,0.0,0.0,0.0,0.0,0.0,0.0,0.0,0.0,0.0,0.0,0.0,0.0,0.0,0.0,0.0,0.0,0.0,0.0,0.0,0.0,0.0,0.0,0.0,0.0,0.0,0.0,0.0,0.0,0.0,0.0,0.0,0.0,0.0,0.0,0.0,0.0,0.0,0.0,0.0,0.0,0.0,0.0,0.0,0.0,0.0,0.0,0.0,0.0,0.0,0.0,0.0,0.0,0.0,0.0,0.0,0.0,-0.1031,-0.101,0.0,0.0,0.0,0.0,0.0,0.0,0.0,0.0,0.0,0.0,0.0,0.0,0.0,0.0,0.0,0.0,0.0,0.0,0.0,0.0,0.0,0.0,0.0,0.0,0.0,0.0,0.0,0.0,0.0,0.0,0.0,0.0,0.0,0.0,0.0,0.0,0.0,0.0,0.0,0.0,-0.1779,-0.1789,-0.1797,-0.1797,-0.1797,-0.1773,-0.1711,-0.1706,-0.1706,-0.1706,-0.1706,0.0,0.0,0.0,0.0,0.0,0.0,0.0,0.0,0.0,0.0,0.0,0.0,0.0,0.0,0.0,0.0,0.0,0.0,0.0,0.0,0.0,0.0,0.0,0.0,0.0,0.0,0.0,0.0,0.0,0.0,0.0,0.0,0.0,0.0,0.0,0.0,0.0,0.0,0.0,0.0,0.0,0.0,0.0,0.0,0.0,0.0,0.0,0.0,0.0,0.0,0.0,0.0,0.0,0.0,0.0,0.0,0.0,0.0,0.0,-0.1108,-0.1067,0.0,0.0,0.0,0.0,0.0,0.0,0.0,0.0,0.0,0.0,0.0,0.0,0.0,0.0,0.0,0.0,0.0,0.0,0.0,0.0,0.0,0.0,0.0,0.0,0.0,0.0,0.0,0.0,0.0,0.0,0.0,0.0,0.0,0.0,0.0,0.0,0.0,0.0,0.0,0.0,-0.1797,-0.1797,-0.1797,-0.1797,-0.1797,-0.1785,-0.1752,-0.1749,-0.1749,-0.1749,-0.1749,0.0,0.0,0.0,0.0,0.0,0.0,0.0,0.0,0.0,0.0,0.0,0.0,0.0,0.0,0.0,0.0,0.0,0.0,0.0,0.0,0.0,0.0,0.0,0.0,0.0,0.0,0.0,0.0,0.0,0.0,0.0,0.0,0.0,0.0,0.0,0.0,0.0,0.0,0.0,0.0,0.0,0.0,0.0,0.0,0.0,0.0,0.0,0.0,0.0,0.0,0.0,0.0,0.0,-0.1249,-0.1273,-0.1275,-0.1325,-0.1337,-0.1312,-0.1211,-0.1159,-0.1144,-0.1139,0.0,0.0,0.0,0.0,0.0,0.0,0.0,0.0,0.0,0.0,0.0,0.0,0.0,0.0,0.0,0.0,0.0,0.0,0.0,0.0,0.0,0.0,-0.1899,-0.191,-0.1959,-0.1974,-0.1867,0.0,0.0,0.0,0.0,0.0,0.0,0.0,0.0,0.0,0.0,0.0,-0.1797,-0.1797,-0.1797,-0.1797,-0.1797,-0.1797,-0.1797,-0.1797,-0.1797,-0.1797,-0.1797,-0.1741,0.0,0.0,0.0,0.0,0.0,0.0,0.0,0.0,0.0,0.0,0.0,0.0,0.0,0.0,0.0,0.0,0.0,0.0,0.0,0.0,0.0,0.0,0.0,0.0,0.0,0.0,0.0,0.0,0.0,0.0,0.0,0.0,-0.1039,-0.1072,0.0,0.0,0.0,0.0,0.0,0.0,0.0,0.0,0.0,0.0,0.0,0.0,0.0,-0.1219,-0.1272,-0.1303,-0.1237,-0.1324,-0.1332,-0.1336,-0.1337,-0.126,-0.1359,-0.1378,-0.1361,0.0,-0.1237,-0.1211,0.0,0.0,0.0,0.0,0.0,0.0,0.0,0.0,0.0,0.0,0.0,0.0,0.0,0.0,0.0,0.0,0.0,0.0,0.0,0.0,0.0,0.0,-0.1973,-0.2091,-0.2151,-0.2178,-0.2106,-0.1944,-0.1856,-0.1807,-0.1797,-0.1797,0.0,0.0,0.0,0.0,0.0,0.0,-0.1797,-0.1797,-0.1797,-0.1797,-0.1797,-0.1797,-0.1797,-0.1797,-0.1797,-0.1797,-0.1797,-0.1628,-0.1234,-0.0673,0.0,0.0,0.0,0.0,0.0,0.0,0.0,0.0,0.0,0.0,0.0,0.0,0.0,0.0,0.0,0.0,0.0,0.0,0.0,0.0,0.0,0.0,0.0,0.0,0.0,0.0,0.0,0.0,0.0,-0.102,-0.1062,-0.1074,-0.1091,-0.1095,0.0,0.0,0.0,0.0,0.0,0.0,0.0,0.0,0.0,-0.1241,-0.1273,-0.1301,-0.1328,-0.1357,-0.138,-0.1397,-0.1431,-0.1448,-0.1449,-0.1483,-0.1496,-0.1493,-0.151,-0.1476,-0.1401,-0.1303,-0.1227,-0.1168,0.0,0.0,0.0,0.0,-0.128,-0.1441,-0.1373,-0.1577,-0.1765,-0.1739,0.0,0.0,0.0,0.0,0.0,0.0,0.0,-0.1961,-0.2082,-0.2079,-0.2132,-0.2158,-0.2211,-0.2238,-0.2179,-0.2123,-0.2038,-0.1876,-0.1843,-0.1834,-0.1802,-0.1797,0.0,0.0,0.0,-0.1797,-0.1797,-0.1797,-0.1797,-0.1797,-0.1797,-0.1797,-0.1797,-0.1797,-0.1797,-0.1797,-0.1572,-0.1291,-0.1122,-0.0449,0.0224,0.0,0.0,0.0,0.0,0.0,0.0,0.0,0.0,0.0,0.0,0.0,0.0,0.0,0.0,0.0,0.0,0.0,0.0,0.0,0.0,0.0,0.0,0.0,0.0,0.0,0.0,0.0,0.0,-0.1039,-0.1076,-0.1076,-0.1102,-0.1109,0.0,0.0,0.0,0.0,0.0,0.0,-0.1211,-0.1256,-0.1298,-0.1335,-0.1373,-0.1397,-0.1405,-0.1441,-0.1467,-0.1483,-0.1528,-0.1549,-0.1551,-0.1596,-0.1605,-0.1584,-0.1607,-0.1587,-0.1528,-0.1401,-0.1312,-0.1252,-0.12,-0.1193,-0.1213,-0.1213,-0.1304,-0.1406,-0.1431,-0.1502,-0.1708,-0.1677,-0.1757,-0.1814,-0.1901,0.0,0.0,0.0,0.0,-0.2146,-0.2206,-0.2267,-0.2316,-0.2332,-0.2371,-0.2387,-0.2326,-0.2228,-0.2217,-0.1974,-0.1928,-0.1905,-0.1831,-0.1819,0.0,-0.18,-0.1809,-0.1813,-0.18,-0.1809,-0.1813,-0.1798,-0.1797,-0.1797,-0.1797,-0.1797,-0.1741,-0.1628,-0.1291,-0.101,-0.0842,-0.0056,0.0616,0.1229,0.0,0.0,0.0,0.0,0.0,0.0,0.0,0.0,0.0,0.0,0.0,0.0,0.0,0.0,0.0,0.0,0.0,0.0,0.0,0.0,0.0,0.0,0.0,0.0,0.0,0.0,0.0,0.0,0.0,-0.1076,-0.1102,0.0,0.0,0.0,0.0,-0.1202,-0.126,-0.1307,-0.1254,-0.1258,-0.1369,-0.1427,-0.1486,-0.1531,-0.156,-0.1619,-0.1635,-0.1608,-0.1611,-0.1612,-0.1612,-0.1615,-0.1616,-0.1615,-0.1616,-0.1598,-0.1564,-0.1499,-0.1436,-0.1378,-0.1348,-0.1254,-0.1255,-0.1255,-0.134,-0.1341,-0.1508,-0.159,-0.1672,-0.2089,-0.2348,-0.2481,-0.242,-0.2362,0.0,0.0,-0.2322,-0.2335,-0.2391,-0.2451,-0.2512,-0.257,-0.2586,-0.2571,-0.2511,-0.2451,-0.2339,-0.21,-0.2119,-0.2079,-0.1898,0.0,-0.1858,-0.1805,-0.1842,-0.1857,-0.1804,-0.1843,-0.1857,-0.1802,-0.1797,-0.1797,-0.1797,-0.1797,-0.1628,-0.1178,-0.1122,-0.0785,-0.0112,0.0393,0.0952,0.1566,0.1959,0.0,0.0,0.0,0.0,0.0,0.0,0.0,0.0,0.0,0.0,0.0,0.0,0.0,0.0,0.0,0.0,0.0,0.0,0.0,0.0,0.0,0.0,0.0,0.0,0.0,0.0,0.0,0.0,-0.119,-0.1253,0.0,-0.1254,-0.1271,-0.1288,-0.1299,-0.1354,-0.1401,-0.1431,-0.1489,-0.154,-0.158,-0.162,-0.1646,-0.1656,-0.1678,-0.1684,-0.1673,-0.1673,-0.1664,-0.1646,-0.1646,-0.1646,-0.1645,-0.1625,-0.1622,-0.1626,-0.1585,-0.1521,-0.1443,-0.1394,-0.1386,-0.1404,-0.1404,-0.1416,-0.1436,-0.1545,-0.1539,-0.1515,-0.1646,-0.1916,-0.2083,-0.2065,-0.226,-0.2456,-0.2496,-0.2507,-0.252,-0.2579,-0.261,-0.2632,-0.2654,-0.2659,-0.2643,-0.2582,-0.2552,-0.2488,-0.2324,-0.22,-0.2161,-0.2012,-0.1966,-0.1933,-0.1913,-0.1926,-0.1932,-0.1913,-0.1928,-0.1917,-0.1857,-0.1852,-0.1721,-0.1405,-0.1176,-0.0896,-0.0449,0.0056,0.0448,0.0671,0.1175,0.1567,0.1959,0.2127,0.2323,0.0,0.0,0.0,0.0,0.0,0.0,0.0,0.0,0.0,0.0,0.0,0.0,0.0,0.0,0.0,0.0,0.0,0.0,0.0,0.0,0.0,0.0,0.0,0.0,0.0,-0.1209,-0.1283,-0.1313,-0.1378,-0.1409,-0.138,-0.1396,-0.1412,-0.1423,-0.1478,-0.1525,-0.1554,-0.1613,-0.1656,-0.1676,-0.1705,-0.1714,-0.1704,-0.1714,-0.1714,-0.1704,-0.1704,-0.1695,-0.1676,-0.1676,-0.1676,-0.1675,-0.1655,-0.1658,-0.1674,-0.1644,-0.1596,-0.1537,-0.1486,-0.1479,-0.1496,-0.1496,-0.1509,-0.153,-0.155,-0.1537,-0.1598,-0.1646,-0.1859,-0.2149,-0.2236,-0.2469,-0.27,-0.2741,-0.2752,-0.2762,-0.2803,-0.2812,-0.2808,-0.2786,-0.2767,-0.2737,-0.2676,-0.2647,-0.2602,-0.25,-0.2337,-0.2189,-0.2173,-0.2107,-0.1996,-0.1976,-0.1989,-0.1995,-0.1976,-0.1991,-0.198,-0.1918,-0.1911,-0.1718,-0.1161,-0.1099,-0.0691,0.0171,0.0569,0.1018,0.1454,0.179,0.2071,0.2352,0.2298,0.2407,0.2691,0.0,0.0,0.0,0.0,0.0,0.0,0.0,0.0,0.0,0.0,0.0,0.0,0.0,0.0,0.0,0.0,0.0,0.0,0.0,0.0,0.0,0.0,0.0,-0.1223,-0.1322,-0.1409,-0.144,-0.147,-0.1478,-0.1449,-0.1498,-0.1544,-0.1575,-0.1632,-0.1677,-0.1704,-0.1707,-0.1707,-0.1707,-0.1735,-0.1737,-0.1707,-0.1736,-0.1736,-0.1707,-0.1707,-0.1707,-0.1705,-0.1705,-0.1705,-0.1705,-0.1705,-0.1705,-0.1703,-0.1674,-0.1662,-0.1659,-0.1628,-0.1617,-0.1617,-0.1617,-0.1617,-0.1617,-0.1617,-0.1698,-0.1966,-0.216,-0.2421,-0.267,-0.2957,-0.305,-0.3144,-0.3144,-0.3144,-0.3144,-0.3144,-0.3144,-0.3129,-0.2976,-0.292,-0.2862,-0.28,-0.274,-0.268,-0.2617,-0.2462,-0.2303,-0.2251,-0.2178,-0.2116,-0.1992,-0.2033,0.0,-0.1988,-0.2095,-0.2106,-0.1981,-0.1976,-0.1788,-0.1232,-0.1478,-0.0972,0.0648,0.047,0.0868,0.2189,0.224,0.2352,0.2691,0.2515,0.2515,0.2695,0.0,0.0,0.0,0.0,0.0,0.0,0.0,0.0,0.0,0.0,0.0,0.0,0.0,0.0,0.0,0.0,0.0,0.0,0.0,0.0,0.0,-0.1337,-0.1409,-0.1378,-0.1478,-0.1573,-0.1624,-0.1657,-0.1681,-0.1695,-0.1671,-0.1668,-0.1698,-0.1716,-0.1729,-0.1737,-0.1758,-0.177,-0.177,-0.1778,-0.1778,-0.177,-0.1778,-0.1778,-0.177,-0.177,-0.1759,-0.1737,-0.1737,-0.1737,-0.1736,-0.1714,-0.1717,-0.1733,-0.1683,-0.1662,-0.1659,-0.1628,-0.1617,-0.1617,-0.1617,-0.1617,-0.1617,-0.1617,-0.1813,-0.2005,-0.2105,-0.2374,-0.2725,-0.2822,-0.2987,-0.3144,-0.3144,-0.3144,-0.3144,-0.3144,-0.3144,-0.314,-0.3123,-0.3012,-0.2973,-0.2871,-0.2835,-0.2793,-0.2687,-0.2556,-0.2437,-0.236,-0.2298,-0.2255,-0.2238,-0.2213,-0.2188,-0.2172,-0.2146,-0.2172,-0.2109,-0.2102,-0.1705,-0.0742,-0.0554,0.0123,0.1582,0.1667,0.199,0.2615,0.2612,0.2633,0.2691,0.2642,0.2672,0.0,0.0,0.0,0.0,0.0,0.0,0.0,0.0,0.0,0.0,0.0,0.0,0.0,0.0,0.0,0.0,0.0,0.0,0.0,0.0,0.0,0.0,-0.1475,-0.1573,-0.1618,-0.1663,-0.1714,-0.1774,-0.1796,-0.1813,-0.1832,-0.1789,-0.1768,-0.1786,-0.1788,-0.1788,-0.1788,-0.1817,-0.1833,-0.1833,-0.1833,-0.1827,-0.1814,-0.1814,-0.1808,-0.1795,-0.1795,-0.1785,-0.1768,-0.1768,-0.1768,-0.1767,-0.175,-0.1752,-0.1764,-0.1705,-0.168,-0.1675,0.0,0.0,0.0,0.0,-0.1617,-0.1617,-0.1617,-0.1718,-0.1819,-0.1921,-0.2206,-0.2483,-0.268,-0.2856,-0.3027,-0.3125,-0.3125,-0.3125,-0.3125,-0.3125,-0.3113,-0.3061,-0.3144,-0.3016,-0.2899,-0.2875,-0.2846,-0.2749,-0.2673,0.0,-0.2511,-0.2407,-0.2335,-0.2335,-0.2233,-0.2202,-0.2178,-0.2236,-0.2198,-0.2176,-0.2124,-0.1785,-0.0899,-0.0576,0.0,0.0,0.0,0.2249,0.2883,0.2795,0.0,0.0,0.0,0.2752,0.2881,0.2844,0.0,0.0,0.3301,0.3458,0.0,0.0,0.0,0.0,0.0,0.0,0.0,0.0,0.0,0.0,0.0,0.0,0.0,0.0,0.0,0.0,-0.1626,-0.1737,-0.1881,-0.1857,-0.1844,-0.1895,-0.1895,-0.1892,-0.1896,-0.1866,-0.1847,-0.1851,-0.1847,-0.1846,-0.1846,-0.1871,0.0,0.0,0.0,-0.1873,-0.1846,-0.1846,-0.1832,-0.1805,-0.1805,-0.1804,-0.18,-0.18,-0.1798,-0.1795,-0.1795,-0.1795,-0.1791,-0.1733,-0.1705,-0.1694,-0.1639,-0.1617,-0.1617,-0.1617,-0.1617,-0.1617,-0.1617,0.0,0.0,-0.192,-0.2021,-0.2223,-0.2725,-0.2826,-0.2927,-0.313,-0.323,-0.323,-0.323,-0.3226,-0.3192,-0.3085,-0.3055,-0.3019,-0.2907,-0.2884,-0.2864,-0.2797,-0.2783,-0.2745,-0.2623,-0.247,-0.2364,-0.2357,-0.2349,-0.2326,-0.22,-0.2235,-0.2292,-0.2176,-0.2213,0.0,-0.1348,-0.1076,-0.0332,0.1167,0.1549,0.2096,0.2958,0.2881,0.2877,0.3013,0.2801,0.2803,0.303,0.2893,0.3127,0.3625,0.3601,0.3673,0.0,0.0,0.0,0.0,0.0,0.0,0.0,0.0,0.0,0.0,0.0,0.0,0.0,0.0,0.0,-0.1652,-0.1767,-0.1878,-0.1979,-0.2004,-0.2007,-0.1994,-0.1951,-0.1932,-0.1957,-0.1909,-0.1887,-0.1911,-0.1891,-0.1877,-0.1877,-0.1883,-0.1886,-0.1886,-0.1886,-0.1883,-0.1877,-0.1877,-0.1874,-0.1868,-0.1868,0.0,-0.1832,-0.1832,-0.1818,-0.1795,-0.1795,-0.1795,-0.1792,-0.1756,-0.1713,-0.1667,-0.163,-0.1617,-0.1617,-0.1617,-0.1617,-0.1617,-0.1617,-0.1718,-0.192,-0.2221,-0.2423,-0.2726,-0.3029,-0.313,0.0,-0.323,-0.323,-0.323,-0.323,-0.3194,-0.3151,-0.3128,-0.3085,-0.3125,-0.2958,-0.2941,-0.291,-0.2804,-0.2783,-0.2745,-0.2623,-0.2572,-0.2533,-0.2484,-0.2435,-0.2399,-0.2387,-0.2357,-0.2308,-0.2234,-0.2167,-0.1942,-0.1213,-0.0538,0.0268,0.1467,0.2348,0.2858,0.302,0.2999,0.2999,0.3015,0.298,0.3018,0.3064,0.3048,0.3288,0.3725,0.3558,0.3638,0.0,0.0,0.0,0.0,0.0,0.0,0.0,0.0,0.0,0.0,0.0,-0.1433,0.0,0.0,-0.17,-0.1821,-0.1903,-0.1978,-0.2053,-0.2064,-0.2052,-0.2022,-0.1992,-0.1975,-0.1977,-0.1935,-0.1915,-0.193,-0.1917,-0.1909,-0.1909,-0.1923,-0.1931,-0.1931,-0.1931,-0.1924,-0.1909,-0.1909,-0.1901,-0.1886,-0.1886,-0.187,-0.184,-0.184,-0.1823,-0.1795,-0.1795,-0.1795,-0.1791,-0.1746,-0.1701,-0.1659,-0.1628,-0.1617,-0.1617,-0.1617,-0.1617,-0.1617,-0.1617,-0.1819,-0.2021,-0.2121,-0.2423,-0.2623,-0.2927,-0.3027,-0.3029,-0.313,-0.323,-0.323,-0.323,-0.3185,-0.3132,-0.3101,-0.3048,-0.2988,-0.2929,-0.2916,-0.2899,-0.2839,-0.2828,-0.28,-0.2709,-0.2668,-0.2616,-0.2525,-0.2485,-0.2454,-0.2424,-0.2395,-0.2343,-0.2184,-0.2174,-0.2012,-0.1551,-0.0336,0.0873,0.2083,0.2784,0.3138,0.3093,0.3046,0.3044,0.3089,0.3061,0.3022,0.3158,0.3111,0.3268,0.3627,0.364,0.3881,0.0,0.0,0.0,0.0,0.0,0.0,0.0,0.0,-0.1412,-0.1452,-0.1513,-0.159,-0.1688,-0.1759,-0.1844,-0.1973,-0.2018,-0.2055,-0.211,-0.2092,-0.2061,-0.2031,-0.2022,-0.2007,-0.1979,-0.1954,-0.194,-0.194,-0.194,-0.194,-0.194,-0.1963,-0.1977,-0.1977,-0.1977,-0.1964,-0.194,-0.194,-0.1928,-0.1904,-0.1904,-0.1887,-0.1858,-0.1858,-0.1838,-0.1804,-0.1797,-0.1795,-0.1791,-0.1735,-0.1696,-0.1667,-0.1637,-0.1622,-0.1617,-0.1617,-0.1617,-0.1617,-0.1617,-0.1718,-0.1921,-0.2022,-0.2222,-0.2422,-0.2725,-0.2826,-0.2927,-0.313,-0.323,-0.323,-0.323,-0.3185,-0.3127,-0.3078,-0.3021,-0.2961,-0.2903,-0.289,-0.2884,-0.2861,-0.2865,-0.2852,-0.2778,-0.2734,-0.2669,-0.2546,-0.2518,-0.2493,-0.2443,-0.2437,-0.2392,-0.2203,-0.2191,-0.2023,-0.1482,0.0136,0.1563,0.2755,0.3107,0.3252,0.3252,0.3166,0.316,0.3252,0.3091,0.3089,0.3252,0.3179,0.3323,0.3555,0.3839,0.4032,-0.1209,-0.1204,-0.123,-0.1304,-0.1312,-0.1357,0.0,0.0,-0.161,-0.1692,-0.1779,-0.1844,-0.1858,-0.1931,-0.2003,-0.2047,-0.208,-0.2111,-0.2145,-0.2123,-0.2093,-0.2063,-0.2035,-0.2007,-0.1979,-0.1973,-0.1971,-0.1971,-0.1971,-0.1971,-0.1971,-0.1975,-0.1977,-0.1977,-0.1977,-0.1975,-0.1972,-0.1971,-0.197,-0.1967,-0.1967,-0.195,-0.1921,-0.1921,-0.1889,-0.1834,-0.1807,-0.1795,-0.1792,-0.1759,-0.1727,-0.1697,-0.1668,-0.1641,-0.1617,-0.1617,-0.1617,-0.1617,-0.1617,-0.1617,-0.1718,-0.1921,-0.2222,-0.2422,-0.2725,-0.2927,-0.313,-0.323,-0.323,-0.323,-0.323,-0.3185,-0.3138,-0.3131,-0.3083,-0.3116,-0.2962,-0.295,-0.2918,-0.2813,-0.2837,-0.2838,-0.2722,-0.2741,-0.2732,-0.2609,-0.2545,-0.2507,-0.2501,-0.25,-0.2455,-0.2338,-0.2324,-0.1635,0.0067,0.1473,0.2476,0.3102,0.3303,0.3348,0.3348,0.326,0.3254,0.3346,0.3248,0.3246,0.3348,0.3338,0.3519,0.3752,0.3979,0.4146,-0.1299,-0.1316,-0.1351,0.0,-0.1481,-0.159,-0.169,-0.1744,-0.1789,-0.1844,-0.1927,-0.199,-0.199,-0.2049,-0.2102,0.0,-0.2112,-0.2114,-0.2126,-0.2087,-0.2039,-0.1992,-0.196,-0.195,-0.1974,-0.1977,-0.1977,-0.1977,-0.1977,-0.1977,-0.1977,-0.1977,-0.1977,-0.1977,-0.1977,-0.1977,-0.1977,-0.1977,-0.1977,-0.1977,-0.1977,-0.1952,-0.1904,-0.1904,-0.1871,-0.1813,-0.18,-0.1795,-0.1793,-0.1762,-0.1742,-0.1726,-0.168,-0.1654,-0.1641,-0.1624,-0.1617,-0.1617,-0.1617,-0.1718,-0.192,-0.2121,-0.2423,-0.2724,-0.2927,-0.313,-0.323,-0.323,-0.323,-0.323,-0.323,-0.3185,-0.3139,-0.3139,-0.3093,-0.3137,-0.3111,-0.2984,-0.2943,-0.2894,-0.2879,-0.2858,-0.2807,-0.2789,-0.2766,-0.2714,-0.2625,-0.255,-0.2515,-0.248,-0.2426,-0.2343,-0.2115,-0.1445,-0.0282,0.1005,0.1945,0.261,0.3136,0.3444,0.3444,0.3407,0.3403,0.3442,0.3405,0.3403,0.3444,0.3444,0.3604,0.3783,0.4066,0.4291,-0.1341,0.0,0.0,-0.1499,-0.1643,-0.1781,-0.1806,-0.1876,-0.1943,-0.1974,-0.2038,-0.2086,-0.2078,-0.2112,-0.2139,-0.2131,-0.2118,-0.2106,-0.2098,-0.2045,-0.1988,-0.1937,-0.1889,-0.1878,-0.1922,-0.1934,-0.1946,-0.1963,-0.1964,-0.1968,-0.1976,-0.1977,-0.1977,-0.1977,-0.1977,-0.1977,-0.1977,-0.1977,-0.1977,-0.1977,-0.1977,-0.1954,-0.1911,-0.1902,-0.187,-0.1819,-0.1811,-0.1803,-0.1793,-0.1771,-0.1757,-0.1746,-0.1703,-0.1677,-0.166,-0.1637,-0.1624,-0.1617,-0.1617,-0.1819,-0.2021,-0.2221,-0.2523,-0.2826,-0.3029,-0.313,-0.323,-0.323,-0.323,-0.323,-0.323,-0.3198,-0.3165,-0.3165,-0.3131,-0.3094,-0.3078,-0.304,-0.3003,-0.2986,-0.2951,-0.2922,-0.2922,-0.2872,-0.2826,-0.2811,-0.2719,-0.2624,-0.2545,-0.2467,-0.2403,-0.2362,-0.1767,-0.1174,-0.0729,0.0663,0.1771,0.2184,0.3006,0.3534,0.3534,0.3514,0.3509,0.3534,0.3511,0.3511,0.3534,0.3534,0.362,0.3791,0.4166,0.4427,0.0,0.0,-0.1514,-0.166,-0.1767,-0.1861,-0.1949,-0.2016,-0.2067,-0.2097,-0.2129,-0.2143,-0.2114,-0.2109,-0.2101,-0.2071,-0.2091,-0.2099,-0.2069,-0.2015,-0.1966,-0.1935,-0.1852,-0.1798,-0.18,-0.1827,-0.1869,-0.1928,-0.1932,-0.1945,-0.1975,-0.1977,-0.1977,-0.1977,-0.1977,-0.1977,-0.1977,-0.1977,-0.1977,-0.1977,-0.1977,-0.1975,-0.1973,-0.1943,-0.1913,-0.1881,-0.1852,-0.1822,-0.1795,-0.1794,-0.1776,-0.1749,-0.1748,-0.1712,-0.1662,-0.1661,-0.1642,-0.1617,-0.1617,-0.1819,-0.2022,-0.2022,-0.2323,-0.2826,-0.2826,-0.3027,-0.323,-0.323,-0.323,-0.323,-0.323,-0.3229,-0.3228,-0.3228,-0.3226,-0.3209,-0.315,-0.3135,-0.3116,-0.3057,-0.314,-0.3139,-0.3139,-0.2993,-0.2935,-0.288,-0.2818,-0.2734,-0.2614,-0.2493,-0.2418,-0.2417,-0.1283,-0.0598,-0.0657,0.1218,0.2377,0.2189,0.3051,0.3622,0.3622,0.3542,0.3538,0.362,0.3542,0.354,0.3622,0.3622,0.3669,0.3832,0.4222,0.438,-0.1459,0.0,-0.1746,-0.1857,-0.1967,-0.2067,-0.2138,-0.2155,-0.2151,-0.2142,-0.2099,-0.2049,-0.2,-0.1991,-0.1988,-0.1977,-0.2001,-0.2024,-0.2033,-0.1983,-0.192,-0.1849,-0.1796,-0.175,-0.1711,-0.177,-0.1836,-0.1896,-0.1901,-0.1923,-0.1974,-0.1977,-0.1977,-0.1977,-0.1977,-0.1977,-0.1977,-0.1977,-0.1977,-0.1976,-0.1956,-0.1936,-0.1915,-0.1885,-0.1865,-0.1854,-0.1823,-0.1816,-0.1823,-0.1804,-0.1789,-0.1778,-0.1758,-0.1737,-0.1716,-0.1677,-0.1656,-0.1644,-0.1624,-0.1819,-0.2021,-0.2222,-0.2523,-0.2826,-0.3027,-0.313,-0.323,-0.323,-0.323,-0.323,-0.323,-0.323,-0.323,-0.323,-0.323,-0.3225,-0.3204,-0.3168,-0.3134,-0.3113,-0.3076,-0.3144,-0.3144,-0.3127,-0.2997,-0.2939,-0.2723,-0.244,-0.2366,-0.2244,-0.2051,-0.2098,-0.1551,-0.1237,-0.1304,0.0544,0.1712,0.1607,0.2929,0.3716,0.3716,0.3689,0.3689,0.3716,0.3689,0.3689,0.3716,0.3716,0.3887,0.4229,0.4307,0.4543,-0.1613,-0.176,-0.1902,-0.2026,-0.2114,-0.2181,-0.222,-0.2197,-0.2156,-0.2114,-0.2034,-0.1949,-0.1879,-0.1857,-0.1847,-0.1837,-0.1878,-0.1922,-0.1951,-0.1922,-0.1881,-0.1833,-0.1791,-0.1751,-0.1713,-0.1752,-0.18,-0.1849,-0.1874,-0.1907,-0.1958,-0.1971,-0.1977,-0.1977,-0.1977,-0.1977,-0.1977,-0.1977,-0.1977,-0.1976,-0.1946,-0.1921,-0.1902,-0.1881,-0.1861,-0.184,-0.1832,-0.1826,-0.1823,-0.1803,-0.1795,-0.1793,-0.1774,-0.1759,-0.1745,-0.1707,-0.1687,-0.1671,-0.163,-0.1826,-0.2038,-0.2327,-0.2635,-0.2851,-0.3135,-0.323,-0.323,-0.323,-0.323,-0.323,-0.323,-0.323,-0.323,-0.323,-0.323,-0.323,-0.323,-0.32,-0.3172,-0.3172,-0.314,-0.3115,-0.3115,-0.3078,-0.3123,-0.2967,-0.2576,-0.2307,-0.2339,-0.2053,-0.1939,-0.1911,-0.1737,-0.1492,-0.1178,0.0392,0.1411,0.1724,0.3057,0.3763,0.3763,0.3763,0.3763,0.3763,0.3763,0.3763,0.3763,0.3763,0.3997,0.4309,0.4384,0.4543,-0.1758,-0.1874,-0.1986,-0.2159,-0.2202,-0.2201,-0.2196,-0.2148,-0.2086,-0.202,-0.1934,-0.1842,0.0,0.0,-0.1688,-0.1666,-0.1738,-0.1809,-0.1842,-0.1847,-0.1857,0.0,0.0,0.0,0.0,0.0,-0.1766,-0.1795,-0.1851,-0.1898,-0.1932,-0.1961,-0.1977,-0.1977,-0.1977,-0.1977,-0.1977,-0.1977,-0.1977,-0.1976,-0.1947,-0.1932,-0.1931,-0.1929,-0.1897,-0.1844,-0.187,-0.1849,-0.1797,-0.1795,-0.1795,-0.1795,-0.1795,-0.1777,-0.1752,-0.175,-0.1731,-0.1698,-0.1639,-0.1843,-0.2175,-0.234,-0.2663,-0.29,-0.3155,-0.3237,-0.3236,-0.3236,-0.3233,-0.323,-0.323,-0.323,-0.323,-0.323,-0.323,-0.323,-0.323,-0.323,-0.323,-0.323,-0.323,-0.323,-0.323,-0.3132,-0.3033,-0.2971,-0.2549,-0.223,-0.2354,-0.2094,-0.1873,-0.1869,-0.1675,-0.1179,-0.0392,0.0705,0.1724,0.2431,0.3294,0.3763,0.3763,0.3763,0.3763,0.3763,0.3763,0.3765,0.3771,0.3847,0.3929,0.4173,0.4323,0.4555,-0.1925,-0.2045,-0.2148,-0.2217,-0.2234,-0.2216,-0.2148,-0.2085,-0.2005,-0.1878,-0.1745,-0.163,0.0,0.0,0.0,-0.1652,-0.1756,0.0,-0.1931,-0.1942,0.0,-0.189,0.0,-0.1845,-0.18,-0.1808,0.0,-0.1828,-0.1843,-0.1885,-0.1961,-0.1973,-0.1977,-0.1977,-0.1977,-0.1977,-0.1977,-0.1977,-0.1977,-0.1977,-0.1969,-0.1953,-0.193,-0.1908,-0.1889,-0.1872,-0.1834,-0.1822,-0.1827,-0.1804,-0.1795,-0.1795,-0.1795,-0.179,-0.178,-0.1758,-0.1745,-0.173,-0.1671,-0.1878,-0.2115,-0.221,-0.2531,-0.2962,-0.3054,-0.3126,-0.3298,-0.3298,-0.3266,-0.323,-0.323,-0.323,-0.323,-0.323,-0.323,-0.323,-0.323,-0.323,-0.323,-0.323,-0.323,-0.323,-0.323,-0.3166,-0.2999,-0.2845,-0.2418,-0.2176,-0.2184,-0.1807,-0.1519,-0.147,-0.0808,-0.032,-0.0078,0.1332,0.2275,0.251,0.3294,0.3763,0.3763,0.3763,0.3763,0.3763,0.3763,0.3797,0.3865,0.4103,0.4302,0.454,0.4782,0.4981,-0.2065,-0.2168,-0.2244,-0.2261,-0.2245,-0.2195,-0.2078,-0.1994,-0.1894,-0.1731,-0.1598,0.0,-0.1433,-0.1446,0.0,0.0,0.0,0.0,-0.1884,-0.192,-0.1934,0.0,-0.1926,0.0,-0.1878,-0.1878,-0.1885,-0.1899,-0.1888,-0.1902,-0.1954,-0.1969,-0.1977,-0.1977,-0.1977,-0.1977,-0.1977,-0.1977,-0.1977,-0.1977,-0.1963,-0.1947,-0.193,-0.1913,-0.1891,-0.1865,-0.1844,-0.1829,-0.1819,-0.1802,-0.1795,-0.1795,-0.1795,-0.1795,-0.1793,-0.1776,-0.177,-0.1765,-0.1732,-0.1839,-0.1955,-0.2122,-0.233,-0.2661,-0.2852,-0.3017,-0.3076,-0.3178,-0.3258,-0.323,-0.323,-0.323,-0.323,-0.323,-0.323,-0.323,-0.323,-0.323,-0.323,-0.323,-0.323,-0.323,-0.323,-0.318,-0.3029,-0.2705,-0.245,-0.2112,-0.1973,-0.1671,-0.1205,-0.0756,-0.0249,0.0328,0.1131,0.2001,0.2707,0.3107,0.3584,0.3824,0.3824,0.3863,0.3883,0.3883,0.3883,0.3908,0.3959,0.4201,0.4477,0.4703,0.4949,0.5408,-0.2187,-0.2253,-0.2291,-0.2291,-0.2233,-0.2137,-0.1987,-0.1879,-0.1759,-0.1579,0.0,-0.1401,-0.1346,-0.1363,-0.1399,-0.1446,0.0,-0.1697,-0.1799,-0.1859,-0.1913,-0.197,-0.1977,-0.1977,-0.1977,-0.1953,-0.1948,-0.1975,-0.1952,-0.1937,-0.1937,-0.1966,-0.1982,-0.1982,-0.1979,-0.1977,-0.1977,-0.1977,-0.1977,-0.1976,-0.1949,-0.1937,-0.1937,-0.1933,-0.19,-0.1848,-0.187,-0.1847,-0.1795,-0.1795,-0.1795,-0.1795,-0.1795,-0.1795,-0.1795,-0.1795,-0.1795,-0.1794,-0.1791,-0.1791,-0.1782,-0.2022,-0.2119,-0.2246,-0.2739,-0.29,-0.2856,-0.3155,-0.3248,-0.3241,-0.3233,-0.323,-0.323,-0.323,-0.323,-0.323,-0.323,-0.323,-0.323,-0.323,-0.323,-0.323,-0.323,-0.3187,-0.305,-0.2747,-0.2379,-0.2136,-0.1759,-0.1521,-0.1046,-0.0087,0.0171,0.0927,0.2687,0.2802,0.3097,0.3834,0.3918,0.3918,0.3918,0.3993,0.4036,0.4036,0.4036,0.4042,0.4055,0.4303,0.4561,0.4744,0.5078,0.5736,-0.2291,-0.23,-0.2291,-0.2291,-0.2169,-0.2011,-0.1861,-0.1737,0.0,0.0,-0.1354,-0.1315,-0.1279,-0.1318,-0.1397,-0.1527,0.0,0.0,0.0,-0.1917,-0.1937,0.0,-0.1977,-0.1977,-0.1977,-0.1972,0.0,-0.1976,-0.1972,-0.1969,-0.1969,-0.1996,-0.2011,-0.2011,-0.1989,-0.1977,-0.1977,-0.1977,-0.1977,-0.1977,-0.1971,-0.1969,-0.1968,-0.1943,-0.1911,-0.1877,-0.1857,-0.1828,-0.1795,-0.1795,-0.1795,-0.1795,-0.1795,-0.1795,-0.1795,-0.1795,-0.1795,-0.1791,-0.1766,-0.1774,-0.1793,-0.1887,-0.1997,-0.2224,-0.2661,-0.2846,-0.3122,-0.3289,-0.3345,-0.3294,-0.3244,-0.323,-0.323,-0.323,-0.323,-0.323,-0.323,-0.323,-0.323,-0.323,-0.323,-0.323,-0.323,-0.3221,-0.2997,-0.2556,-0.2311,-0.2076,-0.1577,-0.145,-0.1063,-0.0087,0.0692,0.1543,0.2691,0.3348,0.3843,0.4012,0.4012,0.4012,0.4012,0.4028,0.4036,0.4036,0.4036,0.4073,0.4148,0.4577,0.4877,0.4956,0.5401,0.6046,-0.2317,-0.2323,-0.2302,-0.2256,-0.213,-0.1967,-0.177,0.0,0.0,0.0,-0.1276,-0.1256,-0.1257,0.0,0.0,0.0,0.0,0.0,0.0,0.0,0.0,-0.1967,-0.1977,-0.1977,-0.1977,-0.1977,-0.1977,-0.1977,-0.1977,-0.1983,-0.1997,-0.2011,-0.2011,-0.1997,-0.1984,-0.1977,-0.1977,-0.1977,-0.1977,-0.1977,-0.1977,-0.1977,-0.1975,-0.1945,-0.1914,-0.1884,-0.1853,-0.1823,-0.1795,-0.1795,-0.1795,-0.1795,-0.1795,-0.1795,-0.1795,-0.1795,-0.1795,-0.1793,-0.1778,-0.1782,-0.1795,-0.1795,-0.1896,-0.1993,-0.2326,-0.261,-0.2875,-0.3091,-0.324,-0.3274,-0.3278,-0.3255,-0.323,-0.323,-0.323,-0.323,-0.323,-0.323,-0.313,-0.3027,-0.3027,-0.3027,-0.3027,-0.3027,-0.2818,-0.2491,-0.2351,-0.2115,-0.1602,-0.1016,-0.0271,0.0619,0.1588,0.2549,0.3478,0.3873,0.4108,0.4108,0.4108,0.4108,0.4108,0.4148,0.4173,0.4173,0.4173,0.4195,0.4238,0.4763,0.4963,0.501,0.5463,0.6489,-0.2319,-0.2328,-0.2305,-0.2229,-0.2094,-0.1924,-0.1711,-0.1535,0.0,0.0,-0.1233,-0.1221,-0.1251,0.0,-0.1342,0.0,0.0,0.0,0.0,0.0,0.0,0.0,-0.1973,0.0,-0.1977,-0.1977,0.0,-0.1977,-0.1982,-0.1995,-0.2018,-0.2013,-0.2002,-0.1986,-0.1979,-0.1977,-0.1977,-0.1977,-0.1977,-0.1977,-0.1977,-0.1977,-0.1976,-0.1952,-0.1921,-0.1884,-0.1861,-0.1829,-0.1795,-0.1795,-0.1795,-0.1795,-0.1795,-0.1795,-0.1795,-0.1795,-0.1795,-0.1795,-0.1795,-0.1795,-0.1795,-0.1795,-0.1779,-0.1869,-0.209,-0.2374,-0.2645,-0.2886,-0.3151,-0.3296,-0.3332,-0.3296,-0.3247,-0.3233,-0.323,-0.323,-0.323,-0.323,-0.313,-0.2826,-0.2826,-0.2826,-0.2725,-0.2725,-0.2623,-0.2322,-0.2085,-0.1755,-0.125,-0.0094,0.0919,0.1625,0.2425,0.3314,0.421,0.4238,0.42,0.42,0.42,0.42,0.42,0.4263,0.43,0.43,0.43,0.43,0.43,0.4743,0.501,0.501,0.5463,0.6612,-0.2324,-0.2314,-0.2286,-0.225,-0.2048,-0.1823,-0.1692,0.0,0.0,-0.1271,-0.1233,-0.1221,-0.1251,-0.1262,-0.1293,0.0,0.0,-0.1474,0.0,0.0,0.0,0.0,0.0,0.0,-0.1977,-0.1977,-0.1977,-0.1977,-0.2001,-0.2016,-0.2018,-0.1994,-0.1991,-0.2014,-0.199,-0.1977,-0.1977,-0.1977,-0.1977,-0.1977,-0.1977,-0.1977,-0.1977,-0.1974,-0.1941,-0.1886,-0.1883,-0.1849,-0.1795,-0.1795,-0.1795,-0.1795,-0.1795,-0.1795,-0.1795,-0.1795,-0.1795,-0.1795,-0.1795,-0.1795,-0.1795,-0.1795,-0.1793,-0.1903,-0.2127,-0.2458,-0.2778,-0.296,-0.3265,-0.3462,-0.3416,-0.3358,-0.3298,-0.3244,-0.323,-0.323,-0.323,-0.323,-0.313,-0.2826,-0.2826,-0.2725,-0.2522,-0.2422,-0.2322,-0.2122,-0.1191,-0.0489,-0.0195,0.1513,0.2771,0.2858,0.2899,0.3314,0.421,0.4291,0.4287,0.4287,0.4287,0.4287,0.4287,0.4295,0.43,0.43,0.43,0.43,0.43,0.4743,0.501,0.501,0.5463,0.626,-0.222,-0.2258,-0.2247,-0.218,-0.2001,-0.1804,-0.1667,0.0,0.0,-0.1239,-0.1206,-0.1194,-0.1224,-0.1245,-0.1348,0.0,0.0,0.0,0.0,0.0,0.0,0.0,-0.1887,0.0,0.0,0.0,-0.1977,-0.1977,-0.1987,-0.1993,-0.1993,-0.1999,-0.1999,-0.1993,-0.1982,-0.1977,-0.1977,-0.1977,-0.1977,-0.1977,-0.1977,-0.1977,-0.1976,-0.1958,-0.1926,-0.1885,-0.1866,-0.1834,-0.1795,-0.1795,-0.1795,-0.1795,-0.1795,-0.1795,-0.1795,-0.1795,-0.1795,-0.1795,-0.1795,-0.1795,-0.1795,-0.1795,-0.1795,-0.1795,-0.2132,-0.2339,-0.2543,-0.2994,-0.3172,-0.3233,-0.3459,-0.342,-0.3361,-0.33,-0.3285,-0.3275,-0.3238,-0.323,-0.3029,-0.2623,-0.2522,-0.2522,-0.2222,-0.2121,-0.1919,-0.111,-0.0701,-0.0099,0.0883,0.2223,0.3037,0.2966,0.3447,0.3851,0.4297,0.43,0.43,0.43,0.43,0.43,0.43,0.43,0.43,0.43,0.43,0.43,0.43,0.4743,0.501,0.501,0.5463,0.6171,-0.2067,-0.2148,-0.2174,-0.2101,-0.1934,-0.1753,0.0,0.0,0.0,-0.1214,-0.1187,-0.1179,-0.1218,-0.1243,-0.1335,0.0,0.0,-0.1316,-0.1448,0.0,0.0,0.0,0.0,-0.1846,-0.1928,-0.1961,-0.1977,-0.1977,-0.1977,-0.1977,-0.1977,-0.1995,-0.1997,-0.1977,-0.1977,-0.1977,-0.1977,-0.1977,-0.1977,-0.1977,-0.1977,-0.1977,-0.1976,-0.1954,-0.1923,-0.1885,-0.1863,-0.1832,-0.1795,-0.1795,-0.1795,-0.1795,-0.1795,-0.1795,-0.1795,-0.1795,-0.1795,-0.1795,-0.1795,-0.1795,-0.1795,-0.1795,-0.1795,-0.1795,-0.2132,-0.2225,-0.2319,-0.2682,-0.2867,-0.2927,-0.3165,-0.3252,-0.3316,-0.3258,-0.323,-0.3309,-0.3267,-0.3141,-0.2927,-0.2522,-0.2321,-0.2221,-0.192,-0.1616,-0.111,-0.0403,0.0302,0.1003,0.1979,0.295,0.3588,0.3493,0.4043,0.4328,0.4302,0.43,0.43,0.43,0.43,0.43,0.43,0.43,0.43,0.43,0.43,0.43,0.4389,0.4832,0.501,0.5099,0.5552,0.6349,-0.1872,-0.1975,-0.2059,-0.2027,-0.184,-0.164,0.0,0.0,-0.1176,-0.1205,-0.1187,-0.1185,-0.1323,-0.1335,-0.1335,-0.1335,0.0,0.0,-0.1423,0.0,0.0,0.0,0.0,-0.1775,-0.1836,-0.1924,-0.1977,-0.1977,-0.1977,-0.1977,-0.1977,-0.1977,-0.1977,-0.1977,-0.1977,-0.1977,-0.1977,-0.1977,-0.1977,-0.1977,-0.1977,-0.1977,-0.1977,-0.1976,-0.1943,-0.1886,-0.1885,-0.1851,-0.1795,-0.1795,-0.1795,-0.1795,-0.1795,-0.1795,-0.1795,-0.1795,-0.1795,-0.1795,-0.1795,-0.1795,-0.1795,-0.1795,-0.1795,-0.1795,-0.2132,-0.2244,-0.2244,-0.2244,-0.2468,-0.2682,-0.2637,-0.2845,-0.305,-0.2996,-0.3155,-0.3322,-0.332,-0.3068,-0.2725,-0.2422,-0.2222,-0.1921,-0.1617,-0.0706,-0.0,-0.0,0.1813,0.3123,0.3222,0.4065,0.4708,0.4706,0.4542,0.4398,0.4306,0.43,0.43,0.43,0.43,0.43,0.43,0.43,0.43,0.43,0.43,0.4389,0.4661,0.4924,0.5099,0.5371,0.5644,0.67,-0.1638,-0.1714,-0.1751,-0.172,-0.1609,-0.1489,-0.142,0.0,-0.1169,-0.1179,-0.1173,-0.1179,-0.1219,-0.1243,-0.1264,-0.1285,-0.1296,0.0,0.0,0.0,0.0,-0.1675,-0.1817,-0.1912,0.0,-0.196,-0.1977,-0.1977,-0.1977,-0.1977,-0.1977,-0.1977,-0.1977,-0.1977,-0.1977,-0.1977,-0.1977,-0.1956,-0.1945,-0.1945,-0.1924,-0.1926,-0.1945,-0.1945,-0.1924,-0.1886,-0.1886,-0.1851,-0.1795,-0.1795,-0.1795,-0.1795,-0.1795,-0.1795,-0.1795,-0.1795,-0.1795,-0.1795,-0.1795,-0.1795,-0.1795,-0.1795,-0.1795,-0.1795,-0.1907,-0.1908,-0.202,-0.2132,-0.2469,-0.269,-0.2676,-0.2783,-0.2874,-0.3006,-0.2865,-0.2834,-0.2969,-0.2735,-0.2422,-0.2222,-0.2021,-0.1718,-0.0706,-0.0202,0.0504,0.2015,0.2719,0.3425,0.423,0.461,0.4773,0.4714,0.4657,0.4559,0.4404,0.4334,0.43,0.43,0.43,0.43,0.43,0.43,0.43,0.43,0.43,0.4389,0.4661,0.4924,0.5544,0.652,0.6612,0.7723,0.0,-0.1517,-0.1561,-0.1542,-0.1461,0.0,0.0,0.0,-0.1136,-0.1147,-0.1149,-0.1162,-0.1204,-0.1227,-0.125,-0.1281,-0.1305,0.0,0.0,0.0,0.0,-0.1705,0.0,0.0,-0.1941,-0.1963,-0.1977,-0.1977,-0.1977,-0.1977,-0.1977,-0.1977,-0.1977,-0.1977,-0.1977,-0.1977,-0.1977,-0.1947,-0.1931,-0.1931,-0.19,-0.1896,-0.1914,-0.1914,-0.1897,-0.1868,-0.1868,-0.184,0.0,-0.1795,-0.1795,-0.1795,-0.1795,-0.1795,-0.1795,-0.1795,-0.1795,-0.1795,-0.1795,-0.1795,-0.1795,-0.1795,-0.1795,-0.1795,-0.1795,-0.1795,-0.1795,-0.202,-0.2244,-0.2356,-0.2356,-0.2469,-0.2568,-0.2623,-0.2691,-0.2754,-0.2693,-0.2548,-0.2321,-0.2021,-0.1921,-0.1414,-0.0202,0.0302,0.1209,0.2922,0.3525,0.4029,0.4734,0.4834,0.4814,0.4763,0.4728,0.4649,0.45,0.4404,0.4336,0.4302,0.4332,0.4351,0.4351,0.4351,0.4351,0.4351,0.4408,0.4569,0.4837,0.5102,0.5925,0.7221,0.7517,0.8674,0.0,0.0,0.0,0.0,0.0,0.0,0.0,0.0,0.0,-0.1114,-0.1121,-0.114,-0.1203,-0.1213,-0.1224,-0.1258,0.0,0.0,0.0,-0.1504,0.0,0.0,-0.1812,0.0,-0.1883,-0.1941,-0.1977,-0.1977,-0.1977,-0.1977,-0.1977,-0.1977,-0.1975,-0.1973,-0.1973,-0.1973,-0.1973,-0.1941,-0.1925,-0.1924,-0.1894,-0.1881,-0.1883,-0.1883,-0.1867,-0.184,-0.184,-0.1823,-0.1795,-0.1795,-0.1795,-0.1795,-0.1795,-0.1795,-0.1795,-0.1795,-0.1795,-0.1795,-0.1795,-0.1795,-0.1795,-0.1795,-0.1795,-0.1795,-0.1795,-0.1795,-0.1795,-0.1795,-0.1795,-0.1795,-0.1792,-0.2016,-0.2127,-0.2233,-0.2506,-0.2872,-0.266,-0.2486,-0.2326,-0.2025,-0.1721,-0.1113,-0.0101,0.1008,0.2116,0.3123,0.413,0.4834,0.4834,0.4834,0.4834,0.4834,0.4765,0.4679,0.4589,0.4498,0.4402,0.4306,0.4391,0.444,0.4434,0.444,0.4444,0.4444,0.4634,0.4858,0.5032,0.5576,0.6439,0.7643,0.8302,0.9392,-0.1119,0.0,-0.1171,-0.1171,-0.115,0.0,0.0,0.0,0.0,0.0,0.0,0.0,0.0,0.0,0.0,0.0,0.0,0.0,-0.1417,0.0,0.0,-0.181,-0.1894,-0.1929,-0.1889,-0.1941,-0.1977,-0.1977,-0.1977,-0.1977,-0.1977,-0.1977,-0.1966,-0.1943,-0.1942,-0.1942,-0.1942,-0.1889,-0.1862,-0.1862,-0.1831,-0.1828,-0.1851,-0.1851,-0.1847,-0.184,-0.184,-0.1823,-0.1795,-0.1795,-0.1795,-0.1795,-0.1795,-0.1795,-0.1795,-0.1795,-0.1795,-0.1795,-0.1795,-0.1795,-0.1795,-0.1795,-0.1795,-0.1795,-0.1795,-0.1795,-0.1795,-0.1795,-0.1795,-0.179,-0.1766,-0.1871,-0.1967,-0.2127,-0.2102,-0.209,-0.2192,-0.2074,-0.1858,-0.1755,-0.1031,-0.0,0.1011,0.2116,0.3224,0.423,0.4634,0.4834,0.4834,0.4834,0.4834,0.4834,0.4816,0.4771,0.4683,0.4594,0.4471,0.431,0.4451,0.451,0.4438,0.4502,0.454,0.454,0.4987,0.5253,0.5528,0.6647,0.7777,0.8733,0.9697,1.0736,-0.1076,-0.1076,-0.1076,-0.1076,-0.1076,-0.1076,0.0,0.0,0.0,0.0,0.0,0.0,0.0,0.0,0.0,0.0,-0.1361,0.0,0.0,0.0,-0.1762,-0.1851,-0.1905,-0.1933,-0.1928,-0.1958,-0.1977,-0.1977,-0.1977,-0.1977,-0.1977,-0.1977,-0.1962,-0.1932,-0.1917,-0.191,-0.191,-0.1864,-0.184,-0.184,-0.181,-0.1804,-0.1819,-0.1819,-0.1819,-0.1819,-0.1819,-0.181,-0.1795,-0.1795,-0.1795,-0.1795,-0.1795,-0.1795,-0.1795,-0.1795,-0.1795,-0.1795,-0.1795,-0.1795,-0.1795,-0.1795,-0.1795,-0.1795,-0.1795,-0.1795,-0.1795,-0.1795,-0.1795,-0.1788,-0.1758,-0.175,-0.185,-0.1922,-0.1902,-0.1892,-0.189,-0.1891,-0.1673,-0.1028,-0.0412,0.0515,0.2022,0.2821,0.3525,0.4634,0.4834,0.4834,0.4834,0.4834,0.4834,0.4834,0.4834,0.48,0.4716,0.47,0.4616,0.4436,0.4557,0.4612,0.4563,0.4608,0.471,0.495,0.5327,0.5611,0.5892,0.7117,0.8276,0.9288,1.0129,1.1288,-0.1076,-0.1082,-0.1087,-0.1078,-0.1079,-0.1081,0.0,0.0,0.0,0.0,0.0,0.0,0.0,0.0,0.0,0.0,0.0,0.0,-0.1662,-0.1711,-0.177,-0.1874,-0.1894,-0.1916,-0.1959,-0.1971,-0.1977,-0.1977,-0.1977,-0.1977,-0.1977,-0.1972,-0.1956,-0.1925,-0.1895,-0.1877,-0.1872,-0.1847,-0.1834,-0.1833,-0.1807,-0.1795,-0.1795,-0.1795,-0.1795,-0.1795,-0.1795,-0.1795,-0.1795,-0.179,-0.1788,-0.1788,-0.1788,-0.1788,-0.1789,-0.1793,-0.1795,-0.1795,-0.1795,-0.1795,-0.1795,-0.1795,-0.1795,-0.1795,-0.1795,-0.1792,-0.1789,-0.1793,-0.1795,-0.1787,-0.1752,-0.1746,-0.1748,-0.1744,-0.1938,-0.2024,-0.1704,-0.1917,-0.1688,-0.051,-0.0,0.0824,0.2628,0.3224,0.3728,0.4634,0.4834,0.4834,0.4834,0.4834,0.4834,0.4834,0.4834,0.4806,0.4734,0.4794,0.4771,0.4622,0.4685,0.4728,0.4728,0.4728,0.4984,0.5377,0.5563,0.5944,0.6423,0.7462,0.857,0.9656,1.0538,1.1606,-0.1076,-0.1113,-0.114,-0.1089,-0.1095,-0.1108,0.0,0.0,0.0,0.0,0.0,0.0,0.0,0.0,0.0,0.0,0.0,-0.1633,0.0,0.0,-0.1865,-0.1883,-0.1931,-0.1946,-0.1904,-0.1946,-0.1977,-0.1977,-0.1977,-0.1977,-0.1977,-0.1952,-0.1924,-0.1894,-0.1863,-0.1835,-0.1809,-0.1804,-0.1802,-0.1802,-0.1797,-0.1795,-0.1795,-0.1795,-0.1795,-0.1795,-0.1795,-0.1795,-0.1793,-0.1767,-0.1757,-0.1757,-0.1757,-0.1757,-0.176,-0.1785,-0.1795,-0.1795,-0.1795,-0.1795,-0.1795,-0.1795,-0.1795,-0.1795,-0.1795,-0.1777,-0.1762,-0.1788,-0.1795,-0.1782,-0.1726,-0.1731,-0.1743,-0.1717,-0.1707,-0.1704,-0.1704,-0.1704,-0.1695,-0.1454,0.0103,0.144,0.182,0.3324,0.4634,0.4734,0.4834,0.4834,0.4834,0.4834,0.4834,0.4834,0.4834,0.4828,0.4816,0.4826,0.4822,0.4796,0.4808,0.4816,0.4816,0.5018,0.5209,0.5589,0.579,0.658,0.776,0.8739,0.9828,1.0928,1.1981,1.2592,-0.1076,-0.1108,-0.1136,-0.1107,-0.1136,-0.1157,0.0,0.0,0.0,0.0,0.0,0.0,0.0,0.0,0.0,0.0,0.0,-0.1695,-0.1782,-0.1819,-0.1849,-0.1882,-0.1911,-0.193,-0.1934,-0.196,-0.1977,-0.1977,-0.1961,-0.1952,-0.1952,-0.1923,-0.1893,-0.1862,-0.1848,-0.1825,-0.1795,-0.1778,-0.1778,-0.1795,-0.1778,-0.1779,-0.1795,-0.1795,-0.1795,-0.1795,-0.1795,-0.1785,-0.177,-0.1755,-0.174,-0.1727,-0.1744,-0.175,-0.1753,-0.1784,-0.1795,-0.1795,-0.1795,-0.1795,-0.1795,-0.1795,-0.1784,-0.177,-0.177,-0.1749,-0.1728,-0.1742,-0.1757,-0.1764,-0.1736,-0.1727,-0.1726,-0.1728,-0.1716,-0.1709,-0.1725,-0.1296,-0.0643,-0.0,0.1346,0.2675,0.3233,0.413,0.4834,0.4834,0.4834,0.4834,0.4834,0.4834,0.4834,0.4834,0.4834,0.4834,0.4834,0.4834,0.4834,0.4834,0.4834,0.4834,0.5037,0.5238,0.5539,0.5839,0.6039,0.6833,0.8021,0.911,1.0194,1.1272,1.2262,1.2764,-0.1076,-0.1103,-0.1128,-0.1114,0.0,-0.1184,0.0,0.0,0.0,0.0,0.0,0.0,0.0,0.0,0.0,-0.1636,-0.1704,-0.1757,-0.1819,-0.1833,-0.1855,-0.1902,-0.1907,-0.1925,-0.1972,-0.197,-0.1966,-0.1966,-0.1938,-0.1921,-0.1921,-0.1892,-0.1864,-0.1841,-0.1834,-0.1815,-0.1785,-0.1754,-0.1754,-0.1784,-0.1753,-0.1751,-0.1774,-0.1781,-0.178,-0.1774,-0.1781,-0.1767,-0.1738,-0.1732,-0.1716,-0.1697,-0.172,-0.1733,-0.1743,-0.1773,-0.178,-0.1775,-0.1782,-0.178,-0.1774,-0.1774,-0.1758,-0.1739,-0.1739,-0.1718,-0.1696,-0.1703,-0.1716,-0.1731,-0.1737,-0.1722,-0.1712,-0.1742,-0.1732,-0.1721,-0.1745,-0.0872,0.0215,0.1041,0.227,0.3483,0.4241,0.4634,0.4834,0.4834,0.4834,0.4834,0.4834,0.4834,0.4834,0.4834,0.4834,0.4834,0.4834,0.4834,0.4834,0.4834,0.4834,0.4937,0.524,0.5539,0.5839,0.6042,0.6237,0.6933,0.8021,0.911,1.0194,1.1272,1.2262,1.2764,-0.1076,-0.1119,-0.115,-0.1093,0.0,0.0,0.0,0.0,0.0,0.0,0.0,0.0,0.0,0.0,-0.1549,-0.1646,-0.1757,-0.1852,-0.1913,-0.1946,-0.1965,-0.1969,-0.197,-0.1972,-0.1976,-0.1951,-0.1934,-0.1934,-0.1907,-0.1889,-0.1889,-0.186,-0.1842,-0.184,-0.1813,-0.1784,-0.1753,-0.1722,-0.1722,-0.1752,-0.1722,-0.1709,-0.1712,-0.174,-0.1737,-0.1712,-0.174,-0.1735,-0.1705,-0.168,-0.1667,-0.1665,-0.1668,-0.1684,-0.1711,-0.1742,-0.1735,-0.1714,-0.1743,-0.1734,-0.1711,-0.1711,-0.1709,-0.1707,-0.1707,-0.1688,-0.1671,-0.1697,-0.1687,-0.1675,-0.1701,-0.1706,-0.1712,-0.1742,-0.1748,-0.1747,-0.1749,-0.0863,-0.0106,0.0104,0.1736,0.3229,0.3324,0.413,0.4834,0.4834,0.4834,0.4834,0.4834,0.4834,0.4834,0.4834,0.4834,0.4834,0.4834,0.4834,0.4834,0.4834,0.5037,0.514,0.524,0.5741,0.5942,0.6042,0.6237,0.6933,0.8021,0.911,1.0194,1.1272,1.2262,1.2764,-0.1076,-0.112,-0.1156,-0.1114,0.0,0.0,0.0,0.0,0.0,0.0,0.0,0.0,0.0,0.0,-0.1628,-0.168,-0.179,-0.1877,-0.19,-0.1929,-0.1941,-0.1922,-0.192,-0.192,-0.192,-0.191,-0.1903,-0.1903,-0.1874,-0.1857,-0.1857,-0.1829,-0.1812,-0.1812,-0.1782,-0.1761,-0.175,-0.1702,-0.1684,-0.1695,-0.1684,-0.1688,-0.1705,-0.1716,-0.1715,-0.1705,-0.1716,-0.1705,-0.1677,-0.1667,-0.1651,-0.1636,-0.1655,-0.168,-0.1705,-0.1717,-0.1714,-0.1706,-0.1718,-0.1714,-0.1704,-0.1704,-0.1692,-0.1678,-0.1678,-0.1657,-0.164,-0.167,-0.1656,-0.1645,-0.1692,-0.1691,-0.1685,-0.1714,-0.1708,-0.1705,-0.1742,-0.032,0.0943,0.0947,0.2672,0.423,0.423,0.4533,0.4834,0.4834,0.4834,0.4834,0.4834,0.4834,0.4834,0.4834,0.4834,0.4834,0.4834,0.4834,0.4834,0.5037,0.514,0.524,0.5438,0.5839,0.6042,0.6239,0.6337,0.6933,0.8021,0.8418,0.9501,1.117,1.1668,1.2165,-0.1076,-0.1106,-0.1135,0.0,0.0,0.0,0.0,0.0,0.0,0.0,0.0,0.0,0.0,0.0,0.0,0.0,-0.1798,-0.1875,-0.1884,-0.1904,-0.1909,-0.1888,-0.1886,-0.1886,-0.1886,-0.1877,-0.1868,-0.1858,-0.1829,-0.1812,-0.1812,-0.1782,-0.1771,-0.178,-0.1751,-0.1731,-0.1722,-0.1682,-0.1657,-0.1648,-0.1648,-0.1658,-0.1677,-0.1686,-0.1686,-0.1677,-0.1686,-0.1675,-0.1648,-0.1648,-0.1636,-0.1619,-0.164,-0.166,-0.1677,-0.1688,-0.1685,-0.1678,-0.1688,-0.1684,-0.1677,-0.1677,-0.1664,-0.1648,-0.1648,-0.1633,-0.1621,-0.1642,-0.1633,-0.1626,-0.1666,-0.1662,-0.1655,-0.1684,-0.1683,-0.1686,-0.1727,-0.0,0.1568,0.1579,0.3305,0.4877,0.4877,0.4877,0.4888,0.4916,0.4896,0.4877,0.4877,0.4877,0.4867,0.4839,0.4834,0.4834,0.4834,0.4834,0.4937,0.514,0.524,0.5438,0.5737,0.5939,0.6239,0.6437,0.6437,0.6933,0.8021,0.8319,0.9402,1.117,1.1565,1.2068,-0.1076,-0.1076,0.0,0.0,0.0,0.0,0.0,0.0,0.0,0.0,0.0,0.0,-0.1612,0.0,0.0,-0.1695,-0.178,-0.1851,-0.1881,-0.1885,-0.1885,-0.1885,-0.1885,-0.1884,-0.1884,-0.1857,-0.1826,-0.1796,-0.1766,-0.1749,-0.1749,-0.172,-0.1718,-0.1748,-0.172,-0.169,-0.1662,-0.1662,-0.1647,-0.1617,-0.1617,-0.1617,-0.1618,-0.1648,-0.1645,-0.1619,-0.1649,-0.1645,-0.1617,-0.1617,-0.1617,-0.1617,-0.1617,-0.1617,-0.162,-0.1651,-0.1643,-0.1621,-0.1652,-0.1642,-0.1617,-0.1617,-0.1617,-0.1617,-0.1617,-0.1617,-0.1617,-0.1617,-0.1617,-0.1617,-0.1617,-0.1617,-0.1624,-0.1654,-0.1683,-0.1703,-0.1704,-0.0,0.1585,0.1557,0.3415,0.4971,0.4971,0.4973,0.5004,0.5094,0.503,0.4971,0.4971,0.4971,0.4937,0.4845,0.4834,0.4834,0.4834,0.4834,0.4937,0.514,0.5438,0.5737,0.5942,0.6239,0.6437,0.6437,0.6437,0.6933,0.8021,0.911,1.0096,1.1272,1.2268,1.2764,-0.1076,-0.1123,0.0,0.0,0.0,0.0,0.0,0.0,0.0,0.0,0.0,-0.1644,-0.1673,-0.1696,0.0,-0.1705,-0.178,-0.1836,-0.1823,-0.184,-0.1846,-0.1824,-0.1803,-0.179,-0.179,-0.1763,-0.1741,-0.1732,-0.1722,-0.1718,-0.1718,-0.1709,-0.1708,-0.1718,-0.169,-0.1671,-0.1662,-0.1641,-0.1626,-0.1617,-0.1617,-0.1617,-0.1617,-0.1626,-0.1625,-0.1617,-0.1626,-0.1625,-0.1617,-0.1617,-0.1617,-0.1617,-0.1617,-0.1617,-0.1618,-0.1627,-0.1624,-0.1618,-0.1627,-0.1624,-0.1617,-0.1617,-0.1617,-0.1617,-0.1617,-0.1617,-0.1617,-0.1617,-0.1617,-0.1617,-0.1617,-0.1617,-0.162,-0.1628,-0.1022,-0.0514,-0.0521,0.1137,0.2667,0.2687,0.3935,0.4971,0.4971,0.5024,0.5077,0.5104,0.503,0.4949,0.4883,0.4875,0.4865,0.4839,0.4834,0.4834,0.4834,0.4937,0.5238,0.5436,0.5739,0.5942,0.6042,0.6239,0.6437,0.6437,0.6437,0.6933,0.8021,0.8319,0.9402,1.117,1.157,1.2068,-0.109,0.0,0.0,0.0,0.0,0.0,0.0,0.0,0.0,0.0,0.0,-0.1692,-0.1733,-0.1735,0.0,-0.1723,-0.1778,-0.1816,-0.1797,-0.18,-0.1797,-0.1779,-0.175,-0.1731,-0.1731,-0.1715,-0.1699,-0.1688,-0.1688,-0.1688,-0.1688,-0.1676,-0.1675,-0.1687,-0.166,-0.1644,-0.1644,-0.1626,-0.1617,-0.1617,-0.1617,-0.1617,-0.1617,-0.1617,-0.1617,-0.1617,-0.1617,-0.1617,-0.1617,-0.1617,-0.1617,-0.1617,-0.1617,-0.1617,-0.1617,-0.1617,-0.1617,-0.1617,-0.1617,-0.1617,-0.1617,-0.1617,-0.1617,-0.1617,-0.1617,-0.1617,-0.1617,-0.1617,-0.1617,-0.1617,-0.1617,-0.1617,-0.1617,-0.1617,-0.0812,-0.0,-0.0,0.1746,0.3197,0.3312,0.4297,0.5067,0.5032,0.5071,0.512,0.5157,0.5084,0.4992,0.4902,0.4857,0.4834,0.4834,0.4834,0.4834,0.4937,0.514,0.534,0.5737,0.5939,0.6042,0.6139,0.6337,0.6437,0.6437,0.6437,0.7129,0.8616,0.8616,0.9698,1.1868,1.1868,1.2165,0.0,0.0,0.0,0.0,0.0,0.0,0.0,0.0,0.0,0.0,0.0,-0.1729,-0.1785,-0.1748,-0.1718,-0.1749,-0.1772,-0.1788,-0.1791,-0.1765,-0.1746,-0.1746,-0.1719,-0.17,-0.17,-0.1698,-0.1686,-0.166,-0.1658,-0.1658,-0.1658,-0.1632,-0.1629,-0.1657,-0.1631,-0.1617,-0.1617,-0.1617,-0.1617,-0.1617,-0.1617,-0.1617,-0.1617,-0.1617,-0.1617,-0.1617,-0.1617,-0.1617,-0.1617,-0.1617,-0.1617,-0.1617,-0.1617,-0.1617,-0.1617,-0.1617,-0.1617,-0.1617,-0.1617,-0.1617,-0.1617,-0.1617,-0.1617,-0.1617,-0.1617,-0.1617,-0.1617,-0.1617,-0.1617,-0.1617,-0.1617,-0.1617,-0.1617,-0.1515,-0.0613,0.0103,0.0101,0.1862,0.3477,0.3524,0.4468,0.5206,0.5122,0.5116,0.5143,0.521,0.5149,0.5063,0.4971,0.4885,0.4834,0.4834,0.4834,0.4937,0.514,0.524,0.5441,0.5942,0.6042,0.6139,0.6437,0.6437,0.6437,0.6437,0.6437,0.7428,0.9608,0.9608,1.069,1.2764,1.2764,1.2764,0.0,0.0,0.0,0.0,0.0,0.0,0.0,0.0,0.0,0.0,-0.1756,-0.178,-0.1793,-0.1765,-0.175,-0.178,-0.175,-0.1732,-0.1756,-0.1733,-0.1714,-0.1714,-0.1689,-0.1671,-0.1671,-0.165,-0.1633,-0.1627,-0.1626,-0.1626,-0.1626,-0.162,-0.162,-0.1626,-0.162,-0.1617,-0.1617,-0.1617,-0.1617,-0.1617,-0.1617,-0.1617,-0.1617,-0.1617,-0.1617,-0.1617,-0.1617,-0.1617,-0.1617,-0.1617,-0.1617,-0.1617,-0.1617,-0.1617,-0.1617,-0.1617,-0.1617,-0.1617,-0.1617,-0.1617,-0.1617,-0.1617,-0.1617,-0.1617,-0.1617,-0.1617,-0.1617,-0.1617,-0.1617,-0.1617,-0.1617,-0.1617,-0.1414,-0.0504,0.0506,0.1216,0.1211,0.2939,0.448,0.4463,0.4804,0.513,0.5112,0.5167,0.5173,0.5049,0.5014,0.4967,0.4875,0.4847,0.4834,0.4834,0.4834,0.4937,0.514,0.5438,0.5639,0.5942,0.6239,0.6337,0.6437,0.6437,0.6437,0.6437,0.6437,0.7428,0.9608,0.9608,1.069,1.2764,1.2764,1.2764,0.0,0.0,0.0,0.0,0.0,0.0,0.0,0.0,0.0,-0.1707,-0.1752,-0.1795,-0.1795,-0.177,-0.1755,-0.177,-0.1735,-0.171,-0.1725,-0.1703,-0.1684,-0.1684,-0.1658,-0.1641,-0.1641,-0.1626,-0.1617,-0.1617,-0.1617,-0.1617,-0.1617,-0.1617,-0.1617,-0.1617,-0.1603,-0.1595,-0.1595,-0.1595,-0.1595,-0.1595,-0.1595,-0.1595,-0.1596,-0.161,-0.1617,-0.1617,-0.1617,-0.1617,-0.1617,-0.1617,-0.1617,-0.1617,-0.1617,-0.1617,-0.1617,-0.1617,-0.1617,-0.1617,-0.1617,-0.1617,-0.1617,-0.1617,-0.1617,-0.1617,-0.1617,-0.1617,-0.1617,-0.1617,-0.1617,-0.1617,-0.1617,-0.1617,-0.1313,-0.0303,0.0806,0.1714,0.2217,0.3652,0.49,0.49,0.5049,0.5145,0.5057,0.5081,0.5067,0.4926,0.4943,0.4939,0.4847,0.4834,0.4834,0.4834,0.4937,0.5138,0.5338,0.5639,0.5939,0.6139,0.6337,0.6437,0.6437,0.6437,0.6437,0.6437,0.6933,0.7925,0.9608,1.0096,1.1179,1.2764,1.2877,1.2867,0.0,0.0,0.0,0.0,0.0,0.0,0.0,0.0,0.0,-0.1696,-0.1741,-0.1779,-0.1779,-0.1755,-0.1736,-0.1741,-0.1712,-0.1691,-0.1696,-0.1672,-0.1654,-0.1654,-0.1633,-0.1617,-0.1617,-0.1617,-0.1617,-0.1617,-0.1612,-0.1609,-0.1609,-0.1604,-0.1601,-0.1601,-0.1577,-0.1564,-0.1564,-0.1564,-0.1564,-0.1564,-0.1564,-0.1564,-0.1564,-0.159,-0.1604,-0.1609,-0.1604,-0.1601,-0.1601,-0.1601,-0.1601,-0.1602,-0.1607,-0.1609,-0.1609,-0.1615,-0.1617,-0.1617,-0.1617,-0.1617,-0.1617,-0.1617,-0.1617,-0.1617,-0.1617,-0.1617,-0.1617,-0.1617,-0.1617,-0.1617,-0.1617,-0.1414,-0.101,-0.0,0.1109,0.2116,0.3022,0.418,0.4949,0.4949,0.5084,0.5155,0.5018,0.4981,0.4947,0.4869,0.491,0.4922,0.4845,0.4834,0.4935,0.4935,0.5138,0.5338,0.5636,0.5839,0.6139,0.6337,0.6437,0.6437,0.6437,0.6437,0.6534,0.6634,0.7524,0.8517,0.9608,1.0685,1.1785,1.2824,1.3017,1.3023,0.0,0.0,0.0,0.0,0.0,0.0,0.0,0.0,-0.1636,0.0,-0.1694,-0.1716,-0.1716,-0.1693,-0.1682,-0.1706,-0.1665,-0.1638,-0.1664,-0.1642,-0.1623,-0.1623,-0.162,-0.1617,-0.1617,-0.1617,-0.1617,-0.1617,-0.1592,-0.1577,-0.1577,-0.1553,-0.1538,-0.1538,-0.1534,-0.1532,-0.1532,-0.1532,-0.1532,-0.1532,-0.1532,-0.1532,-0.1532,-0.1536,-0.1553,-0.1576,-0.155,-0.1538,-0.1538,-0.1538,-0.1538,-0.154,-0.1567,-0.1577,-0.1581,-0.1607,-0.1617,-0.1617,-0.1617,-0.1617,-0.1617,-0.1617,-0.1617,-0.1617,-0.1617,-0.1617,-0.1617,-0.1617,-0.1617,-0.1617,-0.1617,-0.0908,0.0101,0.1109,0.2217,0.3022,0.3123,0.4036,0.4853,0.4853,0.4937,0.5024,0.5081,0.5024,0.4967,0.4955,0.4896,0.4949,0.514,0.514,0.5238,0.5436,0.5536,0.5636,0.5942,0.5942,0.6139,0.6337,0.6437,0.6437,0.6437,0.6437,0.6833,0.7723,0.7922,0.8517,0.9608,1.0685,1.186,1.306,1.3087,1.3206,0.0,0.0,0.0,0.0,0.0,0.0,0.0,0.0,-0.157,-0.1583,-0.1596,-0.1625,-0.1692,-0.1681,-0.1667,-0.1679,-0.163,-0.1596,-0.1609,-0.1585,-0.1566,-0.1566,-0.1566,-0.1566,-0.1566,-0.1566,-0.1566,-0.1566,-0.1553,-0.1546,-0.1546,-0.1534,-0.1526,-0.1526,-0.151,-0.15,-0.15,-0.15,-0.15,-0.1501,-0.1518,-0.1517,-0.15,-0.15,-0.1517,-0.1545,-0.1532,-0.1526,-0.1526,-0.1526,-0.1526,-0.1528,-0.154,-0.1556,-0.1573,-0.1586,-0.1602,-0.1617,-0.1617,-0.1617,-0.1617,-0.1617,-0.1617,-0.1617,-0.1617,-0.1617,-0.1617,-0.1617,-0.1617,-0.1617,-0.1617,-0.0807,0.0302,0.131,0.2418,0.3324,0.3927,0.4431,0.4849,0.4902,0.4902,0.4924,0.5016,0.4955,0.4894,0.4894,0.4964,0.5037,0.514,0.5338,0.5436,0.5634,0.5737,0.5839,0.5942,0.6139,0.6237,0.6437,0.6437,0.6437,0.6437,0.6437,0.6933,0.8021,0.8616,0.9454,1.0657,1.1751,1.2668,1.3319,1.3443,1.3497,0.0,0.0,0.0,0.0,0.0,0.0,0.0,0.0,-0.1505,0.0,-0.1521,-0.1553,-0.1642,-0.1641,-0.1628,-0.1628,-0.159,-0.156,-0.156,-0.154,-0.1526,-0.1526,-0.1526,-0.1526,-0.1526,-0.1526,-0.1526,-0.1526,-0.1519,-0.1515,-0.1515,-0.1507,-0.1503,-0.1503,-0.1481,-0.1469,-0.1469,-0.1469,-0.1469,-0.147,-0.1492,-0.1491,-0.1469,-0.1469,-0.1481,-0.1503,-0.1503,-0.1503,-0.1503,-0.1503,-0.1503,-0.1504,-0.1511,-0.1528,-0.155,-0.1566,-0.1581,-0.1596,-0.1611,-0.1611,-0.1607,-0.1614,-0.1617,-0.1617,-0.1617,-0.1617,-0.1617,-0.1617,-0.1617,-0.1516,-0.1313,-0.0404,0.0706,0.1713,0.2821,0.3827,0.4634,0.4834,0.4855,0.4922,0.4881,0.4863,0.4955,0.4896,0.4843,0.4968,0.5054,0.5249,0.5477,0.5555,0.5746,0.5874,0.5957,0.6139,0.6139,0.6237,0.6437,0.6437,0.6467,0.6483,0.6483,0.6681,0.7397,0.8535,0.9594,1.054,1.1496,1.2661,1.3324,1.3572,1.3739,1.3766,0.0,0.0,0.0,0.0,0.0,0.0,0.0,0.0,-0.1448,-0.1477,-0.1506,-0.1528,-0.1534,-0.1534,-0.1533,-0.1533,-0.153,-0.1528,-0.1528,-0.1527,-0.1526,-0.1526,-0.1526,-0.1526,-0.1526,-0.1526,-0.1526,-0.1526,-0.1499,-0.1483,-0.1483,-0.1455,-0.144,-0.144,-0.1438,-0.1438,-0.1438,-0.1438,-0.1438,-0.1438,-0.1439,-0.1439,-0.1438,-0.1438,-0.1438,-0.144,-0.144,-0.144,-0.144,-0.144,-0.144,-0.1443,-0.1472,-0.1484,-0.1493,-0.155,-0.1554,-0.1539,-0.1597,-0.1598,-0.1579,-0.1607,-0.1617,-0.1617,-0.1617,-0.1617,-0.1617,-0.1617,-0.1617,-0.1414,-0.0303,0.0706,0.1814,0.2821,0.3927,0.4734,0.4834,0.4834,0.4836,0.4841,0.4839,0.4863,0.4955,0.4896,0.4966,0.5263,0.5302,0.5477,0.6087,0.6007,0.6083,0.6495,0.6404,0.6337,0.6337,0.6437,0.6437,0.6437,0.6545,0.6608,0.6608,0.7527,0.8713,0.9999,1.0968,1.1381,1.1496,1.2832,1.3577,1.3803,1.3814,1.3943,0.0,0.0,0.0,0.0,0.0,0.0,0.0,-0.1343,-0.1382,-0.1393,-0.1418,-0.1439,-0.1439,-0.1487,-0.1526,-0.1526,-0.151,-0.1497,-0.1497,-0.148,-0.1468,-0.1468,-0.1468,-0.1468,-0.1468,-0.1468,-0.1468,-0.1468,-0.1457,-0.1443,-0.1423,-0.1412,-0.1398,-0.138,-0.1293,-0.1388,-0.1406,-0.1388,-0.1388,-0.1406,-0.1388,-0.1293,-0.1293,-0.1293,-0.1389,-0.1406,-0.1406,-0.1417,-0.1436,-0.1436,-0.1436,-0.1436,-0.1447,-0.1463,-0.1483,-0.1505,-0.1531,-0.1558,-0.158,-0.1594,-0.1603,-0.1613,-0.1617,-0.1617,-0.1617,-0.1617,-0.1617,-0.1617,-0.1617,-0.1313,-0.0303,0.0806,0.2016,0.3827,0.4533,0.4834,0.4834,0.4834,0.4834,0.4834,0.4834,0.4845,0.4877,0.496,0.5172,0.5375,0.5667,0.5987,0.6302,0.6321,0.6471,0.6613,0.651,0.6469,0.6548,0.6554,0.6586,0.6665,0.6711,0.6736,0.6736,0.7874,0.8934,1.0032,1.134,1.2314,1.2941,1.3445,1.3825,1.4062,1.4062,1.411,-0.1106,0.0,0.0,0.0,0.0,0.0,-0.1268,0.0,-0.1336,-0.1261,-0.1363,-0.1376,-0.1376,-0.1425,-0.1472,-0.1493,-0.1478,-0.1466,-0.1466,-0.1448,-0.1436,-0.1436,-0.1436,-0.1431,-0.1421,-0.142,-0.1416,-0.1407,-0.1406,-0.1397,-0.1377,-0.1376,-0.1367,-0.1264,-0.1263,-0.1357,-0.1376,-0.1357,-0.1357,-0.1376,-0.1357,-0.1263,-0.1263,-0.1263,-0.1363,-0.139,-0.139,-0.1407,-0.1436,-0.1436,-0.1436,-0.1436,-0.1436,-0.1447,-0.1467,-0.1477,-0.15,-0.1528,-0.1549,-0.1569,-0.1588,-0.1598,-0.1609,-0.1617,-0.1617,-0.1617,-0.1617,-0.1617,-0.1313,-0.0808,0.0302,0.1612,0.3022,0.4431,0.4834,0.4834,0.4834,0.4834,0.4834,0.4834,0.4834,0.4834,0.4834,0.5037,0.5273,0.5476,0.5872,0.6223,0.6515,0.6615,0.6649,0.6733,0.6632,0.6575,0.6616,0.6657,0.6698,0.6738,0.6817,0.7074,0.739,0.8547,0.9727,1.0843,1.2077,1.3118,1.3943,1.3943,1.4029,1.4196,1.4196,1.4196,0.0,0.0,0.0,0.0,0.0,0.0,-0.1286,0.0,-0.1309,-0.1339,-0.1261,-0.1262,-0.1262,-0.1263,-0.1281,-0.1423,-0.1433,-0.1433,-0.1433,-0.1433,-0.1433,-0.1433,-0.1433,-0.1421,-0.1392,-0.1388,-0.1378,-0.1266,-0.1263,-0.1263,-0.1262,-0.1261,-0.1261,-0.1261,-0.1261,-0.1261,-0.1262,-0.1261,-0.1261,-0.1262,-0.1261,-0.1261,-0.1261,-0.1261,-0.1361,-0.1387,-0.1387,-0.1405,-0.1433,-0.1435,-0.1436,-0.1436,-0.1436,-0.1436,-0.1439,-0.1468,-0.1461,-0.1445,-0.1504,-0.1525,-0.1531,-0.1561,-0.1591,-0.1615,-0.1615,-0.1616,-0.1516,-0.1516,-0.0807,0.0302,0.1411,0.3224,0.4834,0.4834,0.4834,0.4834,0.4834,0.4834,0.4834,0.4834,0.4834,0.4834,0.4834,0.5037,0.5374,0.5779,0.5916,0.6277,0.694,0.6777,0.6719,0.6959,0.6874,0.6755,0.6641,0.6738,0.6757,0.6641,0.6858,0.7525,0.8699,0.9774,1.1035,1.2413,1.3301,1.3949,1.4196,1.4196,1.4196,1.4196,1.4196,1.4196,-0.1166,0.0,0.0,0.0,0.0,0.0,-0.1233,0.0,-0.1272,-0.1281,-0.13,-0.1315,-0.1315,-0.1333,-0.1269,-0.1284,-0.1389,-0.1402,-0.1402,-0.1402,-0.1395,-0.1374,-0.1286,-0.1369,-0.1361,-0.1359,-0.1356,-0.1264,-0.1263,-0.1338,-0.1316,-0.1294,-0.1282,-0.1282,-0.1282,-0.1293,-0.1315,-0.1293,-0.1294,-0.1315,-0.1293,-0.1282,-0.1282,-0.1282,-0.1299,-0.1326,-0.1326,-0.1344,-0.129,-0.1418,-0.1436,-0.1436,-0.1436,-0.1436,-0.1436,-0.1444,-0.1457,-0.147,-0.1487,-0.1508,-0.1528,-0.1536,-0.1559,-0.1584,-0.1584,-0.1099,-0.0403,-0.0403,0.0302,0.1411,0.2519,0.3726,0.4834,0.4834,0.4834,0.4834,0.4834,0.4834,0.4834,0.4834,0.4834,0.4834,0.5037,0.5338,0.5675,0.599,0.6357,0.6666,0.6961,0.6926,0.691,0.6978,0.6874,0.6825,0.688,0.6915,0.6956,0.7005,0.7834,0.8533,0.8859,1.0812,1.2031,1.2413,1.3465,1.4126,1.4196,1.4196,1.4196,1.4196,1.4196,1.4196,0.0,0.0,0.0,-0.128,0.0,0.0,-0.123,-0.1245,-0.1335,-0.1335,-0.1271,-0.1284,-0.1284,-0.1298,-0.1314,-0.1327,-0.1343,-0.1358,-0.1371,-0.1372,-0.1367,-0.1266,-0.1263,-0.1259,-0.133,-0.1329,-0.1324,-0.1311,-0.131,-0.1302,-0.1284,-0.1267,-0.1335,-0.1335,-0.1335,-0.1266,-0.1284,-0.1266,-0.1266,-0.1284,-0.1266,-0.1335,-0.1335,-0.1335,-0.1274,-0.1303,-0.1303,-0.132,-0.1267,-0.1384,-0.1406,-0.1416,-0.1416,-0.1424,-0.1436,-0.1436,-0.1446,-0.1462,-0.1462,-0.1482,-0.1507,-0.1507,-0.1528,-0.1456,-0.1067,-0.0586,0.0099,0.0497,0.1402,0.2519,0.3626,0.4331,0.4834,0.4834,0.4834,0.4834,0.4834,0.4834,0.4834,0.4834,0.4935,0.5037,0.514,0.5539,0.5891,0.6256,0.6505,0.6787,0.6961,0.694,0.6929,0.698,0.6921,0.6907,0.698,0.7029,0.7281,0.7844,0.8556,0.9357,1.0343,1.1651,1.2639,1.3192,1.3862,1.4196,1.4196,1.4196,1.4196,1.4196,1.4196,1.4196,0.0,0.0,0.0,-0.1335,-0.1335,0.0,-0.1335,-0.1335,-0.1335,-0.1335,-0.1335,-0.1335,-0.1335,-0.1335,-0.1266,-0.1293,-0.1298,-0.1308,-0.1339,-0.1259,-0.1341,-0.1338,-0.1338,-0.1327,-0.13,-0.1298,-0.1286,-0.1338,-0.1335,-0.1335,-0.1335,-0.1335,-0.1335,-0.1335,-0.1335,-0.1335,-0.1335,-0.1335,-0.1335,-0.1335,-0.1335,-0.1335,-0.1335,-0.1335,-0.1272,-0.1298,-0.1298,-0.1313,-0.1338,-0.1338,-0.1356,-0.1386,-0.1388,-0.1406,-0.1431,-0.1433,-0.1436,-0.1436,-0.1436,-0.1453,-0.1476,-0.1476,-0.1496,-0.1331,-0.038,-0.0,0.0287,0.1555,0.2574,0.3615,0.452,0.4826,0.4834,0.4834,0.4834,0.4834,0.4834,0.4834,0.4834,0.4834,0.5037,0.524,0.524,0.5641,0.6108,0.6409,0.6469,0.6698,0.6915,0.6861,0.6844,0.6953,0.6978,0.6986,0.6986,0.7089,0.7656,0.8618,0.8955,1.0123,1.2304,1.2526,1.3083,1.4191,1.4196,1.4196,1.4196,1.4196,1.4196,1.4196,1.4196,1.4196,-0.1335,-0.1335,-0.1335,-0.1335,-0.1335,0.0,-0.1335,-0.1335,-0.1335,-0.1335,-0.1335,-0.1335,-0.1335,-0.1335,-0.1338,-0.1265,-0.1266,-0.1277,-0.1307,-0.1311,-0.1302,-0.1278,-0.1275,-0.1273,-0.1266,-0.1266,-0.1264,-0.1336,-0.1335,-0.1335,-0.1335,-0.1335,-0.1335,-0.1335,-0.1335,-0.1335,-0.1335,-0.1335,-0.1335,-0.1335,-0.1335,-0.1335,-0.1335,-0.1335,-0.1339,-0.1266,-0.1266,-0.1269,-0.1275,-0.1275,-0.1307,-0.1358,-0.1381,-0.1393,-0.1401,-0.1426,-0.1436,-0.1436,-0.1436,-0.1439,-0.1444,-0.1444,-0.1465,-0.1303,-0.0279,0.0564,0.1619,0.3443,0.4177,0.4438,0.4634,0.4783,0.4834,0.4834,0.4834,0.4834,0.4834,0.4834,0.4834,0.5039,0.514,0.534,0.5741,0.5942,0.6055,0.6398,0.6468,0.6635,0.6684,0.6755,0.6812,0.6836,0.6926,0.6986,0.6986,0.7089,0.7695,0.8769,0.9779,1.0996,1.2304,1.3305,1.397,1.4196,1.4196,1.4196,1.4196,1.4196,1.4196,1.4196,1.4196,1.4196,-0.128,-0.1269,-0.1335,-0.1335,-0.1335,0.0,0.0,-0.1335,-0.1335,-0.1335,-0.1335,-0.1335,-0.1335,-0.1335,-0.1335,-0.1335,-0.1335,-0.1262,-0.1278,-0.128,-0.1274,-0.1338,-0.1335,-0.1335,-0.1335,-0.1335,-0.1335,-0.1335,-0.1335,-0.1335,-0.1335,-0.1335,-0.1335,-0.1335,-0.1335,-0.1335,-0.1335,-0.1335,-0.1335,-0.1335,-0.1335,-0.1335,-0.1335,-0.1335,-0.1335,-0.1335,-0.1335,-0.1335,-0.1335,-0.1335,-0.1275,-0.1306,-0.1335,-0.1356,-0.1371,-0.1386,-0.1401,-0.1412,-0.1412,-0.1423,-0.1436,-0.1436,-0.1446,-0.1184,0.0273,0.1753,0.3187,0.4221,0.4569,0.464,0.464,0.4706,0.4771,0.4771,0.4804,0.4834,0.4937,0.5037,0.5138,0.5541,0.5641,0.5641,0.5942,0.6139,0.6258,0.6518,0.6581,0.6619,0.6619,0.6673,0.6711,0.6711,0.6766,0.7063,0.7831,0.7898,0.8726,1.0554,1.1214,1.2096,1.3305,1.3862,1.4196,1.4196,1.4196,1.4196,1.4196,1.4196,1.4196,1.4196,1.4196,1.4196,-0.1311,-0.1289,-0.1266,-0.1266,-0.1262,-0.1335,0.0,0.0,0.0,-0.1335,-0.1335,-0.1335,-0.1335,-0.1335,-0.1334,-0.1249,-0.1254,-0.1333,-0.1249,-0.1254,-0.1335,-0.1335,-0.1335,-0.1335,-0.1335,-0.1335,-0.1335,-0.1335,-0.1335,-0.1335,-0.1335,-0.1335,-0.1335,-0.1335,-0.1335,-0.1333,-0.1249,-0.1249,-0.1249,-0.1249,-0.1249,-0.1251,-0.1335,-0.1335,-0.1254,-0.1249,-0.1333,-0.1332,-0.1249,-0.1333,-0.1335,-0.1339,-0.1291,-0.1318,-0.134,-0.1261,-0.1362,-0.1382,-0.1388,-0.1406,-0.1338,-0.1165,-0.0896,-0.0269,0.1253,0.2988,0.441,0.441,0.4475,0.4547,0.4547,0.4614,0.4687,0.4704,0.4761,0.4816,0.5135,0.524,0.534,0.5942,0.6042,0.6042,0.6042,0.6239,0.6469,0.6567,0.6584,0.6584,0.6584,0.6584,0.6584,0.6584,0.683,0.7458,0.8628,0.8918,1.0081,1.2295,1.2417,1.297,1.4191,1.4196,1.4196,1.4196,1.4196,1.4196,1.4196,1.4196,1.4196,1.4196,1.4196,1.4196,-0.1259,-0.1321,-0.1297,-0.1297,-0.1277,-0.1335,-0.1335,0.0,-0.1335,-0.1335,0.0,-0.1335,-0.1335,0.0,0.0,-0.1221,-0.124,-0.1248,-0.1221,-0.124,-0.1335,-0.1335,-0.1335,-0.1335,-0.1335,-0.1335,-0.1335,-0.1335,-0.1335,-0.1335,-0.1335,-0.1335,-0.1335,-0.1335,-0.1335,-0.1244,-0.1217,-0.1217,-0.1217,-0.1217,-0.1217,-0.1231,-0.1335,-0.1335,-0.1243,-0.1218,-0.1245,-0.1242,-0.1219,-0.1246,-0.1335,-0.1339,-0.1291,-0.1305,-0.1311,-0.1338,-0.1266,-0.1356,-0.1381,-0.1392,-0.1225,-0.0446,0.0986,0.2418,0.2688,0.3499,0.4314,0.4314,0.4381,0.4451,0.4451,0.4518,0.4608,0.4689,0.4716,0.4843,0.5122,0.524,0.534,0.5942,0.6042,0.6042,0.6337,0.6337,0.6439,0.6453,0.6458,0.6458,0.6458,0.6458,0.6458,0.6458,0.757,0.8459,0.8594,0.9708,1.0975,1.2304,1.2417,1.297,1.4191,1.4196,1.4196,1.4196,1.4196,1.4196,1.4196,1.4196,1.4196,1.4196,1.4196,1.4196,-0.1372,-0.1351,-0.1324,-0.1307,-0.1293,-0.1279,-0.1262,-0.1335,-0.1335,-0.1335,0.0,0.0,0.0,0.0,0.0,0.0,-0.1249,-0.1253,-0.124,-0.1249,-0.1335,-0.1335,-0.1335,-0.1335,-0.1335,-0.1241,-0.1239,-0.1334,-0.1241,-0.1239,-0.1335,-0.1335,-0.1335,-0.1335,-0.124,-0.1225,-0.1212,-0.1194,-0.1185,-0.1185,-0.1203,-0.1218,-0.1231,-0.1231,-0.1224,-0.1213,-0.1226,-0.1224,-0.1214,-0.1245,-0.1335,-0.1337,-0.1271,-0.1277,-0.1278,-0.1291,-0.1318,-0.1265,-0.1361,-0.104,-0.0442,0.0441,0.1671,0.2815,0.2815,0.3459,0.43,0.43,0.4326,0.4357,0.4357,0.4463,0.4676,0.481,0.4903,0.5092,0.5532,0.5641,0.5741,0.6139,0.6239,0.6237,0.6337,0.6437,0.6437,0.6437,0.6437,0.6437,0.6437,0.6437,0.6437,0.6437,0.7607,0.8795,0.9507,1.0801,1.2084,1.3408,1.3418,1.364,1.4191,1.4196,1.4196,1.4196,1.4196,1.4196,1.4196,1.4196,1.4196,1.4196,1.4196,1.4196,-0.1402,-0.1382,-0.1354,-0.1332,-0.1321,-0.1309,-0.1287,-0.1276,-0.127,-0.127,-0.1263,0.0,0.0,0.0,-0.1333,-0.1246,0.0,-0.1333,-0.1246,-0.1252,-0.1335,-0.1335,-0.1335,-0.1254,-0.1245,-0.1225,-0.1217,-0.1231,-0.1212,-0.1213,-0.1243,-0.1245,-0.1249,-0.1335,-0.1236,-0.122,-0.1212,-0.1189,-0.1179,-0.1179,-0.1201,-0.1216,-0.1224,-0.1215,-0.1207,-0.12,-0.1209,-0.1207,-0.1202,-0.1241,-0.1335,-0.1335,-0.1335,-0.1178,-0.0942,-0.0942,-0.0963,-0.0911,-0.067,-0.0,0.0886,0.1483,0.2343,0.3125,0.3125,0.3699,0.43,0.43,0.43,0.43,0.43,0.4489,0.4697,0.4933,0.5153,0.5374,0.5929,0.6042,0.6042,0.6337,0.6437,0.6437,0.6437,0.6437,0.6437,0.6437,0.6437,0.6437,0.6437,0.6437,0.6537,0.6833,0.8099,0.9389,1.0651,1.1948,1.3138,1.418,1.4196,1.4196,1.4196,1.4196,1.4196,1.4196,1.4196,1.4196,1.4196,1.4196,1.4196,1.4196,1.4196,1.4196,-0.1433,-0.1412,-0.1388,-0.1387,-0.1367,-0.1262,-0.1261,-0.1322,-0.1301,-0.1301,-0.1278,-0.1335,-0.1335,-0.1335,-0.1247,-0.1218,-0.1238,0.0,0.0,-0.1239,-0.1335,-0.1335,-0.1335,-0.1245,-0.1216,-0.1213,-0.12,-0.1171,-0.1168,-0.1181,-0.1212,-0.1213,-0.1227,-0.1335,-0.1335,-0.1241,-0.1212,-0.1211,-0.1211,-0.1211,-0.1211,-0.1227,-0.1333,-0.1225,-0.1196,-0.117,-0.1199,-0.1195,-0.1172,-0.1309,-0.1335,-0.1335,-0.1335,-0.0785,-0.0078,-0.0078,-0.0078,0.0079,0.091,0.1791,0.2605,0.2603,0.3299,0.4173,0.4173,0.4232,0.43,0.43,0.43,0.43,0.43,0.4484,0.4716,0.4996,0.5142,0.5394,0.5897,0.6042,0.6042,0.6337,0.6437,0.6437,0.6437,0.6437,0.6437,0.6437,0.6437,0.6437,0.6437,0.6437,0.6833,0.7822,0.9312,1.0655,1.1798,1.3259,1.4186,1.4196,1.4196,1.4196,1.4196,1.4196,1.4196,1.4196,1.4196,1.4196,1.4196,1.4196,1.4196,1.4196,1.4196,1.4196,-0.1436,-0.1427,-0.1415,-0.1395,-0.1383,-0.1371,-0.1352,-0.134,-0.1327,-0.1307,-0.1294,-0.1281,-0.1261,-0.1335,-0.1332,-0.1243,-0.1251,-0.1254,0.0,-0.1251,-0.1335,-0.1335,-0.1335,-0.1245,-0.1215,-0.1194,-0.1178,-0.1167,-0.1148,-0.115,-0.118,-0.1182,-0.1196,-0.1226,-0.1208,-0.1202,-0.1212,-0.1192,-0.1182,-0.1182,-0.1202,-0.1217,-0.1227,-0.1216,-0.1206,-0.1196,-0.1186,-0.1187,-0.1198,-0.1219,-0.0928,-0.047,-0.047,0.0078,0.0784,0.0235,0.04,0.0991,0.1988,0.2507,0.2717,0.3398,0.3825,0.4081,0.4081,0.4183,0.43,0.43,0.43,0.43,0.43,0.4527,0.4865,0.5113,0.5424,0.5741,0.6113,0.6187,0.6339,0.6337,0.6437,0.6437,0.6437,0.6437,0.6437,0.6437,0.6437,0.6437,0.6437,0.703,0.7627,0.7922,1.0022,1.1488,1.1902,1.3265,1.4196,1.4196,1.4196,1.4196,1.4196,1.4196,1.4196,1.4196,1.4196,1.4196,1.4196,1.4196,1.4196,1.4196,1.4196,1.4196,-0.1436,-0.1436,-0.1431,-0.1411,-0.1406,-0.1401,-0.1383,-0.1371,-0.1357,-0.1337,-0.1317,-0.1296,-0.1277,-0.1264,-0.1335,-0.1335,-0.1335,-0.1335,0.0,-0.1335,-0.1335,-0.1335,-0.1335,-0.1245,-0.1215,-0.1184,-0.1162,-0.1151,-0.1122,-0.1118,-0.1149,-0.116,-0.1181,-0.1211,-0.1203,-0.1208,-0.1228,-0.1209,-0.1194,-0.1183,-0.1213,-0.1222,-0.1211,-0.12,-0.1202,-0.121,-0.118,-0.1183,-0.1213,-0.0917,-0.0464,-0.0,0.0313,0.1019,0.1646,0.1097,0.1453,0.2362,0.3038,0.3183,0.3194,0.3817,0.4063,0.4042,0.4075,0.4185,0.4306,0.4338,0.4414,0.4486,0.443,0.4732,0.5036,0.5254,0.568,0.6018,0.6257,0.6358,0.6437,0.6437,0.6437,0.6437,0.6437,0.6437,0.6437,0.6437,0.6437,0.6437,0.6437,0.7329,0.812,0.8517,1.0535,1.2067,1.2651,1.3581,1.4196,1.4196,1.4196,1.4196,1.4196,1.4196,1.4229,1.4315,1.4239,1.4234,1.4315,1.4234,1.4196,1.4196,1.4196,1.4239]},{"header":{"parameterUnit":"m.s-1","parameterCategory":1,"la1":30.6,"la2":29.2853,"lo1":-89.7004,"lo2":-87.6739,"dy":0.0162,"dx":0.0183,"nx":112,"ny":82,"refTime":"2023-06-26T12:00:00:Z","depth":0,"parameterNumber":3,"parameterNumberName":"V-component_of_WINDS"},"data":[0.0,0.0,0.0,0.0,0.0,0.0,0.0,0.0,0.0,0.0,0.0,0.0,0.0,0.0,0.0,0.0,0.0,0.0,0.0,0.0,0.0,0.0,0.0,0.0,0.0,0.0,0.0,0.0,0.0,0.0,0.0,0.0,0.0,0.0,0.0,0.0,0.0,0.0,0.0,0.0,0.0,0.0,0.0,0.0,0.0,0.0,0.0,0.0,0.0,0.0,0.0,0.0,0.0,0.0,0.0,0.0,0.0,0.0,0.0,0.0,0.0,0.0,0.0,0.0,0.0,0.0,0.0,0.0,0.0,0.0,0.0,0.0,0.0,0.0,0.0,0.0,0.0,0.0,0.0,0.0,0.0,0.0,0.0,0.0,0.0,0.0,0.0,0.0,0.0,0.0,-2.1949,-2.3094,-2.5208,-2.6566,-2.6683,-2.6334,-2.5178,-2.2967,0.0,0.0,0.0,0.0,0.0,0.0,0.0,0.0,0.0,0.0,0.0,0.0,0.0,0.0,0.0,0.0,0.0,0.0,0.0,0.0,0.0,0.0,0.0,0.0,0.0,0.0,0.0,0.0,0.0,0.0,0.0,0.0,0.0,0.0,0.0,0.0,0.0,0.0,0.0,0.0,0.0,0.0,0.0,0.0,0.0,0.0,0.0,0.0,0.0,0.0,0.0,0.0,0.0,0.0,0.0,0.0,0.0,0.0,0.0,0.0,0.0,0.0,0.0,0.0,0.0,0.0,0.0,0.0,0.0,0.0,0.0,0.0,0.0,0.0,0.0,0.0,0.0,0.0,0.0,0.0,0.0,0.0,0.0,0.0,0.0,0.0,0.0,0.0,0.0,0.0,0.0,0.0,0.0,0.0,0.0,0.0,0.0,0.0,0.0,0.0,0.0,0.0,0.0,0.0,-2.2427,-2.483,-2.5445,-2.5956,-2.6644,-2.4718,-2.3306,-2.2912,0.0,0.0,0.0,0.0,0.0,0.0,0.0,0.0,0.0,0.0,0.0,0.0,0.0,0.0,0.0,0.0,0.0,0.0,0.0,0.0,0.0,0.0,0.0,0.0,0.0,0.0,0.0,0.0,0.0,0.0,0.0,0.0,0.0,0.0,0.0,0.0,0.0,0.0,0.0,0.0,0.0,0.0,0.0,0.0,0.0,0.0,0.0,0.0,0.0,0.0,0.0,0.0,0.0,0.0,0.0,0.0,0.0,0.0,0.0,0.0,0.0,0.0,0.0,0.0,0.0,0.0,0.0,0.0,0.0,0.0,0.0,0.0,0.0,0.0,0.0,0.0,0.0,0.0,0.0,0.0,0.0,0.0,0.0,0.0,0.0,0.0,0.0,0.0,0.0,0.0,0.0,0.0,0.0,0.0,0.0,0.0,0.0,0.0,0.0,0.0,0.0,0.0,0.0,-2.1987,-2.3083,-2.5271,-2.5511,-2.5646,-2.6025,-2.4118,-2.29,-2.29,-2.2453,0.0,0.0,0.0,0.0,0.0,0.0,0.0,0.0,0.0,0.0,0.0,0.0,0.0,0.0,0.0,0.0,0.0,0.0,0.0,0.0,0.0,0.0,0.0,0.0,0.0,0.0,0.0,0.0,0.0,0.0,0.0,0.0,0.0,0.0,0.0,0.0,0.0,0.0,0.0,0.0,0.0,0.0,0.0,0.0,0.0,0.0,0.0,0.0,0.0,0.0,0.0,0.0,0.0,0.0,0.0,0.0,0.0,0.0,0.0,0.0,0.0,0.0,0.0,0.0,0.0,0.0,0.0,0.0,0.0,0.0,0.0,0.0,0.0,0.0,0.0,0.0,0.0,0.0,0.0,0.0,0.0,0.0,0.0,0.0,0.0,0.0,0.0,0.0,0.0,0.0,0.0,0.0,0.0,0.0,0.0,0.0,0.0,0.0,0.0,0.0,0.0,0.0,-2.2919,-2.3591,-2.5313,-2.5499,-2.5414,-2.5221,-2.377,-2.2829,-2.2623,-2.2036,0.0,0.0,0.0,0.0,0.0,0.0,0.0,0.0,0.0,0.0,0.0,0.0,0.0,0.0,0.0,0.0,0.0,0.0,0.0,0.0,0.0,0.0,0.0,0.0,0.0,0.0,0.0,0.0,0.0,0.0,0.0,0.0,0.0,0.0,0.0,0.0,0.0,0.0,0.0,0.0,0.0,0.0,0.0,0.0,0.0,0.0,0.0,0.0,0.0,0.0,0.0,0.0,0.0,0.0,0.0,0.0,0.0,0.0,0.0,0.0,0.0,0.0,0.0,0.0,0.0,0.0,0.0,0.0,0.0,0.0,0.0,0.0,0.0,0.0,0.0,0.0,0.0,0.0,0.0,0.0,0.0,0.0,0.0,0.0,0.0,0.0,0.0,0.0,0.0,0.0,0.0,0.0,0.0,0.0,0.0,0.0,0.0,0.0,0.0,0.0,0.0,0.0,-2.2984,-2.3644,-2.5318,-2.5495,-2.5163,-2.435,-2.3441,-2.2585,-2.1836,-2.172,0.0,0.0,0.0,0.0,0.0,0.0,0.0,0.0,0.0,0.0,0.0,0.0,0.0,0.0,0.0,0.0,0.0,0.0,0.0,0.0,0.0,0.0,0.0,0.0,0.0,0.0,0.0,0.0,0.0,0.0,0.0,0.0,0.0,0.0,0.0,0.0,0.0,0.0,0.0,0.0,0.0,0.0,0.0,0.0,0.0,0.0,0.0,0.0,0.0,0.0,0.0,0.0,0.0,0.0,0.0,0.0,0.0,0.0,0.0,0.0,0.0,0.0,0.0,0.0,0.0,0.0,0.0,0.0,0.0,0.0,0.0,0.0,0.0,0.0,0.0,0.0,0.0,0.0,0.0,0.0,0.0,0.0,0.0,0.0,0.0,0.0,0.0,0.0,0.0,0.0,0.0,0.0,0.0,0.0,0.0,0.0,0.0,0.0,0.0,0.0,0.0,0.0,-2.3306,-2.363,-2.5324,-2.5505,-2.5154,-2.4273,-2.3443,-2.2837,-2.2526,0.0,0.0,0.0,0.0,0.0,0.0,0.0,0.0,0.0,0.0,0.0,0.0,0.0,0.0,0.0,0.0,0.0,0.0,0.0,0.0,0.0,0.0,0.0,0.0,0.0,0.0,0.0,0.0,0.0,0.0,0.0,0.0,0.0,0.0,0.0,0.0,0.0,0.0,0.0,0.0,0.0,0.0,0.0,0.0,0.0,0.0,0.0,0.0,0.0,0.0,0.0,0.0,0.0,0.0,0.0,0.0,0.0,0.0,0.0,0.0,0.0,0.0,0.0,0.0,0.0,0.0,0.0,0.0,0.0,0.0,0.0,0.0,0.0,0.0,0.0,0.0,0.0,0.0,0.0,0.0,0.0,0.0,0.0,0.0,0.0,0.0,0.0,0.0,0.0,0.0,0.0,0.0,0.0,0.0,0.0,0.0,0.0,0.0,0.0,0.0,0.0,0.0,-2.3698,-2.3592,-2.3955,-2.5376,-2.5538,-2.5072,-2.3921,-2.3321,-2.2893,-2.2633,0.0,0.0,0.0,0.0,0.0,0.0,0.0,0.0,0.0,0.0,0.0,0.0,0.0,0.0,0.0,0.0,0.0,0.0,0.0,0.0,0.0,0.0,0.0,0.0,0.0,0.0,0.0,0.0,0.0,0.0,0.0,0.0,0.0,0.0,0.0,0.0,0.0,0.0,0.0,0.0,0.0,0.0,0.0,0.0,0.0,0.0,0.0,0.0,0.0,0.0,0.0,0.0,0.0,0.0,0.0,0.0,0.0,0.0,0.0,0.0,0.0,0.0,0.0,0.0,0.0,0.0,0.0,0.0,0.0,0.0,0.0,0.0,0.0,0.0,0.0,0.0,0.0,0.0,0.0,0.0,0.0,0.0,0.0,0.0,0.0,0.0,0.0,0.0,0.0,0.0,0.0,0.0,0.0,0.0,0.0,0.0,0.0,0.0,0.0,0.0,0.0,0.0,-2.3127,-2.3828,-2.4628,-2.5513,-2.5599,-2.4882,-2.3154,-2.2998,-2.2664,0.0,0.0,0.0,0.0,0.0,0.0,0.0,0.0,0.0,0.0,0.0,0.0,0.0,0.0,0.0,0.0,0.0,0.0,0.0,0.0,0.0,0.0,0.0,0.0,0.0,0.0,0.0,0.0,0.0,0.0,0.0,0.0,0.0,0.0,0.0,0.0,0.0,0.0,0.0,0.0,0.0,0.0,0.0,0.0,0.0,0.0,0.0,0.0,0.0,0.0,0.0,0.0,0.0,0.0,0.0,0.0,0.0,0.0,0.0,0.0,0.0,0.0,0.0,0.0,0.0,0.0,0.0,0.0,0.0,0.0,0.0,0.0,0.0,0.0,0.0,0.0,0.0,0.0,0.0,0.0,0.0,0.0,0.0,0.0,0.0,0.0,0.0,0.0,0.0,0.0,0.0,0.0,0.0,0.0,0.0,0.0,0.0,0.0,0.0,0.0,0.0,0.0,0.0,-2.4842,-2.46,-2.4689,-2.5513,-2.56,-2.489,-2.3159,-2.2994,-2.2931,-2.2726,0.0,0.0,0.0,0.0,0.0,0.0,0.0,0.0,0.0,0.0,0.0,0.0,0.0,0.0,0.0,0.0,0.0,0.0,0.0,0.0,0.0,0.0,0.0,0.0,0.0,0.0,0.0,0.0,0.0,0.0,0.0,0.0,0.0,0.0,0.0,0.0,0.0,0.0,0.0,0.0,0.0,0.0,0.0,0.0,0.0,0.0,0.0,0.0,0.0,0.0,0.0,0.0,0.0,0.0,0.0,0.0,0.0,0.0,0.0,0.0,0.0,0.0,0.0,0.0,0.0,0.0,0.0,0.0,0.0,0.0,0.0,0.0,0.0,0.0,0.0,0.0,0.0,0.0,0.0,0.0,0.0,0.0,0.0,0.0,0.0,0.0,0.0,0.0,0.0,0.0,0.0,0.0,0.0,0.0,0.0,0.0,0.0,0.0,0.0,0.0,0.0,0.0,-2.5153,-2.5036,-2.5091,-2.5585,-2.5643,-2.507,-2.3674,-2.3567,-2.3575,-2.3618,0.0,0.0,0.0,0.0,0.0,0.0,0.0,0.0,0.0,0.0,0.0,0.0,0.0,0.0,0.0,0.0,0.0,0.0,0.0,0.0,0.0,0.0,0.0,0.0,0.0,0.0,0.0,0.0,0.0,0.0,0.0,0.0,0.0,0.0,0.0,0.0,0.0,0.0,0.0,0.0,0.0,0.0,0.0,0.0,0.0,0.0,0.0,0.0,0.0,0.0,0.0,0.0,0.0,0.0,0.0,0.0,0.0,0.0,0.0,0.0,0.0,0.0,0.0,0.0,0.0,0.0,0.0,0.0,0.0,0.0,0.0,0.0,0.0,0.0,0.0,0.0,0.0,0.0,0.0,0.0,0.0,0.0,0.0,0.0,0.0,0.0,0.0,0.0,0.0,0.0,0.0,0.0,0.0,0.0,0.0,0.0,0.0,0.0,0.0,0.0,0.0,0.0,-2.4627,-2.5212,-2.5699,-2.5699,-2.5699,-2.5348,-2.4471,-2.4394,-2.4394,-2.4394,0.0,0.0,0.0,0.0,0.0,0.0,0.0,0.0,0.0,0.0,0.0,0.0,0.0,0.0,0.0,0.0,0.0,0.0,0.0,0.0,0.0,0.0,0.0,0.0,0.0,0.0,0.0,0.0,0.0,0.0,0.0,0.0,0.0,0.0,0.0,0.0,0.0,0.0,0.0,0.0,0.0,0.0,0.0,0.0,0.0,0.0,0.0,0.0,0.0,0.0,0.0,0.0,0.0,0.0,0.0,0.0,0.0,0.0,0.0,0.0,-2.9513,-2.8928,0.0,0.0,0.0,0.0,0.0,0.0,0.0,0.0,0.0,0.0,0.0,0.0,0.0,0.0,0.0,0.0,0.0,0.0,0.0,0.0,0.0,0.0,0.0,0.0,0.0,0.0,0.0,0.0,0.0,0.0,0.0,0.0,0.0,0.0,0.0,0.0,0.0,0.0,0.0,0.0,-2.5446,-2.5582,-2.5699,-2.5699,-2.5699,-2.5348,-2.4471,-2.4394,-2.4394,-2.4394,-2.4394,0.0,0.0,0.0,0.0,0.0,0.0,0.0,0.0,0.0,0.0,0.0,0.0,0.0,0.0,0.0,0.0,0.0,0.0,0.0,0.0,0.0,0.0,0.0,0.0,0.0,0.0,0.0,0.0,0.0,0.0,0.0,0.0,0.0,0.0,0.0,0.0,0.0,0.0,0.0,0.0,0.0,0.0,0.0,0.0,0.0,0.0,0.0,0.0,0.0,0.0,0.0,0.0,0.0,0.0,0.0,0.0,0.0,0.0,0.0,-3.1719,-3.0548,0.0,0.0,0.0,0.0,0.0,0.0,0.0,0.0,0.0,0.0,0.0,0.0,0.0,0.0,0.0,0.0,0.0,0.0,0.0,0.0,0.0,0.0,0.0,0.0,0.0,0.0,0.0,0.0,0.0,0.0,0.0,0.0,0.0,0.0,0.0,0.0,0.0,0.0,0.0,0.0,-2.5699,-2.5699,-2.5699,-2.5699,-2.5699,-2.5524,-2.5056,-2.5017,-2.5017,-2.5017,-2.5017,0.0,0.0,0.0,0.0,0.0,0.0,0.0,0.0,0.0,0.0,0.0,0.0,0.0,0.0,0.0,0.0,0.0,0.0,0.0,0.0,0.0,0.0,0.0,0.0,0.0,0.0,0.0,0.0,0.0,0.0,0.0,0.0,0.0,0.0,0.0,0.0,0.0,0.0,0.0,0.0,0.0,0.0,0.0,0.0,0.0,0.0,0.0,0.0,0.0,0.0,0.0,0.0,0.0,-3.5779,-3.6443,-3.6501,-3.7946,-3.8277,-3.7575,-3.4686,-3.3183,-3.2773,-3.2617,0.0,0.0,0.0,0.0,0.0,0.0,0.0,0.0,0.0,0.0,0.0,0.0,0.0,0.0,0.0,0.0,0.0,0.0,0.0,0.0,0.0,0.0,-2.716,-2.7316,-2.8017,-2.8232,-2.6693,0.0,0.0,0.0,0.0,0.0,0.0,0.0,0.0,0.0,0.0,0.0,-2.5699,-2.5699,-2.5699,-2.5699,-2.5699,-2.5699,-2.5699,-2.5699,-2.5699,-2.5699,-2.5699,-2.5703,0.0,0.0,0.0,0.0,0.0,0.0,0.0,0.0,0.0,0.0,0.0,0.0,0.0,0.0,0.0,0.0,0.0,0.0,0.0,0.0,0.0,0.0,0.0,0.0,0.0,0.0,0.0,0.0,0.0,0.0,0.0,0.0,-2.9767,-3.0684,0.0,0.0,0.0,0.0,0.0,0.0,0.0,0.0,0.0,0.0,0.0,0.0,0.0,-3.4901,-3.6423,-3.7301,-3.7792,-3.7926,-3.8141,-3.8258,-3.8277,-3.8495,-3.8921,-3.9449,-3.898,0.0,-3.5428,-3.4666,0.0,0.0,0.0,0.0,0.0,0.0,0.0,0.0,0.0,0.0,0.0,0.0,0.0,0.0,0.0,0.0,0.0,0.0,0.0,0.0,0.0,0.0,-2.8212,-2.8987,-2.9825,-3.0195,-2.9201,-2.7803,-2.6537,-2.5835,-2.5699,-2.5699,0.0,0.0,0.0,0.0,0.0,0.0,-2.5699,-2.5699,-2.5699,-2.5699,-2.5699,-2.5699,-2.5699,-2.5699,-2.5699,-2.5699,-2.5699,-2.5691,-2.5693,-2.5694,0.0,0.0,0.0,0.0,0.0,0.0,0.0,0.0,0.0,0.0,0.0,0.0,0.0,0.0,0.0,0.0,0.0,0.0,0.0,0.0,0.0,0.0,0.0,0.0,0.0,0.0,0.0,0.0,0.0,-2.9201,-3.0411,-3.0762,-3.1231,-3.1348,0.0,0.0,0.0,0.0,0.0,0.0,0.0,0.0,0.0,-3.5545,-3.6443,-3.7262,-3.8024,-3.8863,-3.9527,-4.0015,-4.0991,-4.1459,-4.1498,-4.2474,-4.2845,-4.2747,-4.3235,-4.2259,-4.0112,-3.7301,-3.5135,-3.3437,0.0,0.0,0.0,0.0,-3.2572,-3.3015,-3.3116,-3.2833,-3.2335,-3.1847,0.0,0.0,0.0,0.0,0.0,0.0,0.0,-2.8037,-2.887,-2.9732,-3.0492,-3.0862,-3.1622,-3.2012,-3.1154,-3.0355,-2.9148,-2.6829,-2.6361,-2.6225,-2.5777,-2.5699,0.0,0.0,0.0,-2.5699,-2.5699,-2.5699,-2.5699,-2.5699,-2.5699,-2.5699,-2.5699,-2.5699,-2.5699,-2.5699,-2.5694,-2.571,-2.5698,-2.5699,-2.5683,0.0,0.0,0.0,0.0,0.0,0.0,0.0,0.0,0.0,0.0,0.0,0.0,0.0,0.0,0.0,0.0,0.0,0.0,0.0,0.0,0.0,0.0,0.0,0.0,0.0,0.0,0.0,0.0,-2.9747,-3.0801,-3.0801,-3.1563,-3.1758,0.0,0.0,0.0,0.0,0.0,0.0,-3.4686,-3.5955,-3.7165,-3.8238,-3.9331,-4.0015,-4.0229,-4.1264,-4.2006,-4.2454,-4.3743,-4.4367,-4.4406,-4.5714,-4.5948,-4.5363,-4.6027,-4.5441,-4.3743,-4.0112,-3.7575,-3.5857,-3.4354,-3.4159,-3.4725,-3.4725,-3.5132,-3.5793,-3.6417,-3.6219,-3.5564,-3.4921,-3.3528,-3.1941,-3.1075,0.0,0.0,0.0,0.0,-3.0687,-3.1544,-3.2421,-3.3122,-3.3356,-3.3902,-3.4135,-3.3259,-3.2893,-3.17,-2.8232,-2.7569,-2.7238,-2.6186,-2.6011,0.0,-2.5738,-2.5874,-2.5933,-2.5738,-2.5874,-2.5933,-2.5718,-2.5699,-2.5699,-2.5699,-2.5699,-2.5703,-2.5691,-2.571,-2.5703,-2.5709,-2.5703,-2.5676,-2.5595,0.0,0.0,0.0,0.0,0.0,0.0,0.0,0.0,0.0,0.0,0.0,0.0,0.0,0.0,0.0,0.0,0.0,0.0,0.0,0.0,0.0,0.0,0.0,0.0,0.0,0.0,0.0,0.0,0.0,-3.0801,-3.1563,0.0,0.0,0.0,0.0,-3.4432,-3.6072,-3.7419,-3.83,-3.8417,-3.9214,-4.0854,-4.2552,-4.384,-4.468,-4.6358,-4.6807,-4.6046,-4.6124,-4.6163,-4.6163,-4.6261,-4.628,-4.6241,-4.628,-4.5773,-4.4797,-4.2923,-4.1127,-3.9468,-3.8609,-3.83,-3.8339,-3.8339,-3.8375,-3.8394,-3.8388,-3.8346,-3.8303,-3.8263,-3.7055,-3.548,-3.4603,-3.3785,0.0,0.0,-3.32,-3.3395,-3.4194,-3.5051,-3.5928,-3.6746,-3.698,-3.6766,-3.5908,-3.5051,-3.3453,-3.0024,-2.9377,-2.8831,-2.7141,0.0,-2.6576,-2.5816,-2.6342,-2.6556,-2.5796,-2.6361,-2.6556,-2.5777,-2.5699,-2.5699,-2.5699,-2.5699,-2.5691,-2.5696,-2.5698,-2.5691,-2.5703,-2.57,-2.5666,-2.5597,-2.5609,0.0,0.0,0.0,0.0,0.0,0.0,0.0,0.0,0.0,0.0,0.0,0.0,0.0,0.0,0.0,0.0,0.0,0.0,0.0,0.0,0.0,0.0,0.0,0.0,0.0,0.0,0.0,0.0,-3.4081,-3.5876,0.0,-3.5896,-3.6384,-3.6872,-3.7184,-3.8785,-4.0132,-4.0991,-4.263,-4.4094,-4.5246,-4.6397,-4.7139,-4.7432,-4.8057,-4.8213,-4.79,-4.79,-4.7647,-4.7139,-4.7139,-4.7139,-4.712,-4.6534,-4.6436,-4.6573,-4.5402,-4.3548,-4.1322,-3.9917,-3.9702,-4.021,-4.021,-4.0561,-4.1127,-4.1651,-4.1475,-4.0831,-3.9692,-3.8155,-3.6679,-3.6367,-3.5671,-3.5129,-3.5694,-3.585,-3.6045,-3.6883,-3.7331,-3.7642,-3.7954,-3.8032,-3.7798,-3.6921,-3.6493,-3.5577,-3.3239,-3.1466,-2.9961,-2.8777,-2.8115,-2.7647,-2.7355,-2.755,-2.7628,-2.7355,-2.7569,-2.7413,-2.6556,-2.6478,-2.6252,-2.5743,-2.5657,-2.5648,-2.5699,-2.5664,-2.5641,-2.5636,-2.5637,-2.5616,-2.5609,-2.5595,-2.5284,0.0,0.0,0.0,0.0,0.0,0.0,0.0,0.0,0.0,0.0,0.0,0.0,0.0,0.0,0.0,0.0,0.0,0.0,0.0,0.0,0.0,0.0,0.0,0.0,0.0,-3.4608,-3.6735,-3.7614,-3.9468,-4.0346,-3.9527,-3.9976,-4.0444,-4.0737,-4.2337,-4.3665,-4.4504,-4.6202,-4.7412,-4.7998,-4.8818,-4.9091,-4.8798,-4.9091,-4.9091,-4.8798,-4.8798,-4.8525,-4.7998,-4.7998,-4.7998,-4.7978,-4.7393,-4.7471,-4.7939,-4.7081,-4.5714,-4.4016,-4.2552,-4.2357,-4.2845,-4.2845,-4.3216,-4.3801,-4.4387,-4.4016,-4.3076,-4.1901,-4.0543,-3.9355,-3.937,-3.8965,-3.8617,-3.9201,-3.9357,-3.9493,-4.0078,-4.0214,-4.0156,-3.9844,-3.9571,-3.9143,-3.8266,-3.7857,-3.7214,-3.5752,-3.3414,-3.131,-3.0137,-2.9221,-2.8544,-2.8251,-2.8446,-2.8524,-2.8251,-2.8466,-2.831,-2.7433,-2.7336,-2.7114,-2.6596,-2.6501,-2.6378,-2.6113,-2.6068,-2.5917,-2.5603,-2.5601,-2.56,-2.5595,-2.5012,-2.5001,-2.5601,0.0,0.0,0.0,0.0,0.0,0.0,0.0,0.0,0.0,0.0,0.0,0.0,0.0,0.0,0.0,0.0,0.0,0.0,0.0,0.0,0.0,0.0,0.0,-3.5018,-3.7848,-4.0346,-4.1225,-4.2103,-4.2318,-4.1498,-4.2903,-4.4211,-4.509,-4.6729,-4.8017,-4.8798,-4.8876,-4.8876,-4.8876,-4.9696,-4.9735,-4.8896,-4.9716,-4.9716,-4.8876,-4.8876,-4.8876,-4.8837,-4.8837,-4.8837,-4.8837,-4.8818,-4.8818,-4.8779,-4.7939,-4.7608,-4.751,-4.6632,-4.63,-4.63,-4.63,-4.63,-4.63,-4.63,-4.575,-4.5035,-4.4968,-4.4348,-4.3649,-4.365,-4.3624,-4.3598,-4.3598,-4.3598,-4.3598,-4.3598,-4.3598,-4.3383,-4.2552,-4.1753,-4.0935,-4.0039,-3.9182,-3.8324,-3.7428,-3.5207,-3.2927,-3.1208,-3.0195,-2.9338,-2.8485,-2.907,0.0,-2.8427,-2.9046,-2.9201,-2.8329,-2.8251,-2.8225,-2.8215,-2.8203,-2.7835,-2.6984,-2.691,-2.6529,-2.5668,-2.5605,-2.5595,-2.5601,-2.3931,-2.3931,-2.564,0.0,0.0,0.0,0.0,0.0,0.0,0.0,0.0,0.0,0.0,0.0,0.0,0.0,0.0,0.0,0.0,0.0,0.0,0.0,0.0,0.0,-3.8297,-4.0346,-3.9468,-4.2337,-4.5051,-4.6515,-4.7451,-4.8135,-4.8525,-4.7861,-4.7764,-4.8623,-4.915,-4.952,-4.9735,-5.034,-5.0692,-5.0692,-5.0926,-5.0926,-5.0692,-5.0926,-5.0926,-5.0692,-5.0692,-5.036,-4.9735,-4.9735,-4.9735,-4.9716,-4.9072,-4.9169,-4.9638,-4.8193,-4.7608,-4.751,-4.6632,-4.63,-4.63,-4.63,-4.63,-4.63,-4.63,-4.6136,-4.5933,-4.5909,-4.5289,-4.4546,-4.454,-4.4098,-4.3598,-4.3598,-4.3598,-4.3598,-4.3598,-4.3598,-4.3539,-4.3305,-4.3078,-4.2513,-4.1052,-4.0545,-3.9941,-3.8422,-3.6551,-3.4856,-3.3746,-3.2869,-3.2245,-3.2012,-3.1641,-3.1291,-3.1057,-3.0687,-3.0117,-2.924,-2.9143,-2.8915,-2.833,-2.8237,-2.8105,-2.7865,-2.7254,-2.6782,-2.6551,-2.5943,-2.5587,-2.5601,-2.5135,-2.5426,0.0,0.0,0.0,0.0,0.0,0.0,0.0,0.0,0.0,0.0,0.0,0.0,0.0,0.0,0.0,0.0,0.0,0.0,0.0,0.0,0.0,0.0,-4.224,-4.5031,-4.6319,-4.7627,-4.9072,-5.0789,-5.1433,-5.1921,-5.2448,-5.1238,-5.0633,-5.1141,-5.1199,-5.1199,-5.1199,-5.2019,-5.2487,-5.2487,-5.2487,-5.2312,-5.1941,-5.1941,-5.1765,-5.1394,-5.1394,-5.1121,-5.0633,-5.0633,-5.0633,-5.0614,-5.0106,-5.0184,-5.0516,-4.8818,-4.8096,-4.7978,0.0,0.0,0.0,0.0,-4.63,-4.63,-4.63,-4.6296,-4.6292,-4.6308,-4.5924,-4.5479,-4.5448,-4.5085,-4.4683,-4.4695,-4.4695,-4.4695,-4.4695,-4.4695,-4.452,-4.378,-4.3598,-4.3137,-4.1461,-4.111,-4.0701,-3.9318,-3.8227,0.0,-3.5908,-3.4428,-3.3395,-3.3395,-3.2971,-3.2504,-3.2153,-3.1973,-3.1427,-3.0175,-3.0375,-3.026,-2.942,-2.9311,0.0,0.0,0.0,-2.78,-2.7427,-2.6592,0.0,0.0,0.0,-2.6184,-2.7408,-2.7058,0.0,0.0,-2.738,-2.7183,0.0,0.0,0.0,0.0,0.0,0.0,0.0,0.0,0.0,0.0,0.0,0.0,0.0,0.0,0.0,0.0,-4.6554,-4.9755,-5.3854,-5.3171,-5.2819,-5.4264,-5.4264,-5.4186,-5.4283,-5.3424,-5.2897,-5.2995,-5.2897,-5.2858,-5.2858,-5.358,0.0,0.0,0.0,-5.3639,-5.2858,-5.2858,-5.2468,-5.1687,-5.1687,-5.1648,-5.155,-5.155,-5.1492,-5.1394,-5.1394,-5.1394,-5.1277,-4.9618,-4.8837,-4.8505,-4.6924,-4.63,-4.63,-4.63,-4.63,-4.63,-4.63,0.0,0.0,-4.6288,-4.6284,-4.6275,-4.6209,-4.6203,-4.6196,-4.6203,-4.6196,-4.6196,-4.6196,-4.6137,-4.565,-4.4111,-4.3682,-4.3176,-4.1578,-4.1247,-4.0955,-4.0,-3.9805,-3.926,-3.7506,-3.5324,-3.3804,-3.3707,-3.359,-3.3259,-3.2484,-3.2991,-3.2771,-3.1115,-3.1641,0.0,-3.0869,-3.0801,-3.0467,-2.9704,-2.9549,-2.9065,-2.8146,-2.7408,-2.7369,-2.8081,-2.665,-2.6669,-2.8236,-2.7524,-2.799,-2.9524,-2.933,-2.8869,0.0,0.0,0.0,0.0,0.0,0.0,0.0,0.0,0.0,0.0,0.0,0.0,0.0,0.0,0.0,-4.7315,-5.0594,-5.3776,-5.6665,-5.7387,-5.7484,-5.7113,-5.5864,-5.5318,-5.604,-5.4674,-5.4049,-5.4732,-5.4147,-5.3756,-5.3756,-5.3912,-5.401,-5.401,-5.401,-5.3912,-5.3756,-5.3756,-5.3659,-5.3502,-5.3502,0.0,-5.2448,-5.2448,-5.2058,-5.1394,-5.1394,-5.1394,-5.1316,-5.0282,-4.9052,-4.7725,-4.669,-4.63,-4.63,-4.63,-4.63,-4.63,-4.63,-4.6296,-4.6288,-4.6236,-4.6226,-4.6228,-4.6209,-4.6203,0.0,-4.6196,-4.6196,-4.6196,-4.6196,-4.567,-4.5066,-4.4734,-4.4111,-4.3325,-4.2299,-4.2065,-4.1617,-4.0097,-3.9805,-3.926,-3.7506,-3.6785,-3.622,-3.5519,-3.4817,-3.4311,-3.4135,-3.3707,-3.3005,-3.1953,-3.1997,-3.1757,-3.0875,-3.0796,-3.0721,-3.0551,-2.983,-2.902,-2.8139,-2.7945,-2.7945,-2.81,-2.777,-2.812,-2.9156,-2.9,-2.9426,-3.0338,-2.8982,-2.8598,0.0,0.0,0.0,0.0,0.0,0.0,0.0,0.0,0.0,0.0,0.0,-4.103,0.0,0.0,-4.8681,-5.2136,-5.4498,-5.6645,-5.8792,-5.9104,-5.8773,-5.7894,-5.7055,-5.6567,-5.6606,-5.5415,-5.483,-5.5259,-5.4908,-5.4654,-5.4654,-5.5064,-5.5298,-5.5298,-5.5298,-5.5083,-5.4654,-5.4654,-5.4439,-5.401,-5.401,-5.3541,-5.2702,-5.2702,-5.2214,-5.1394,-5.1394,-5.1394,-5.1297,-4.9989,-4.872,-4.751,-4.6632,-4.63,-4.63,-4.63,-4.63,-4.63,-4.63,-4.6292,-4.6284,-4.626,-4.6226,-4.6195,-4.6196,-4.619,-4.6209,-4.6203,-4.6196,-4.6196,-4.6196,-4.5553,-4.4793,-4.4345,-4.3585,-4.2728,-4.189,-4.1695,-4.1461,-4.0604,-4.0448,-4.0039,-3.8733,-3.8149,-3.7409,-3.6103,-3.5538,-3.509,-3.4661,-3.4252,-3.3512,-3.225,-3.2094,-3.1753,-3.0879,-3.0799,-3.0788,-3.075,-3.0302,-2.9855,-2.9428,-2.8981,-2.8961,-2.9389,-2.8528,-2.8748,-3.0049,-2.9602,-2.9841,-3.0645,-3.0191,-2.9984,0.0,0.0,0.0,0.0,0.0,0.0,0.0,0.0,-4.0424,-4.1576,-4.3313,-4.5519,-4.833,-5.036,-5.28,-5.6489,-5.7777,-5.8851,-6.0432,-5.9905,-5.9026,-5.8168,-5.7894,-5.7484,-5.6684,-5.5962,-5.5552,-5.5552,-5.5552,-5.5552,-5.5552,-5.6216,-5.6606,-5.6606,-5.6606,-5.6255,-5.5552,-5.5552,-5.5201,-5.4517,-5.4517,-5.4049,-5.321,-5.321,-5.2644,-5.1648,-5.1472,-5.1394,-5.1277,-4.9696,-4.8564,-4.7744,-4.6885,-4.6456,-4.63,-4.63,-4.63,-4.63,-4.63,-4.6296,-4.6308,-4.6303,-4.6255,-4.6206,-4.6209,-4.6203,-4.6196,-4.6203,-4.6196,-4.6196,-4.6196,-4.5553,-4.4715,-4.4014,-4.3195,-4.2338,-4.152,-4.1325,-4.1247,-4.0916,-4.0974,-4.0779,-3.9727,-3.9104,-3.8168,-3.6415,-3.6006,-3.5655,-3.4934,-3.4856,-3.4213,-3.2523,-3.2348,-3.1928,-3.0863,-3.1093,-3.1113,-3.0716,-3.0859,-3.0943,-3.0943,-3.0127,-3.0069,-3.0943,-2.9408,-2.9389,-3.0943,-3.0243,-3.0346,-3.1204,-3.184,-3.1698,-3.4608,-3.4471,-3.5213,-3.734,-3.7575,-3.8863,0.0,0.0,-4.6105,-4.8466,-5.0945,-5.2819,-5.321,-5.5298,-5.7348,-5.8616,-5.9553,-6.0451,-6.1427,-6.0803,-5.9924,-5.9065,-5.8265,-5.7484,-5.6684,-5.6508,-5.645,-5.645,-5.645,-5.645,-5.645,-5.6547,-5.6606,-5.6606,-5.6606,-5.6547,-5.6469,-5.645,-5.6411,-5.6313,-5.6313,-5.5845,-5.5005,-5.5005,-5.4108,-5.2507,-5.1746,-5.1394,-5.1316,-5.036,-4.9442,-4.8584,-4.7764,-4.6983,-4.63,-4.63,-4.63,-4.63,-4.63,-4.63,-4.6296,-4.6308,-4.6255,-4.6206,-4.6209,-4.6196,-4.6203,-4.6196,-4.6196,-4.6196,-4.6196,-4.5553,-4.4871,-4.4773,-4.4091,-4.3208,-4.2357,-4.2182,-4.1734,-4.0234,-4.0565,-4.0584,-3.8928,-3.9201,-3.9065,-3.7311,-3.6395,-3.585,-3.5772,-3.5752,-3.5109,-3.3434,-3.3239,-3.2557,-3.0859,-3.2134,-3.2366,-3.0801,-3.1428,-3.1856,-3.1856,-3.102,-3.0962,-3.1836,-3.0904,-3.0884,-3.1856,-3.1759,-3.2132,-3.2931,-3.3003,-3.2589,-3.7204,-3.7672,-3.8687,0.0,-4.2415,-4.5519,-4.8408,-4.995,-5.1238,-5.28,-5.5181,-5.6977,-5.6977,-5.8675,-6.0198,0.0,-6.049,-6.0529,-6.0881,-5.9768,-5.8382,-5.7055,-5.6118,-5.5845,-5.6528,-5.6606,-5.6606,-5.6606,-5.6606,-5.6606,-5.6606,-5.6606,-5.6606,-5.6606,-5.6606,-5.6606,-5.6606,-5.6606,-5.6606,-5.6606,-5.6606,-5.5884,-5.4537,-5.4537,-5.358,-5.1921,-5.155,-5.1394,-5.1336,-5.0457,-4.9891,-4.9423,-4.8115,-4.7373,-4.7002,-4.6495,-4.63,-4.63,-4.63,-4.6296,-4.6288,-4.626,-4.6226,-4.6189,-4.6196,-4.6203,-4.6196,-4.6196,-4.6196,-4.6196,-4.6196,-4.5553,-4.489,-4.489,-4.4228,-4.35,-4.313,-4.2669,-4.2085,-4.1383,-4.1169,-4.0877,-4.0136,-3.9883,-3.9552,-3.8811,-3.7545,-3.6473,-3.5967,-3.546,-3.47,-3.3512,-3.339,-3.3093,-3.2342,-3.2895,-3.2989,-3.2258,-3.2564,-3.2769,-3.2769,-3.2419,-3.238,-3.2749,-3.24,-3.238,-3.2769,-3.2769,-3.2909,-3.3203,-3.3721,-3.3732,-3.8394,0.0,0.0,-4.2923,-4.7042,-5.1004,-5.1726,-5.3717,-5.565,-5.6528,-5.8363,-5.9749,-5.9495,-6.049,-6.1252,-6.1017,-6.0646,-6.0315,-6.008,-5.8558,-5.6938,-5.5474,-5.4108,-5.3776,-5.5044,-5.5376,-5.5728,-5.6216,-5.6235,-5.6352,-5.6586,-5.6606,-5.6606,-5.6606,-5.6606,-5.6606,-5.6606,-5.6606,-5.6606,-5.6606,-5.6606,-5.5942,-5.4713,-5.4478,-5.3541,-5.2097,-5.1863,-5.1629,-5.1355,-5.0711,-5.0321,-4.9989,-4.8759,-4.8017,-4.753,-4.6885,-4.6515,-4.63,-4.63,-4.6292,-4.6284,-4.6236,-4.622,-4.6203,-4.6209,-4.6203,-4.6196,-4.6196,-4.6196,-4.6196,-4.6196,-4.5728,-4.526,-4.526,-4.4773,-4.4247,-4.4014,-4.3468,-4.2942,-4.2708,-4.2202,-4.1792,-4.1792,-4.1071,-4.0409,-4.0195,-3.8889,-3.7525,-3.6395,-3.5285,-3.4369,-3.3785,-3.3723,-3.3632,-3.3429,-3.3782,-3.3801,-3.3327,-3.3518,-3.3623,-3.3623,-3.3429,-3.339,-3.3623,-3.341,-3.341,-3.3623,-3.3623,-3.3732,-3.3929,-3.4554,-3.4798,0.0,0.0,-4.3352,-4.753,-5.0614,-5.3288,-5.5825,-5.7719,-5.9183,-6.0061,-6.0978,-6.1369,-6.0529,-6.0393,-6.0159,-5.9319,-5.9866,-6.01,-5.9261,-5.7699,-5.6294,-5.5415,-5.3034,-5.1492,-5.155,-5.2312,-5.3522,-5.5201,-5.5337,-5.5708,-5.6547,-5.6606,-5.6606,-5.6606,-5.6606,-5.6606,-5.6606,-5.6606,-5.6606,-5.6606,-5.6606,-5.6567,-5.6489,-5.565,-5.4771,-5.3873,-5.3034,-5.2175,-5.1394,-5.1375,-5.0867,-5.0087,-5.0048,-4.9032,-4.7608,-4.7569,-4.7022,-4.63,-4.63,-4.6292,-4.6303,-4.6303,-4.625,-4.6203,-4.6203,-4.619,-4.6196,-4.6196,-4.6196,-4.6196,-4.6196,-4.6176,-4.6157,-4.6157,-4.6137,-4.5884,-4.5046,-4.4832,-4.4559,-4.3721,-4.3539,-4.352,-4.352,-4.2806,-4.1968,-4.1188,-4.0292,-3.9104,-3.7389,-3.5655,-3.4583,-3.4564,-3.4566,-3.4253,-3.347,-3.4881,-3.5095,-3.3405,-3.4024,-3.4459,-3.4459,-3.3701,-3.3662,-3.4439,-3.3701,-3.3682,-3.4459,-3.4459,-3.4905,-3.5713,-3.5669,-3.567,-4.1771,0.0,-5.0008,-5.3171,-5.6333,-5.9202,-6.1232,-6.1701,-6.1603,-6.133,-6.0119,-5.8675,-5.727,-5.7016,-5.6918,-5.6626,-5.7309,-5.7953,-5.8207,-5.6782,-5.4986,-5.2956,-5.1433,-5.0106,-4.8993,-5.0672,-5.2565,-5.4303,-5.4439,-5.5064,-5.6528,-5.6606,-5.6606,-5.6606,-5.6606,-5.6606,-5.6606,-5.6606,-5.6606,-5.6586,-5.6001,-5.5435,-5.4849,-5.3971,-5.3405,-5.3093,-5.2214,-5.1999,-5.2214,-5.1648,-5.1238,-5.0906,-5.034,-4.9755,-4.913,-4.8017,-4.7412,-4.7081,-4.6495,-4.6292,-4.6284,-4.6255,-4.622,-4.6203,-4.619,-4.6203,-4.6196,-4.6196,-4.6196,-4.6196,-4.6196,-4.6196,-4.6196,-4.6196,-4.6196,-4.6118,-4.5825,-4.5299,-4.4812,-4.452,-4.3994,-4.3598,-4.3598,-4.3364,-4.2864,-4.2026,-4.0201,-3.8516,-3.7347,-3.6689,-3.6114,-3.5583,-3.5532,-3.5428,-3.5152,-3.5601,-3.5642,-3.5061,-3.525,-3.5352,-3.5352,-3.51,-3.51,-3.5352,-3.51,-3.51,-3.5352,-3.5352,-3.5491,-3.5727,-3.5718,-3.5708,-4.6183,-5.0399,-5.4478,-5.8011,-6.0549,-6.2462,-6.3574,-6.2911,-6.174,-6.0549,-5.8246,-5.5825,-5.3815,-5.319,-5.2878,-5.2605,-5.3776,-5.5025,-5.5864,-5.5044,-5.3854,-5.2487,-5.1277,-5.0145,-4.9052,-5.0165,-5.1531,-5.2956,-5.3659,-5.4615,-5.6059,-5.643,-5.6606,-5.6606,-5.6606,-5.6606,-5.6606,-5.6606,-5.6606,-5.6586,-5.5728,-5.5005,-5.4459,-5.3873,-5.3288,-5.2683,-5.2448,-5.2292,-5.2195,-5.1629,-5.1394,-5.1336,-5.0789,-5.0379,-4.9969,-4.8896,-4.831,-4.7861,-4.669,-4.6487,-4.6674,-4.6328,-4.641,-4.6612,-4.6281,-4.6196,-4.6196,-4.6196,-4.6196,-4.6196,-4.6196,-4.6196,-4.6196,-4.6196,-4.6196,-4.6196,-4.6196,-4.5767,-4.5358,-4.5358,-4.491,-4.454,-4.454,-4.4014,-4.3305,-4.2435,-4.0661,-3.9112,-3.8249,-3.76,-3.7,-3.6473,-3.6169,-3.5985,-3.5977,-3.5916,-3.591,-3.5896,-3.5846,-3.5799,-3.5799,-3.5799,-3.5799,-3.5799,-3.5799,-3.5799,-3.5799,-3.5799,-3.5773,-3.5737,-3.5708,-3.5708,-5.034,-5.3678,-5.6879,-6.1837,-6.3067,-6.3028,-6.2891,-6.1525,-5.9749,-5.7855,-5.5376,-5.2741,0.0,0.0,-4.833,-4.7705,-4.9774,-5.1804,-5.2761,-5.2897,-5.3171,0.0,0.0,0.0,0.0,0.0,-5.0575,-5.1394,-5.2995,-5.4342,-5.5318,-5.6157,-5.6606,-5.6606,-5.6606,-5.6606,-5.6606,-5.6606,-5.6606,-5.6586,-5.5767,-5.5337,-5.5298,-5.524,-5.4322,-5.28,-5.3541,-5.2956,-5.1453,-5.1414,-5.1394,-5.1394,-5.1394,-5.0887,-5.0165,-5.0126,-4.9579,-4.8623,-4.6944,-4.6897,-4.7431,-4.6601,-4.6897,-4.7411,-4.6573,-4.6293,-4.6274,-4.6274,-4.6235,-4.6196,-4.6196,-4.6196,-4.6196,-4.6196,-4.6196,-4.6196,-4.6196,-4.6196,-4.6196,-4.6196,-4.6196,-4.6196,-4.6196,-4.4793,-4.3371,-4.2494,-4.168,-4.0838,-3.9911,-3.8361,-3.7297,-3.7219,-3.6524,-3.6016,-3.5916,-3.5891,-3.5896,-3.5894,-3.5845,-3.5799,-3.5799,-3.5799,-3.5799,-3.5799,-3.5799,-3.5818,-3.5877,-3.5849,-3.5879,-3.593,-3.5854,-3.5805,-5.5123,-5.8558,-6.1505,-6.3477,-6.3965,-6.3457,-6.1505,-5.971,-5.7426,-5.3776,-4.9969,-4.669,0.0,0.0,0.0,-4.7315,-5.0282,0.0,-5.5298,-5.5611,0.0,-5.4127,0.0,-5.2839,-5.1531,-5.1785,0.0,-5.2351,-5.278,-5.3971,-5.6157,-5.6489,-5.6606,-5.6606,-5.6606,-5.6606,-5.6606,-5.6606,-5.6606,-5.6606,-5.6372,-5.5923,-5.5279,-5.4635,-5.4088,-5.362,-5.2526,-5.2175,-5.2312,-5.1668,-5.1394,-5.1394,-5.1394,-5.1258,-5.0984,-5.034,-4.9969,-4.954,-4.7842,-4.7795,-4.843,-4.8211,-4.8293,-4.8425,-4.8204,-4.7691,-4.717,-4.717,-4.6702,-4.6196,-4.6196,-4.6196,-4.6196,-4.6196,-4.6196,-4.6196,-4.6196,-4.6196,-4.6196,-4.6196,-4.6196,-4.6196,-4.6196,-4.528,-4.4273,-4.3403,-4.2588,-4.1525,-3.9999,-3.9412,-3.8661,-3.7412,-3.7042,-3.662,-3.5957,-3.5893,-3.5904,-3.5889,-3.5845,-3.5799,-3.5799,-3.5799,-3.5799,-3.5799,-3.5799,-3.6129,-3.677,-3.6725,-3.7036,-3.7657,-3.7588,-3.7207,-5.9143,-6.2071,-6.4258,-6.4746,-6.4297,-6.2852,-5.9495,-5.7094,-5.4244,-4.956,-4.5753,0.0,-4.1049,-4.142,0.0,0.0,0.0,0.0,-5.3951,-5.4986,-5.5376,0.0,-5.5142,0.0,-5.3776,-5.3776,-5.399,-5.4381,-5.4068,-5.4478,-5.5942,-5.6391,-5.6606,-5.6606,-5.6606,-5.6606,-5.6606,-5.6606,-5.6606,-5.6606,-5.6216,-5.5767,-5.5279,-5.4791,-5.4147,-5.3405,-5.28,-5.237,-5.2097,-5.1609,-5.1394,-5.1394,-5.1394,-5.1394,-5.1336,-5.0848,-5.0672,-5.0535,-4.9599,-4.9556,-4.9747,-4.8606,-4.8499,-4.8736,-4.8353,-4.7619,-4.693,-4.6924,-4.6585,-4.6196,-4.6196,-4.6196,-4.6196,-4.6196,-4.6196,-4.6196,-4.6196,-4.6196,-4.6196,-4.6196,-4.6196,-4.6196,-4.6196,-4.5475,-4.4722,-4.4234,-4.3153,-4.2056,-4.1066,-4.0278,-3.9435,-3.8508,-3.8026,-3.7557,-3.7033,-3.6645,-3.6423,-3.643,-3.6386,-3.6382,-3.6382,-3.6751,-3.6945,-3.6945,-3.6945,-3.7178,-3.7664,-3.7598,-3.7822,-3.8306,-3.8236,-3.7878,-6.2618,-6.4531,-6.5604,-6.5604,-6.3945,-6.1193,-5.6899,-5.3795,-5.0379,-4.5226,0.0,-4.0112,-3.8531,-3.9019,-4.0073,-4.14,0.0,-4.8603,-5.1511,-5.3229,-5.4771,-5.6411,-5.6606,-5.6606,-5.6606,-5.5923,-5.5786,-5.6547,-5.5903,-5.5474,-5.5474,-5.6294,-5.6762,-5.6762,-5.6665,-5.6606,-5.6606,-5.6606,-5.6606,-5.6586,-5.5825,-5.5474,-5.5474,-5.5357,-5.44,-5.2917,-5.3541,-5.2897,-5.1394,-5.1394,-5.1394,-5.1394,-5.1394,-5.1394,-5.1394,-5.1394,-5.1394,-5.1375,-5.1277,-5.1297,-5.1023,-4.8747,-4.8528,-4.8991,-4.8242,-4.7411,-4.669,-4.6573,-4.6449,-4.6352,-4.6235,-4.6196,-4.6196,-4.6196,-4.6196,-4.6196,-4.6196,-4.6196,-4.6196,-4.6196,-4.6196,-4.6196,-4.6196,-4.5572,-4.5033,-4.4916,-4.3568,-4.2524,-4.2405,-4.0987,-3.9928,-3.9804,-3.9121,-3.8602,-3.8422,-3.7708,-3.7274,-3.7264,-3.7275,-3.7275,-3.7275,-3.7994,-3.8402,-3.8402,-3.8402,-3.846,-3.8576,-3.851,-3.854,-3.8636,-3.8573,-3.8382,-6.5604,-6.5878,-6.5604,-6.5604,-6.211,-5.7582,-5.3288,-4.9755,0.0,0.0,-3.8785,-3.7653,-3.6638,-3.7731,-4.0015,-4.3723,0.0,0.0,0.0,-5.4888,-5.5454,0.0,-5.6606,-5.6606,-5.6606,-5.6469,0.0,-5.6586,-5.6469,-5.6372,-5.6372,-5.7153,-5.7582,-5.7582,-5.6957,-5.6606,-5.6606,-5.6606,-5.6606,-5.6606,-5.645,-5.6372,-5.6352,-5.563,-5.4732,-5.3737,-5.3171,-5.2351,-5.1394,-5.1394,-5.1394,-5.1394,-5.1394,-5.1394,-5.1394,-5.1394,-5.1394,-5.1297,-5.0575,-5.0809,-5.1336,-5.0863,-5.084,-5.0928,-5.077,-5.0114,-4.9276,-4.856,-4.7832,-4.7111,-4.6391,-4.6196,-4.6196,-4.6196,-4.6196,-4.6196,-4.6196,-4.6196,-4.6196,-4.6196,-4.6196,-4.6196,-4.6196,-4.6059,-4.5722,-4.5006,-4.41,-4.3212,-4.249,-4.1518,-4.0591,-3.9883,-3.9662,-3.9266,-3.848,-3.8272,-3.8166,-3.8169,-3.8169,-3.8169,-3.8169,-3.8324,-3.8402,-3.8402,-3.8402,-3.8751,-3.947,-3.9403,-3.9721,-4.0361,-4.0343,-3.9857,-6.6346,-6.6522,-6.5917,-6.4589,-6.0998,-5.6333,-5.0692,0.0,0.0,0.0,-3.654,-3.5955,-3.5994,0.0,0.0,0.0,0.0,0.0,0.0,0.0,0.0,-5.6333,-5.6606,-5.6606,-5.6606,-5.6606,-5.6606,-5.6606,-5.6606,-5.6782,-5.7192,-5.7582,-5.7601,-5.7192,-5.6801,-5.6606,-5.6606,-5.6606,-5.6606,-5.6606,-5.6606,-5.6606,-5.6567,-5.5708,-5.481,-5.3951,-5.3073,-5.2214,-5.1394,-5.1394,-5.1394,-5.1394,-5.1394,-5.1394,-5.1394,-5.1394,-5.1394,-5.1336,-5.0926,-5.1043,-5.1394,-5.1394,-5.1098,-5.0722,-5.0728,-4.9795,-4.8743,-4.8789,-4.7839,-4.6819,-4.6878,-4.6546,-4.6196,-4.6196,-4.6196,-4.6196,-4.6196,-4.6196,-4.6203,-4.619,-4.619,-4.619,-4.619,-4.619,-4.6066,-4.5635,-4.486,-4.4031,-4.3173,-4.2312,-4.1425,-4.0523,-4.0418,-4.0232,-3.975,-3.9321,-3.9082,-3.9082,-3.9082,-3.9082,-3.9082,-3.947,-3.9703,-3.9703,-3.9703,-3.9917,-4.0325,-4.0246,-4.0419,-4.0807,-4.0808,-4.04,-6.6405,-6.6678,-6.6014,-6.3828,-5.9963,-5.5103,-4.8993,-4.3957,0.0,0.0,-3.531,-3.4979,-3.5837,0.0,-3.8434,0.0,0.0,0.0,0.0,0.0,0.0,0.0,-5.6489,0.0,-5.6606,-5.6606,0.0,-5.6606,-5.6762,-5.7133,-5.7777,-5.7641,-5.7328,-5.6879,-5.6684,-5.6606,-5.6606,-5.6606,-5.6606,-5.6606,-5.6606,-5.6606,-5.6586,-5.5884,-5.5005,-5.3951,-5.3288,-5.237,-5.1394,-5.1394,-5.1394,-5.1394,-5.1394,-5.1394,-5.1394,-5.1394,-5.1394,-5.1394,-5.1394,-5.1394,-5.1394,-5.1394,-5.0945,-5.0375,-5.0386,-4.9416,-4.8443,-4.8938,-4.808,-4.7131,-4.7657,-4.7131,-4.6429,-4.6235,-4.6196,-4.6196,-4.6196,-4.6196,-4.6203,-4.6203,-4.6203,-4.6203,-4.6209,-4.6209,-4.6195,-4.6231,-4.5479,-4.4672,-4.4045,-4.3027,-4.2099,-4.1355,-4.112,-4.096,-4.0917,-4.0325,-3.9956,-3.9956,-3.9956,-3.9956,-3.9956,-4.0558,-4.0907,-4.0907,-4.0907,-4.0907,-4.0907,-4.0839,-4.0807,-4.0807,-4.0808,-4.0598,-6.6561,-6.6268,-6.5468,-6.4433,-5.8636,-5.2195,-4.8447,0.0,0.0,-3.6384,-3.531,-3.4979,-3.5837,-3.613,-3.7028,0.0,0.0,-4.2201,0.0,0.0,0.0,0.0,0.0,0.0,-5.6606,-5.6606,-5.6606,-5.6606,-5.7289,-5.7719,-5.7797,-5.7113,-5.7016,-5.766,-5.6977,-5.6606,-5.6606,-5.6606,-5.6606,-5.6606,-5.6606,-5.6606,-5.6606,-5.6528,-5.5571,-5.401,-5.3912,-5.2936,-5.1394,-5.1394,-5.1394,-5.1394,-5.1394,-5.1394,-5.1394,-5.1394,-5.1394,-5.1394,-5.1394,-5.1394,-5.1394,-5.1394,-5.1355,-5.1273,-5.1284,-5.1171,-5.0881,-5.0186,-4.9815,-4.9508,-4.8845,-4.8027,-4.717,-4.6391,-4.6196,-4.6196,-4.6196,-4.6196,-4.6203,-4.6203,-4.6203,-4.6209,-4.6201,-4.6206,-4.6231,-4.6279,-4.5492,-4.4861,-4.4804,-4.3333,-4.2272,-4.2188,-4.1461,-4.096,-4.0917,-4.083,-4.0791,-4.0791,-4.0791,-4.0791,-4.0791,-4.0869,-4.0907,-4.0907,-4.0907,-4.0907,-4.0907,-4.0839,-4.0807,-4.0807,-4.0808,-4.0673,-6.3574,-6.4667,-6.4355,-6.2423,-5.7289,-5.1668,-4.7725,0.0,0.0,-3.5467,-3.453,-3.4178,-3.5057,-3.5642,-3.6323,0.0,0.0,0.0,0.0,0.0,0.0,0.0,-5.4029,0.0,0.0,0.0,-5.6606,-5.6606,-5.6899,-5.7074,-5.7074,-5.7231,-5.725,-5.7074,-5.6762,-5.6606,-5.6606,-5.6606,-5.6606,-5.6606,-5.6606,-5.6606,-5.6586,-5.6059,-5.5142,-5.3971,-5.3444,-5.2526,-5.1394,-5.1394,-5.1394,-5.1394,-5.1394,-5.1394,-5.1394,-5.1394,-5.1394,-5.1394,-5.1394,-5.1394,-5.1394,-5.1394,-5.1394,-5.1394,-5.1401,-5.1021,-5.0639,-5.0771,-5.0075,-4.9328,-4.9469,-4.8904,-4.8066,-4.7189,-4.6975,-4.6839,-4.6313,-4.6196,-4.6209,-4.6195,-4.6201,-4.6201,-4.6255,-4.626,-4.6269,-4.6237,-4.5913,-4.5488,-4.4972,-4.4261,-4.3429,-4.2416,-4.1478,-4.0932,-4.0888,-4.0907,-4.0907,-4.0907,-4.0907,-4.0907,-4.0907,-4.0907,-4.0907,-4.0907,-4.0907,-4.0907,-4.0907,-4.0839,-4.0807,-4.0807,-4.0808,-4.0687,-5.9202,-6.1525,-6.2267,-6.0159,-5.5376,-5.0204,0.0,0.0,0.0,-3.4764,-3.4003,-3.3749,-3.4881,-3.5584,-3.5991,0.0,0.0,-3.7692,-4.1479,0.0,0.0,0.0,0.0,-5.2858,-5.522,-5.6157,-5.6606,-5.6606,-5.6606,-5.6606,-5.6606,-5.7133,-5.7192,-5.6626,-5.6606,-5.6606,-5.6606,-5.6606,-5.6606,-5.6606,-5.6606,-5.6606,-5.6586,-5.5962,-5.5064,-5.3971,-5.3346,-5.2448,-5.1394,-5.1394,-5.1394,-5.1394,-5.1394,-5.1394,-5.1394,-5.1394,-5.1394,-5.1394,-5.1394,-5.1394,-5.1394,-5.1394,-5.1394,-5.1394,-5.1401,-5.0967,-5.0591,-5.118,-5.0485,-4.964,-4.9958,-4.962,-4.895,-4.8093,-4.7684,-4.7326,-4.6722,-4.6378,-4.6196,-4.6201,-4.6211,-4.6236,-4.6288,-4.628,-4.6256,-4.6209,-4.6171,-4.5946,-4.5328,-4.5001,-4.4347,-4.3179,-4.1993,-4.1179,-4.0927,-4.0907,-4.0907,-4.0907,-4.0907,-4.0907,-4.0907,-4.0907,-4.0907,-4.0907,-4.0907,-4.0907,-4.0898,-4.0828,-4.0807,-4.0796,-4.0796,-4.066,-5.362,-5.6567,-5.8948,-5.805,-5.2702,-4.6963,0.0,0.0,-3.3671,-3.451,-3.4003,-3.3925,-3.5659,-3.5991,-3.5991,-3.5991,0.0,0.0,-4.0756,0.0,0.0,0.0,0.0,-5.0828,-5.2565,-5.5083,-5.6606,-5.6606,-5.6606,-5.6606,-5.6606,-5.6606,-5.6606,-5.6606,-5.6606,-5.6606,-5.6606,-5.6606,-5.6606,-5.6606,-5.6606,-5.6606,-5.6606,-5.6586,-5.565,-5.401,-5.399,-5.2995,-5.1394,-5.1394,-5.1394,-5.1394,-5.1394,-5.1394,-5.1394,-5.1394,-5.1394,-5.1394,-5.1394,-5.1394,-5.1394,-5.1394,-5.1394,-5.1394,-5.1401,-5.1396,-5.1396,-5.1396,-5.1386,-5.118,-5.0321,-5.0095,-4.9868,-4.899,-4.8139,-4.7501,-4.7482,-4.6814,-4.6209,-4.6206,-4.6255,-4.6308,-4.63,-4.6245,-4.6191,-4.6191,-4.6136,-4.6105,-4.6079,-4.5326,-4.4792,-4.4773,-4.3219,-4.184,-4.0966,-4.0907,-4.0907,-4.0907,-4.0907,-4.0907,-4.0907,-4.0907,-4.0907,-4.0907,-4.0907,-4.0898,-4.0907,-4.0837,-4.0796,-4.08,-4.0803,-4.0583,-4.6905,-4.9072,-5.0145,-4.9267,-4.6085,-4.263,-4.0659,0.0,-3.3476,-3.3749,-3.3593,-3.3749,-3.4901,-3.5603,-3.6208,-3.6794,-3.7126,0.0,0.0,0.0,0.0,-4.7978,-5.2038,-5.4752,0.0,-5.6118,-5.6606,-5.6606,-5.6606,-5.6606,-5.6606,-5.6606,-5.6606,-5.6606,-5.6606,-5.6606,-5.6606,-5.6001,-5.5708,-5.5708,-5.5103,-5.5142,-5.5708,-5.5708,-5.5083,-5.401,-5.401,-5.3014,-5.1394,-5.1394,-5.1394,-5.1394,-5.1394,-5.1394,-5.1394,-5.1394,-5.1394,-5.1394,-5.1394,-5.1394,-5.1394,-5.1394,-5.1394,-5.1394,-5.139,-5.141,-5.1406,-5.1401,-5.1405,-5.1336,-5.1063,-5.0979,-5.0621,-4.9146,-4.8587,-4.8061,-4.6859,-4.6384,-4.6206,-4.6255,-4.6284,-4.6296,-4.6245,-4.621,-4.6189,-4.6147,-4.6111,-4.6084,-4.6036,-4.5784,-4.5414,-4.4851,-4.4307,-4.3374,-4.1898,-4.1238,-4.0907,-4.0907,-4.0907,-4.0907,-4.0907,-4.0907,-4.0907,-4.0907,-4.0907,-4.0898,-4.0907,-4.0837,-4.0738,-4.0593,-4.0598,-4.0679,0.0,-4.343,-4.4699,-4.4153,-4.183,0.0,0.0,0.0,-3.2519,-3.2831,-3.291,-3.328,-3.4471,-3.5135,-3.5798,-3.6677,-3.736,0.0,0.0,0.0,0.0,-4.8818,0.0,0.0,-5.5591,-5.6216,-5.6606,-5.6606,-5.6606,-5.6606,-5.6606,-5.6606,-5.6606,-5.6606,-5.6606,-5.6606,-5.6606,-5.5747,-5.5298,-5.5298,-5.442,-5.4283,-5.481,-5.481,-5.4322,-5.3502,-5.3502,-5.2702,0.0,-5.1394,-5.1394,-5.1394,-5.1394,-5.1394,-5.1394,-5.1394,-5.1394,-5.1394,-5.1394,-5.1394,-5.1394,-5.1394,-5.1394,-5.1394,-5.1394,-5.1394,-5.1394,-5.1406,-5.1396,-5.1391,-5.1391,-5.1405,-5.1127,-5.0048,-4.9282,-4.8496,-4.7423,-4.6669,-4.6211,-4.6284,-4.6308,-4.6287,-4.621,-4.621,-4.6175,-4.6118,-4.6076,-4.6054,-4.6007,-4.5997,-4.5802,-4.5317,-4.4986,-4.4229,-4.2811,-4.1898,-4.1257,-4.0927,-4.1218,-4.1393,-4.1393,-4.1393,-4.1393,-4.1393,-4.1073,-4.0898,-4.0867,-4.0815,-4.0862,-4.095,-4.0559,-4.0807,0.0,0.0,0.0,0.0,0.0,0.0,0.0,0.0,0.0,-3.1914,-3.209,-3.2656,-3.4452,-3.4744,-3.5037,-3.6013,0.0,0.0,0.0,-4.306,0.0,0.0,-5.1882,0.0,-5.3932,-5.5571,-5.6606,-5.6606,-5.6606,-5.6606,-5.6606,-5.6606,-5.6567,-5.6508,-5.6508,-5.6508,-5.6508,-5.5571,-5.5123,-5.5103,-5.4225,-5.3854,-5.3912,-5.3912,-5.3463,-5.2702,-5.2702,-5.2214,-5.1394,-5.1394,-5.1394,-5.1394,-5.1394,-5.1394,-5.1394,-5.1394,-5.1394,-5.1394,-5.1394,-5.1394,-5.1394,-5.1394,-5.1394,-5.1394,-5.1394,-5.1394,-5.1394,-5.1394,-5.1394,-5.1394,-5.1316,-5.1308,-5.1284,-5.1143,-4.9898,-4.8704,-4.8716,-4.7435,-4.6309,-4.6381,-4.6394,-4.6354,-4.6211,-4.62,-4.6162,-4.6105,-4.6046,-4.5997,-4.5997,-4.5997,-4.5997,-4.5997,-4.5336,-4.452,-4.3666,-4.2792,-4.1879,-4.0966,-4.1781,-4.2248,-4.2189,-4.2248,-4.2287,-4.2287,-4.148,-4.1042,-4.0981,-4.097,-4.1238,-4.1747,-4.0805,-4.1089,-3.2051,0.0,-3.3534,-3.3534,-3.2929,0.0,0.0,0.0,0.0,0.0,0.0,0.0,0.0,0.0,0.0,0.0,0.0,0.0,-4.0581,0.0,0.0,-5.1824,-5.4225,-5.524,-5.4108,-5.5571,-5.6606,-5.6606,-5.6606,-5.6606,-5.6606,-5.6606,-5.6294,-5.563,-5.5611,-5.5611,-5.5611,-5.4088,-5.3307,-5.3307,-5.2429,-5.2351,-5.3014,-5.3014,-5.2897,-5.2702,-5.2702,-5.2214,-5.1394,-5.1394,-5.1394,-5.1394,-5.1394,-5.1394,-5.1394,-5.1394,-5.1394,-5.1394,-5.1394,-5.1394,-5.1394,-5.1394,-5.1394,-5.1394,-5.1394,-5.1394,-5.1394,-5.1394,-5.1394,-5.1258,-5.0575,-5.0414,-5.0059,-4.8723,-4.8138,-4.7864,-4.7821,-4.7513,-4.7288,-4.7292,-4.7254,-4.6992,-4.6317,-4.6162,-4.6098,-4.6036,-4.6017,-4.5997,-4.5997,-4.5997,-4.5997,-4.5997,-4.5822,-4.5394,-4.4559,-4.3704,-4.2539,-4.1005,-4.2345,-4.2908,-4.2228,-4.283,-4.3199,-4.3199,-4.2934,-4.2784,-4.271,-4.257,-4.2477,-4.2451,-4.2001,-4.2271,-3.0801,-3.0801,-3.0801,-3.0801,-3.0801,-3.0801,0.0,0.0,0.0,0.0,0.0,0.0,0.0,0.0,0.0,0.0,-3.898,0.0,0.0,0.0,-5.0457,-5.2995,-5.4556,-5.5357,-5.522,-5.6059,-5.6606,-5.6606,-5.6606,-5.6606,-5.6606,-5.6606,-5.6196,-5.5337,-5.4908,-5.4693,-5.4693,-5.3366,-5.2702,-5.2683,-5.1824,-5.1648,-5.2097,-5.2097,-5.2097,-5.2097,-5.2097,-5.1843,-5.1394,-5.1394,-5.1394,-5.1394,-5.1394,-5.1394,-5.1394,-5.1394,-5.1394,-5.1394,-5.1394,-5.1394,-5.1394,-5.1394,-5.1394,-5.1394,-5.1394,-5.1394,-5.1394,-5.1394,-5.1394,-5.1199,-5.034,-5.0106,-4.9868,-4.8927,-4.842,-4.8146,-4.8107,-4.8127,-4.792,-4.7118,-4.7244,-4.7204,-4.6303,-4.6125,-4.6076,-4.6017,-4.5997,-4.5997,-4.5997,-4.5997,-4.5997,-4.5997,-4.5997,-4.5666,-4.487,-4.4715,-4.3918,-4.2209,-4.3355,-4.3879,-4.3413,-4.384,-4.3889,-4.3449,-4.3385,-4.3349,-4.3292,-4.3108,-4.3079,-4.3232,-4.2601,-4.2875,-3.0801,-3.0997,-3.1133,-3.088,-3.0899,-3.0958,0.0,0.0,0.0,0.0,0.0,0.0,0.0,0.0,0.0,0.0,0.0,0.0,-4.7588,-4.8993,-5.0692,-5.3659,-5.4225,-5.4869,-5.6098,-5.645,-5.6606,-5.6606,-5.6606,-5.6606,-5.6606,-5.6469,-5.6001,-5.5123,-5.4264,-5.3737,-5.36,-5.2878,-5.2507,-5.2487,-5.1746,-5.1394,-5.1394,-5.1394,-5.1394,-5.1394,-5.1394,-5.1394,-5.1394,-5.1258,-5.1199,-5.1199,-5.1199,-5.1199,-5.1219,-5.1355,-5.1394,-5.1394,-5.1394,-5.1394,-5.1394,-5.1394,-5.1394,-5.1394,-5.1394,-5.1316,-5.1238,-5.1355,-5.1394,-5.118,-5.0165,-5.0008,-5.0067,-4.993,-4.9337,-4.8806,-4.8798,-4.879,-4.833,-4.6716,-4.6992,-4.718,-4.6273,-4.6098,-4.608,-4.6017,-4.5997,-4.5997,-4.5997,-4.5997,-4.5997,-4.5997,-4.5997,-4.5725,-4.5045,-4.5608,-4.5394,-4.3976,-4.4579,-4.4986,-4.4986,-4.4986,-4.4605,-4.3792,-4.3729,-4.3679,-4.3631,-4.3426,-4.3579,-4.4012,-4.3065,-4.3316,-3.0801,-3.1875,-3.2656,-3.1172,-3.1348,-3.1719,0.0,0.0,0.0,0.0,0.0,0.0,0.0,0.0,0.0,0.0,0.0,-4.6749,0.0,0.0,-5.3405,-5.3932,-5.5298,-5.5728,-5.4517,-5.5728,-5.6606,-5.6606,-5.6606,-5.6606,-5.6606,-5.5903,-5.5103,-5.4225,-5.3346,-5.2546,-5.1804,-5.1668,-5.1609,-5.1609,-5.1453,-5.1394,-5.1394,-5.1394,-5.1394,-5.1394,-5.1394,-5.1394,-5.1336,-5.0594,-5.0301,-5.0301,-5.0301,-5.0301,-5.0399,-5.1121,-5.1394,-5.1394,-5.1394,-5.1394,-5.1394,-5.1394,-5.1394,-5.1394,-5.1394,-5.0887,-5.0457,-5.1199,-5.1394,-5.1023,-4.9423,-4.956,-4.9911,-4.9169,-4.8896,-4.8798,-4.8798,-4.8798,-4.8525,-4.7575,-4.7402,-4.7146,-4.6331,-4.6091,-4.6017,-4.6007,-4.5997,-4.5997,-4.5997,-4.5997,-4.5997,-4.5997,-4.5997,-4.5938,-4.5822,-4.5919,-4.588,-4.5627,-4.5744,-4.5822,-4.5822,-4.582,-4.572,-4.5517,-4.5512,-4.5385,-4.5158,-4.4959,-4.4794,-4.4659,-4.4327,-4.4279,-3.0801,-3.1738,-3.2519,-3.1699,-3.2519,-3.3144,0.0,0.0,0.0,0.0,0.0,0.0,0.0,0.0,0.0,0.0,0.0,-4.8525,-5.1043,-5.2097,-5.2936,-5.3893,-5.4713,-5.5259,-5.5396,-5.6138,-5.6606,-5.6606,-5.6157,-5.5903,-5.5903,-5.5064,-5.4205,-5.3327,-5.2917,-5.2273,-5.1414,-5.0926,-5.0926,-5.1394,-5.0926,-5.0945,-5.1394,-5.1394,-5.1394,-5.1394,-5.1394,-5.1121,-5.0672,-5.0262,-4.9813,-4.9442,-4.993,-5.0106,-5.0204,-5.1082,-5.1394,-5.1394,-5.1394,-5.1394,-5.1394,-5.1394,-5.1082,-5.0692,-5.0692,-5.0087,-4.9481,-4.9872,-5.0321,-5.0516,-4.9716,-4.9442,-4.9423,-4.9481,-4.915,-4.8935,-4.9403,-4.9495,-4.9097,-4.7754,-4.7442,-4.7111,-4.6235,-4.6046,-4.5997,-4.5997,-4.5997,-4.5997,-4.5997,-4.5997,-4.5997,-4.5997,-4.5997,-4.5997,-4.5997,-4.5997,-4.5997,-4.5997,-4.5997,-4.5997,-4.5994,-4.5972,-4.5937,-4.5899,-4.5874,-4.5723,-4.549,-4.5284,-4.5052,-4.4795,-4.4595,-4.4515,-3.0801,-3.1582,-3.2304,-3.1895,0.0,-3.3905,0.0,0.0,0.0,0.0,0.0,0.0,0.0,0.0,0.0,-4.6846,-4.8798,-5.0321,-5.2078,-5.2487,-5.3112,-5.4459,-5.4615,-5.5123,-5.6469,-5.6411,-5.6294,-5.6294,-5.5493,-5.5005,-5.5005,-5.4166,-5.3385,-5.2722,-5.2507,-5.198,-5.1102,-5.0223,-5.0223,-5.1082,-5.0204,-5.0145,-5.0809,-5.1004,-5.0984,-5.0809,-5.1004,-5.0594,-4.9774,-4.9599,-4.913,-4.8584,-4.9247,-4.9638,-4.9911,-5.077,-5.0965,-5.0828,-5.1023,-5.0965,-5.0789,-5.0789,-5.034,-4.9794,-4.9794,-4.9208,-4.8564,-4.8759,-4.915,-4.956,-4.9755,-4.9306,-4.9013,-4.9891,-4.9599,-4.9286,-4.9969,-4.9934,-4.9335,-4.7723,-4.725,-4.6863,-4.6153,-4.6017,-4.5997,-4.5997,-4.5997,-4.5997,-4.5997,-4.5997,-4.5997,-4.5997,-4.5997,-4.5997,-4.5997,-4.5997,-4.5997,-4.5997,-4.5997,-4.6005,-4.5991,-4.5937,-4.5899,-4.5893,-4.5827,-4.5708,-4.549,-4.5284,-4.5052,-4.4795,-4.4595,-4.4515,-3.0801,-3.2031,-3.2929,-3.1309,0.0,0.0,0.0,0.0,0.0,0.0,0.0,0.0,0.0,0.0,-4.4348,-4.7139,-5.0301,-5.3034,-5.4771,-5.5728,-5.6274,-5.6391,-5.6411,-5.6469,-5.6586,-5.5864,-5.5396,-5.5396,-5.4596,-5.4088,-5.4088,-5.3268,-5.2761,-5.2702,-5.1921,-5.1082,-5.0204,-4.9325,-4.9325,-5.0184,-4.9306,-4.8935,-4.9013,-4.9813,-4.9755,-4.9032,-4.9833,-4.9696,-4.8837,-4.8096,-4.7744,-4.7686,-4.7764,-4.8232,-4.8993,-4.9872,-4.9677,-4.9091,-4.9911,-4.9657,-4.8993,-4.8993,-4.8935,-4.8896,-4.8896,-4.833,-4.7842,-4.8584,-4.831,-4.7959,-4.8701,-4.8857,-4.9013,-4.9891,-5.0048,-5.0028,-5.0087,-4.9465,-4.8613,-4.7676,-4.6784,-4.6176,-4.6091,-4.6046,-4.5997,-4.5997,-4.5997,-4.5997,-4.5997,-4.5997,-4.5997,-4.5997,-4.5997,-4.5997,-4.5997,-4.5997,-4.5997,-4.5997,-4.5994,-4.6003,-4.5991,-4.5932,-4.5906,-4.5893,-4.5827,-4.5708,-4.549,-4.5284,-4.5052,-4.4795,-4.4595,-4.4515,-3.0801,-3.207,-3.3105,-3.1914,0.0,0.0,0.0,0.0,0.0,0.0,0.0,0.0,0.0,0.0,-4.6612,-4.8096,-5.1258,-5.3737,-5.44,-5.524,-5.5591,-5.5044,-5.4986,-5.4986,-5.4986,-5.4693,-5.4498,-5.4498,-5.3678,-5.319,-5.319,-5.237,-5.1882,-5.1882,-5.1043,-5.0438,-5.0106,-4.874,-4.8213,-4.8545,-4.8213,-4.833,-4.8818,-4.915,-4.9111,-4.8818,-4.915,-4.8818,-4.8037,-4.7725,-4.7276,-4.6846,-4.7393,-4.8096,-4.8837,-4.9169,-4.9072,-4.8857,-4.9189,-4.9072,-4.8798,-4.8798,-4.8466,-4.8057,-4.8057,-4.7451,-4.6963,-4.7822,-4.7432,-4.71,-4.8447,-4.8427,-4.8252,-4.9091,-4.8915,-4.8837,-4.9872,-4.8964,-4.7998,-4.8213,-4.7053,-4.6036,-4.6036,-4.6027,-4.5997,-4.5997,-4.5997,-4.5997,-4.5997,-4.5997,-4.5997,-4.5997,-4.5997,-4.5997,-4.5997,-4.5997,-4.5997,-4.5994,-4.6003,-4.5991,-4.5949,-4.5899,-4.5893,-4.5847,-4.5814,-4.5708,-4.549,-4.5418,-4.5184,-4.48,-4.4714,-4.4621,-3.0801,-3.168,-3.25,0.0,0.0,0.0,0.0,0.0,0.0,0.0,0.0,0.0,0.0,0.0,0.0,0.0,-5.1492,-5.3698,-5.3951,-5.4517,-5.4674,-5.4068,-5.401,-5.401,-5.401,-5.3756,-5.3483,-5.321,-5.237,-5.1882,-5.1882,-5.1043,-5.0711,-5.0984,-5.0145,-4.9579,-4.9306,-4.8174,-4.7451,-4.7198,-4.7198,-4.7471,-4.8017,-4.8291,-4.8271,-4.8037,-4.8291,-4.7959,-4.7198,-4.7198,-4.6846,-4.6358,-4.6963,-4.753,-4.8037,-4.833,-4.8252,-4.8057,-4.833,-4.8232,-4.8017,-4.8017,-4.7647,-4.7198,-4.7198,-4.6768,-4.6417,-4.7022,-4.6768,-4.6554,-4.7705,-4.7608,-4.7393,-4.8213,-4.8193,-4.8291,-4.9442,-4.8691,-4.7904,-4.8236,-4.7267,-4.6404,-4.6404,-4.6404,-4.6502,-4.6773,-4.6579,-4.6404,-4.6404,-4.6404,-4.6307,-4.6035,-4.5997,-4.5997,-4.5997,-4.5997,-4.6005,-4.6003,-4.5991,-4.5949,-4.5893,-4.5887,-4.5847,-4.58,-4.58,-4.5708,-4.549,-4.5436,-4.5204,-4.48,-4.472,-4.4648,-3.0801,-3.0821,0.0,0.0,0.0,0.0,0.0,0.0,0.0,0.0,0.0,0.0,-4.6163,0.0,0.0,-4.8525,-5.0984,-5.2995,-5.3854,-5.3971,-5.3971,-5.3971,-5.3971,-5.3951,-5.3951,-5.3171,-5.2292,-5.1433,-5.0575,-5.0087,-5.0087,-4.9267,-4.9208,-5.0067,-4.9247,-4.8408,-4.7608,-4.7588,-4.7159,-4.63,-4.63,-4.63,-4.6339,-4.7198,-4.712,-4.6358,-4.7217,-4.71,-4.63,-4.63,-4.63,-4.63,-4.63,-4.63,-4.6397,-4.7276,-4.7042,-4.6417,-4.7295,-4.7022,-4.63,-4.63,-4.63,-4.63,-4.63,-4.63,-4.63,-4.63,-4.63,-4.63,-4.63,-4.63,-4.6515,-4.7373,-4.8193,-4.8779,-4.8798,-4.873,-4.8411,-4.7572,-4.7357,-4.7298,-4.7298,-4.7317,-4.7609,-4.8463,-4.7861,-4.7298,-4.7298,-4.7298,-4.6968,-4.6094,-4.5997,-4.5997,-4.5997,-4.5997,-4.6005,-4.6003,-4.5949,-4.5893,-4.5906,-4.5847,-4.58,-4.58,-4.58,-4.5708,-4.549,-4.5284,-4.5074,-4.4795,-4.4613,-4.4515,-3.0801,-3.2148,0.0,0.0,0.0,0.0,0.0,0.0,0.0,0.0,0.0,-4.7081,-4.79,-4.8564,0.0,-4.8818,-5.0984,-5.2585,-5.2214,-5.2702,-5.2858,-5.2234,-5.1629,-5.1258,-5.1258,-5.0477,-4.9852,-4.9599,-4.9325,-4.9189,-4.9189,-4.8935,-4.8915,-4.9189,-4.8388,-4.7842,-4.7608,-4.6983,-4.6554,-4.63,-4.63,-4.63,-4.63,-4.6573,-4.6534,-4.63,-4.6573,-4.6534,-4.63,-4.63,-4.63,-4.63,-4.63,-4.63,-4.6339,-4.6593,-4.6515,-4.6339,-4.6593,-4.6515,-4.63,-4.63,-4.63,-4.63,-4.63,-4.63,-4.63,-4.63,-4.63,-4.63,-4.63,-4.63,-4.6378,-4.6612,-4.6825,-4.7146,-4.7751,-4.735,-4.6975,-4.7326,-4.7356,-4.7298,-4.7298,-4.7803,-4.8308,-4.8561,-4.7861,-4.7084,-4.6463,-4.6385,-4.6288,-4.6035,-4.5997,-4.5997,-4.5997,-4.6005,-4.5972,-4.5929,-4.5912,-4.5906,-4.5893,-4.5847,-4.58,-4.58,-4.58,-4.5708,-4.549,-4.5436,-4.5204,-4.48,-4.4739,-4.4648,-3.1211,0.0,0.0,0.0,0.0,0.0,0.0,0.0,0.0,0.0,0.0,-4.8447,-4.9618,-4.9696,0.0,-4.9345,-5.0926,-5.1999,-5.1472,-5.155,-5.1472,-5.0945,-5.0106,-4.9579,-4.9579,-4.9111,-4.8662,-4.8349,-4.833,-4.833,-4.833,-4.7998,-4.7978,-4.831,-4.753,-4.7081,-4.7081,-4.6554,-4.63,-4.63,-4.63,-4.63,-4.63,-4.63,-4.63,-4.63,-4.63,-4.63,-4.63,-4.63,-4.63,-4.63,-4.63,-4.63,-4.63,-4.63,-4.63,-4.63,-4.63,-4.63,-4.63,-4.63,-4.63,-4.63,-4.63,-4.63,-4.63,-4.63,-4.63,-4.63,-4.63,-4.63,-4.63,-4.63,-4.6516,-4.6777,-4.6933,-4.7057,-4.7196,-4.7365,-4.7913,-4.8211,-4.7881,-4.825,-4.8716,-4.9066,-4.8366,-4.7492,-4.6638,-4.621,-4.5997,-4.5997,-4.5997,-4.5997,-4.6005,-4.6003,-4.598,-4.5893,-4.5887,-4.5893,-4.586,-4.5814,-4.58,-4.58,-4.58,-4.5658,-4.5381,-4.5381,-4.5142,-4.4681,-4.4681,-4.4621,0.0,0.0,0.0,0.0,0.0,0.0,0.0,0.0,0.0,0.0,0.0,-4.952,-5.1102,-5.0048,-4.9208,-5.0087,-5.075,-5.1199,-5.1277,-5.0535,-4.9989,-4.9989,-4.9228,-4.8681,-4.8681,-4.8623,-4.8271,-4.7549,-4.749,-4.749,-4.749,-4.6729,-4.6651,-4.7451,-4.671,-4.63,-4.63,-4.63,-4.63,-4.63,-4.63,-4.63,-4.63,-4.63,-4.63,-4.63,-4.63,-4.63,-4.63,-4.63,-4.63,-4.63,-4.63,-4.63,-4.63,-4.63,-4.63,-4.63,-4.63,-4.63,-4.63,-4.63,-4.63,-4.63,-4.63,-4.63,-4.63,-4.63,-4.63,-4.63,-4.63,-4.63,-4.63,-4.6284,-4.6851,-4.7168,-4.6367,-4.7385,-4.8215,-4.7428,-4.8623,-4.9532,-4.8735,-4.8677,-4.893,-4.9571,-4.8988,-4.8172,-4.7298,-4.6482,-4.5997,-4.5997,-4.5997,-4.6005,-4.6003,-4.5991,-4.5968,-4.5906,-4.5893,-4.586,-4.58,-4.58,-4.58,-4.58,-4.58,-4.561,-4.5201,-4.5201,-4.4957,-4.4515,-4.4515,-4.4515,0.0,0.0,0.0,0.0,0.0,0.0,0.0,0.0,0.0,0.0,-5.0282,-5.0965,-5.1336,-5.0535,-5.0106,-5.0984,-5.0126,-4.9599,-5.0282,-4.9638,-4.9072,-4.9072,-4.8369,-4.7861,-4.7861,-4.7237,-4.6768,-4.6593,-4.6573,-4.6573,-4.6573,-4.6397,-4.6397,-4.6573,-4.6397,-4.63,-4.63,-4.63,-4.63,-4.63,-4.63,-4.63,-4.63,-4.63,-4.63,-4.63,-4.63,-4.63,-4.63,-4.63,-4.63,-4.63,-4.63,-4.63,-4.63,-4.63,-4.63,-4.63,-4.63,-4.63,-4.63,-4.63,-4.63,-4.63,-4.63,-4.63,-4.63,-4.63,-4.63,-4.63,-4.63,-4.63,-4.6287,-4.6228,-4.6345,-4.6429,-4.6234,-4.6391,-4.6523,-4.6348,-4.7708,-4.8813,-4.8638,-4.9163,-4.9221,-4.8036,-4.7706,-4.7259,-4.6385,-4.6113,-4.5997,-4.5997,-4.5997,-4.6005,-4.6003,-4.5949,-4.5925,-4.5906,-4.5847,-4.5814,-4.58,-4.58,-4.58,-4.58,-4.58,-4.561,-4.5201,-4.5201,-4.4957,-4.4515,-4.4515,-4.4515,0.0,0.0,0.0,0.0,0.0,0.0,0.0,0.0,0.0,-4.8896,-5.0184,-5.1394,-5.1394,-5.0692,-5.0243,-5.0692,-4.9677,-4.8954,-4.9403,-4.8759,-4.8232,-4.8232,-4.749,-4.6983,-4.6983,-4.6573,-4.63,-4.63,-4.63,-4.63,-4.63,-4.63,-4.63,-4.63,-4.5909,-4.5675,-4.5675,-4.5675,-4.5675,-4.5675,-4.5675,-4.5675,-4.5695,-4.6105,-4.63,-4.63,-4.63,-4.63,-4.63,-4.63,-4.63,-4.63,-4.63,-4.63,-4.63,-4.63,-4.63,-4.63,-4.63,-4.63,-4.63,-4.63,-4.63,-4.63,-4.63,-4.63,-4.63,-4.63,-4.63,-4.63,-4.63,-4.63,-4.629,-4.6229,-4.6204,-4.6199,-4.6158,-4.6399,-4.6618,-4.6618,-4.8036,-4.8949,-4.8114,-4.8347,-4.8211,-4.6871,-4.7026,-4.6987,-4.6113,-4.5997,-4.5997,-4.5997,-4.6005,-4.5983,-4.596,-4.5925,-4.5887,-4.586,-4.5814,-4.58,-4.58,-4.58,-4.58,-4.58,-4.5708,-4.5526,-4.5201,-4.5074,-4.4838,-4.4515,-4.4909,-4.4871,0.0,0.0,0.0,0.0,0.0,0.0,0.0,0.0,0.0,-4.8564,-4.9852,-5.0945,-5.0945,-5.0243,-4.9716,-4.9852,-4.9032,-4.8427,-4.8564,-4.7881,-4.7373,-4.7373,-4.6749,-4.63,-4.63,-4.63,-4.63,-4.63,-4.6163,-4.6085,-4.6085,-4.5929,-4.5851,-4.5851,-4.5148,-4.4777,-4.4777,-4.4777,-4.4777,-4.4777,-4.4777,-4.4777,-4.4797,-4.5519,-4.5929,-4.6066,-4.5929,-4.5851,-4.5851,-4.5851,-4.5851,-4.587,-4.6027,-4.6085,-4.6085,-4.6241,-4.63,-4.63,-4.63,-4.63,-4.63,-4.63,-4.63,-4.63,-4.63,-4.63,-4.63,-4.63,-4.63,-4.63,-4.63,-4.6287,-4.6278,-4.6211,-4.6198,-4.6162,-4.6112,-4.661,-4.7084,-4.7084,-4.8366,-4.9046,-4.7745,-4.7395,-4.7065,-4.6327,-4.6715,-4.6832,-4.6094,-4.5997,-4.5986,-4.5986,-4.5983,-4.596,-4.5905,-4.5899,-4.586,-4.5814,-4.58,-4.58,-4.58,-4.58,-4.5766,-4.5752,-4.5574,-4.5399,-4.5201,-4.4938,-4.4764,-4.4721,-4.5397,-4.5416,0.0,0.0,0.0,0.0,0.0,0.0,0.0,0.0,-4.6846,0.0,-4.8505,-4.915,-4.915,-4.8486,-4.8154,-4.8857,-4.7666,-4.6905,-4.7647,-4.7022,-4.6475,-4.6475,-4.6378,-4.63,-4.63,-4.63,-4.63,-4.63,-4.5597,-4.5168,-4.5168,-4.4465,-4.4055,-4.4055,-4.3938,-4.386,-4.386,-4.386,-4.386,-4.386,-4.386,-4.386,-4.3879,-4.3997,-4.4465,-4.5129,-4.4387,-4.4055,-4.4055,-4.4055,-4.4055,-4.4114,-4.4875,-4.5168,-4.5265,-4.6027,-4.63,-4.63,-4.63,-4.63,-4.63,-4.63,-4.63,-4.63,-4.63,-4.63,-4.63,-4.63,-4.63,-4.63,-4.63,-4.6261,-4.6211,-4.6198,-4.6158,-4.6112,-4.6105,-4.6132,-4.6171,-4.6171,-4.6968,-4.7803,-4.8347,-4.7803,-4.7259,-4.7143,-4.6579,-4.6122,-4.6003,-4.6003,-4.5972,-4.5929,-4.5917,-4.5905,-4.5906,-4.5906,-4.586,-4.5814,-4.58,-4.58,-4.58,-4.58,-4.5723,-4.5541,-4.5507,-4.5399,-4.5201,-4.4938,-4.5047,-4.5547,-4.5641,-4.6054,0.0,0.0,0.0,0.0,0.0,0.0,0.0,0.0,-4.4953,-4.5343,-4.5695,-4.6534,-4.8447,-4.8135,-4.7725,-4.8076,-4.669,-4.5714,-4.6085,-4.5382,-4.4836,-4.4836,-4.4836,-4.4836,-4.4836,-4.4836,-4.4836,-4.4836,-4.4484,-4.427,-4.427,-4.3918,-4.3704,-4.3704,-4.3235,-4.2962,-4.2962,-4.2962,-4.2962,-4.2982,-4.3469,-4.343,-4.2962,-4.2962,-4.345,-4.425,-4.386,-4.3704,-4.3704,-4.3704,-4.3704,-4.3743,-4.4114,-4.4563,-4.5051,-4.5421,-4.587,-4.63,-4.63,-4.63,-4.63,-4.63,-4.63,-4.63,-4.63,-4.63,-4.63,-4.63,-4.63,-4.63,-4.63,-4.6243,-4.619,-4.6192,-4.6147,-4.6091,-4.6044,-4.6018,-4.6133,-4.6638,-4.6638,-4.6851,-4.7725,-4.7143,-4.656,-4.656,-4.6258,-4.5994,-4.6003,-4.596,-4.5929,-4.5886,-4.5893,-4.5899,-4.5906,-4.586,-4.5827,-4.58,-4.58,-4.58,-4.58,-4.58,-4.5708,-4.549,-4.5381,-4.5453,-4.5707,-4.5439,-4.5678,-4.6448,-4.688,-4.7068,0.0,0.0,0.0,0.0,0.0,0.0,0.0,0.0,-4.3099,0.0,-4.3548,-4.4484,-4.7022,-4.7002,-4.6612,-4.6612,-4.5519,-4.468,-4.468,-4.4114,-4.3704,-4.3704,-4.3704,-4.3704,-4.3704,-4.3704,-4.3704,-4.3704,-4.3489,-4.3372,-4.3372,-4.3157,-4.304,-4.304,-4.2415,-4.2064,-4.2064,-4.2064,-4.2064,-4.2084,-4.2728,-4.2708,-4.2064,-4.2064,-4.2415,-4.304,-4.304,-4.304,-4.304,-4.304,-4.304,-4.306,-4.3274,-4.3762,-4.4387,-4.4836,-4.5265,-4.5695,-4.6144,-4.6144,-4.6007,-4.6222,-4.63,-4.63,-4.63,-4.63,-4.63,-4.63,-4.63,-4.6303,-4.627,-4.6248,-4.6205,-4.6179,-4.6125,-4.6052,-4.6017,-4.5997,-4.6191,-4.6832,-4.6443,-4.6268,-4.7143,-4.6579,-4.6074,-4.6297,-4.615,-4.6069,-4.6278,-4.6072,-4.597,-4.6171,-4.6022,-4.586,-4.586,-4.5827,-4.58,-4.58,-4.6013,-4.6129,-4.6129,-4.6081,-4.605,-4.6052,-4.5623,-4.5654,-4.6108,-4.6045,-4.6467,-4.7331,-4.7913,-4.8007,0.0,0.0,0.0,0.0,0.0,0.0,0.0,0.0,-4.1479,-4.2298,-4.3118,-4.3743,-4.3938,-4.3938,-4.3899,-4.3899,-4.3821,-4.3762,-4.3762,-4.3723,-4.3704,-4.3704,-4.3704,-4.3704,-4.3704,-4.3704,-4.3704,-4.3704,-4.2923,-4.2474,-4.2474,-4.1674,-4.1244,-4.1244,-4.1186,-4.1166,-4.1166,-4.1166,-4.1166,-4.1166,-4.1205,-4.1205,-4.1166,-4.1166,-4.1186,-4.1244,-4.1244,-4.1244,-4.1244,-4.1244,-4.1244,-4.1322,-4.2142,-4.2494,-4.2747,-4.4387,-4.4504,-4.4075,-4.5734,-4.5753,-4.5207,-4.6027,-4.63,-4.63,-4.63,-4.63,-4.63,-4.63,-4.63,-4.6287,-4.6229,-4.6205,-4.6175,-4.6125,-4.6044,-4.6007,-4.5997,-4.5997,-4.6016,-4.6055,-4.6035,-4.6268,-4.7143,-4.6579,-4.6277,-4.7109,-4.6535,-4.6278,-4.7029,-4.641,-4.6203,-4.6955,-4.6297,-4.5814,-4.5814,-4.58,-4.58,-4.58,-4.6573,-4.7018,-4.7018,-4.686,-4.7012,-4.7554,-4.6578,-4.6076,-4.6108,-4.6666,-4.735,-4.8138,-4.8176,-4.8626,0.0,0.0,0.0,0.0,0.0,0.0,0.0,-3.8473,-3.9585,-3.9897,-4.062,-4.1205,-4.1205,-4.2572,-4.3704,-4.3704,-4.3235,-4.2864,-4.2864,-4.2376,-4.2025,-4.2025,-4.2025,-4.2025,-4.2025,-4.2025,-4.2025,-4.2025,-4.1732,-4.1322,-4.0756,-4.0444,-4.0034,-3.9507,-3.951,-3.9741,-4.0268,-3.9741,-3.9741,-4.0268,-3.9741,-3.951,-3.951,-3.951,-3.978,-4.0268,-4.0268,-4.0581,-4.1108,-4.1108,-4.1108,-4.1127,-4.1439,-4.1908,-4.2474,-4.3099,-4.384,-4.4621,-4.5246,-4.5636,-4.589,-4.6202,-4.63,-4.63,-4.63,-4.63,-4.63,-4.63,-4.63,-4.629,-4.6229,-4.6204,-4.6167,-4.6052,-4.6027,-4.5997,-4.5997,-4.5997,-4.5997,-4.5997,-4.5997,-4.6094,-4.6404,-4.6219,-4.6294,-4.7175,-4.7003,-4.7062,-4.7868,-4.7215,-4.6781,-4.7057,-4.6322,-4.6032,-4.6593,-4.6631,-4.6864,-4.7424,-4.7753,-4.7927,-4.7927,-4.7694,-4.7626,-4.7707,-4.7694,-4.7613,-4.7467,-4.7671,-4.8213,-4.9039,-4.9039,-4.9208,-3.168,0.0,0.0,0.0,0.0,0.0,-3.6306,0.0,-3.8258,-3.8534,-3.9039,-3.939,-3.939,-4.0815,-4.2162,-4.2747,-4.2337,-4.1967,-4.1967,-4.1479,-4.1108,-4.1108,-4.1108,-4.0991,-4.0698,-4.0659,-4.0542,-4.0288,-4.0249,-4.0015,-3.9429,-3.939,-3.9156,-3.8612,-3.8593,-3.8863,-3.939,-3.8863,-3.8863,-3.939,-3.8863,-3.8593,-3.8593,-3.8593,-3.9039,-3.98,-3.98,-4.0288,-4.1108,-4.1108,-4.1108,-4.1108,-4.1108,-4.1439,-4.2006,-4.2298,-4.2942,-4.3762,-4.4367,-4.4933,-4.548,-4.5773,-4.6066,-4.63,-4.63,-4.63,-4.63,-4.63,-4.629,-4.6262,-4.621,-4.6163,-4.6112,-4.6018,-4.5997,-4.5997,-4.5997,-4.5997,-4.5997,-4.5997,-4.5997,-4.5997,-4.5997,-4.5994,-4.6282,-4.7144,-4.6978,-4.7268,-4.8667,-4.7826,-4.7308,-4.7908,-4.7192,-4.6786,-4.7076,-4.7366,-4.7657,-4.7947,-4.8508,-4.8787,-4.872,-4.8471,-4.8348,-4.841,-4.8439,-4.8532,-4.8626,-4.8626,-4.8927,-4.9509,-4.9509,-4.9509,0.0,0.0,0.0,0.0,0.0,0.0,-3.6833,0.0,-3.7497,-3.8355,-3.8534,-3.8553,-3.8553,-3.8573,-3.9139,-4.0756,-4.1049,-4.1049,-4.1049,-4.1049,-4.1049,-4.103,-4.103,-4.0698,-3.9858,-3.9761,-3.9449,-3.8671,-3.8593,-3.8593,-3.8553,-3.8534,-3.8514,-3.8514,-3.8514,-3.8534,-3.8553,-3.8534,-3.8534,-3.8553,-3.8534,-3.8514,-3.8514,-3.8514,-3.8961,-3.9722,-3.9722,-4.0229,-4.103,-4.1088,-4.1108,-4.1108,-4.1108,-4.1108,-4.1205,-4.2045,-4.1849,-4.1381,-4.306,-4.3684,-4.384,-4.4699,-4.5558,-4.6261,-4.6261,-4.628,-4.6303,-4.6303,-4.6243,-4.619,-4.6189,-4.6098,-4.5997,-4.5997,-4.5997,-4.5997,-4.5997,-4.5997,-4.5997,-4.5997,-4.5997,-4.5997,-4.5997,-4.5994,-4.6271,-4.7068,-4.65,-4.6886,-4.9378,-4.8217,-4.7811,-4.9513,-4.8914,-4.8063,-4.725,-4.7947,-4.8082,-4.725,-4.8798,-4.9608,-4.9336,-4.9135,-4.9267,-4.9784,-4.8786,-4.8645,-4.9509,-4.9509,-4.9509,-4.9509,-4.9509,-4.9509,-3.3398,0.0,0.0,0.0,0.0,0.0,-3.531,0.0,-3.6423,-3.6677,-3.7223,-3.7653,-3.7653,-3.816,-3.8749,-3.9217,-3.978,-4.0151,-4.0151,-4.0151,-3.9937,-3.9351,-3.9295,-3.9195,-3.8961,-3.8921,-3.8843,-3.8612,-3.8593,-3.8316,-3.7692,-3.7067,-3.6716,-3.6716,-3.6716,-3.7028,-3.7653,-3.7028,-3.7048,-3.7653,-3.7028,-3.6716,-3.6716,-3.6716,-3.7184,-3.7985,-3.7985,-3.8492,-3.9393,-4.06,-4.1108,-4.1108,-4.1108,-4.1108,-4.1127,-4.1361,-4.1713,-4.2103,-4.2591,-4.3177,-4.3743,-4.3977,-4.4641,-4.5363,-4.5363,-4.5768,-4.6229,-4.6229,-4.621,-4.6189,-4.6142,-4.606,-4.5997,-4.5997,-4.5997,-4.5997,-4.5997,-4.5997,-4.5997,-4.5997,-4.5997,-4.5997,-4.5994,-4.596,-4.6215,-4.7081,-4.7486,-4.8193,-4.9533,-4.9281,-4.9165,-4.9649,-4.8914,-4.8566,-4.8952,-4.9204,-4.9494,-4.9842,-5.0173,-5.0317,-5.024,-4.9797,-4.9637,-4.9784,-4.9389,-4.9265,-4.9509,-4.9509,-4.9509,-4.9509,-4.9509,-4.9509,0.0,0.0,0.0,-3.4488,0.0,0.0,-3.5232,-3.5642,-3.5991,-3.5991,-3.6404,-3.6755,-3.6755,-3.7165,-3.7633,-3.8004,-3.8453,-3.8882,-3.9253,-3.9292,-3.9136,-3.8671,-3.8593,-3.8456,-3.8082,-3.8063,-3.7906,-3.7536,-3.7516,-3.7282,-3.6774,-3.6286,-3.5991,-3.5991,-3.5991,-3.6247,-3.6755,-3.6247,-3.6247,-3.6755,-3.6247,-3.5991,-3.5991,-3.5991,-3.6482,-3.7301,-3.7301,-3.7789,-3.869,-3.9644,-4.0249,-4.0561,-4.0561,-4.0776,-4.1108,-4.1108,-4.142,-4.1869,-4.1869,-4.2435,-4.3157,-4.3157,-4.3743,-4.4468,-4.446,-4.4781,-4.5234,-4.5564,-4.5896,-4.6142,-4.6068,-4.6027,-4.5997,-4.5997,-4.5997,-4.5997,-4.5997,-4.5997,-4.5997,-4.5997,-4.5986,-4.5994,-4.6003,-4.5937,-4.6306,-4.752,-4.7801,-4.8295,-4.9533,-4.9378,-4.9301,-4.9668,-4.9243,-4.9146,-4.9668,-5.0016,-5.0217,-5.0231,-5.0451,-5.0488,-5.0275,-4.9968,-4.9768,-4.9665,-4.9563,-4.9509,-4.9509,-4.9509,-4.9509,-4.9509,-4.9509,-4.9509,0.0,0.0,0.0,-3.5991,-3.5991,0.0,-3.5991,-3.5991,-3.5991,-3.5991,-3.5991,-3.5991,-3.5991,-3.5991,-3.6247,-3.7028,-3.7165,-3.7458,-3.8336,-3.8456,-3.8414,-3.8316,-3.8316,-3.8004,-3.7223,-3.7165,-3.6833,-3.6049,-3.5991,-3.5991,-3.5991,-3.5991,-3.5991,-3.5991,-3.5991,-3.5991,-3.5991,-3.5991,-3.5991,-3.5991,-3.5991,-3.5991,-3.5991,-3.5991,-3.6423,-3.7165,-3.7165,-3.7594,-3.8316,-3.8316,-3.8843,-3.9683,-3.9761,-4.0268,-4.0971,-4.1049,-4.1108,-4.1108,-4.1108,-4.1615,-4.2259,-4.2259,-4.2845,-4.3554,-4.3553,-4.3613,-4.3847,-4.4543,-4.5337,-4.5932,-4.5891,-4.5919,-4.5997,-4.5997,-4.5997,-4.5997,-4.5997,-4.5997,-4.5997,-4.5997,-4.5994,-4.5991,-4.5991,-4.5944,-4.6396,-4.7874,-4.753,-4.7657,-4.9204,-4.8817,-4.8701,-4.9475,-4.9649,-4.9707,-4.9707,-5.0442,-5.0477,-4.9509,-5.0144,-5.032,-4.9811,-4.9776,-4.9693,-4.949,-4.9509,-4.9509,-4.9509,-4.9509,-4.9509,-4.9509,-4.9509,-4.9509,-3.5991,-3.5991,-3.5991,-3.5991,-3.5991,0.0,-3.5991,-3.5991,-3.5991,-3.5991,-3.5991,-3.5991,-3.5991,-3.5991,-3.6049,-3.6228,-3.6247,-3.656,-3.7438,-3.7555,-3.7282,-3.6599,-3.6501,-3.6443,-3.6267,-3.6247,-3.6189,-3.601,-3.5991,-3.5991,-3.5991,-3.5991,-3.5991,-3.5991,-3.5991,-3.5991,-3.5991,-3.5991,-3.5991,-3.5991,-3.5991,-3.5991,-3.5991,-3.5991,-3.6088,-3.6247,-3.6247,-3.6345,-3.6501,-3.6501,-3.7438,-3.8902,-3.9546,-3.9897,-4.0132,-4.0834,-4.1108,-4.1108,-4.1108,-4.1205,-4.1342,-4.1342,-4.1947,-4.2656,-4.2655,-4.3102,-4.3642,-4.3751,-4.4394,-4.5055,-4.5036,-4.5511,-4.5997,-4.5997,-4.5997,-4.5997,-4.5997,-4.5997,-4.5997,-4.6014,-4.6003,-4.598,-4.5932,-4.5906,-4.599,-4.6259,-4.6762,-4.7212,-4.756,-4.8063,-4.8469,-4.8643,-4.9281,-4.9707,-4.9707,-5.0442,-5.0728,-5.0375,-5.0308,-5.0116,-4.9811,-4.9655,-4.9532,-4.9509,-4.9509,-4.9509,-4.9509,-4.9509,-4.9509,-4.9509,-4.9509,-4.9509,-3.6657,-3.6325,-3.5991,-3.5991,-3.5991,0.0,0.0,-3.5991,-3.5991,-3.5991,-3.5991,-3.5991,-3.5991,-3.5991,-3.5991,-3.5991,-3.5991,-3.615,-3.6599,-3.6657,-3.6482,-3.6049,-3.5991,-3.5991,-3.5991,-3.5991,-3.5991,-3.5991,-3.5991,-3.5991,-3.5991,-3.5991,-3.5991,-3.5991,-3.5991,-3.5991,-3.5991,-3.5991,-3.5991,-3.5991,-3.5991,-3.5991,-3.5991,-3.5991,-3.5991,-3.5991,-3.5991,-3.5991,-3.5991,-3.5991,-3.6501,-3.7399,-3.8238,-3.8824,-3.9253,-3.9683,-4.0112,-4.0444,-4.0444,-4.0737,-4.1108,-4.1108,-4.14,-4.1741,-4.1718,-4.2268,-4.2889,-4.2859,-4.3471,-4.4151,-4.4151,-4.4773,-4.5394,-4.5394,-4.5705,-4.5997,-4.6005,-4.5994,-4.5983,-4.5956,-4.5944,-4.5944,-4.5906,-4.586,-4.5982,-4.638,-4.6825,-4.7096,-4.7096,-4.7482,-4.7753,-4.7753,-4.814,-4.8709,-4.9442,-4.9867,-5.0125,-5.0191,-5.0068,-4.9903,-4.9655,-4.9563,-4.9509,-4.9509,-4.9509,-4.9509,-4.9509,-4.9509,-4.9509,-4.9509,-4.9509,-4.9509,-3.7555,-3.6911,-3.6247,-3.6247,-3.613,-3.5991,0.0,0.0,0.0,-3.5991,-3.5991,-3.5991,-3.5991,-3.5991,-3.5952,-3.5779,-3.5896,-3.5932,-3.5779,-3.5896,-3.5991,-3.5991,-3.5991,-3.5991,-3.5991,-3.5991,-3.5991,-3.5991,-3.5991,-3.5991,-3.5991,-3.5991,-3.5991,-3.5991,-3.5991,-3.5913,-3.5759,-3.5759,-3.5759,-3.5759,-3.5759,-3.5837,-3.5991,-3.5991,-3.5916,-3.5759,-3.5932,-3.5893,-3.5759,-3.5932,-3.5991,-3.6088,-3.697,-3.7731,-3.8375,-3.8534,-3.9,-3.9585,-3.9741,-4.0268,-4.0876,-4.1058,-4.1084,-4.1073,-4.1016,-4.1435,-4.1956,-4.1956,-4.2578,-4.3258,-4.3258,-4.3899,-4.4598,-4.4753,-4.5297,-4.5822,-4.5964,-4.5991,-4.598,-4.5906,-4.5893,-4.5893,-4.5893,-4.5847,-4.6032,-4.6728,-4.6844,-4.6844,-4.6844,-4.6844,-4.6844,-4.6844,-4.7105,-4.7761,-4.8933,-4.9317,-4.9551,-4.9773,-4.9803,-4.9703,-4.949,-4.9509,-4.9509,-4.9509,-4.9509,-4.9509,-4.9509,-4.9509,-4.9509,-4.9509,-4.9509,-4.9509,-3.8456,-3.7828,-3.7145,-3.7145,-3.6579,-3.5991,-3.5991,0.0,-3.5991,-3.5991,0.0,-3.5991,-3.5991,0.0,0.0,-3.4979,-3.5506,-3.574,-3.4959,-3.5506,-3.5991,-3.5991,-3.5991,-3.5991,-3.5991,-3.5991,-3.5991,-3.5991,-3.5991,-3.5991,-3.5991,-3.5991,-3.5991,-3.5991,-3.5991,-3.5623,-3.4861,-3.4842,-3.4842,-3.4842,-3.4842,-3.5252,-3.5991,-3.5991,-3.5584,-3.4881,-3.5662,-3.5564,-3.4901,-3.5681,-3.5991,-3.6088,-3.697,-3.736,-3.7536,-3.8316,-3.8671,-3.8843,-3.9546,-3.9858,-4.0079,-4.0857,-4.1062,-4.1003,-4.1006,-4.1023,-4.1043,-4.1043,-4.1684,-4.2345,-4.2345,-4.2986,-4.384,-4.4617,-4.487,-4.5131,-4.5847,-4.5991,-4.598,-4.5906,-4.5893,-4.5893,-4.5814,-4.5814,-4.5819,-4.5916,-4.5955,-4.5955,-4.5955,-4.5955,-4.5955,-4.5955,-4.713,-4.7971,-4.8125,-4.9367,-5.0021,-4.9811,-4.9803,-4.9703,-4.949,-4.9509,-4.9509,-4.9509,-4.9509,-4.9509,-4.9509,-4.9509,-4.9509,-4.9509,-4.9509,-4.9509,-3.9292,-3.8687,-3.7926,-3.7438,-3.7028,-3.6618,-3.613,-3.5991,-3.5991,-3.5991,0.0,0.0,0.0,0.0,0.0,0.0,-3.5759,-3.5876,-3.5506,-3.5779,-3.5991,-3.5991,-3.5991,-3.5991,-3.5991,-3.5545,-3.5467,-3.5952,-3.5525,-3.5467,-3.5971,-3.5991,-3.5991,-3.5991,-3.5506,-3.5076,-3.4705,-3.4198,-3.3944,-3.3944,-3.4452,-3.4881,-3.5252,-3.5252,-3.5057,-3.4725,-3.5096,-3.5037,-3.4764,-3.5642,-3.5991,-3.603,-3.6404,-3.656,-3.6599,-3.697,-3.7731,-3.8651,-3.898,-3.9732,-4.0525,-4.0388,-4.0297,-4.0253,-4.0253,-4.0556,-4.0907,-4.0907,-4.116,-4.1451,-4.1451,-4.2461,-4.3578,-4.3917,-4.4771,-4.5576,-4.5879,-4.5944,-4.5932,-4.586,-4.5847,-4.5827,-4.5814,-4.58,-4.58,-4.58,-4.58,-4.58,-4.58,-4.58,-4.58,-4.58,-4.6709,-4.7453,-4.7794,-4.8719,-4.9383,-4.9607,-4.9644,-4.9604,-4.949,-4.9509,-4.9509,-4.9509,-4.9509,-4.9509,-4.9509,-4.9509,-4.9509,-4.9509,-4.9509,-4.9509,-4.0151,-3.9566,-3.8785,-3.8141,-3.7828,-3.7497,-3.6852,-3.654,-3.6364,-3.6364,-3.6169,0.0,0.0,0.0,-3.5913,-3.5681,0.0,-3.5913,-3.5681,-3.5857,-3.5991,-3.5991,-3.5991,-3.5916,-3.5662,-3.5076,-3.4861,-3.5252,-3.4705,-3.4725,-3.5603,-3.5642,-3.5759,-3.5991,-3.5389,-3.494,-3.4705,-3.4061,-3.3768,-3.3768,-3.4393,-3.4822,-3.5057,-3.4803,-3.4569,-3.4354,-3.4608,-3.4569,-3.4432,-3.5545,-3.5991,-3.5991,-3.5991,-3.5996,-3.5964,-3.5964,-3.6765,-3.7938,-3.8412,-3.9512,-4.0615,-3.9972,-3.9736,-3.9701,-3.9701,-4.026,-4.0907,-4.0907,-4.0907,-4.0907,-4.0907,-4.183,-4.2888,-4.3294,-4.437,-4.5406,-4.5809,-4.5893,-4.5893,-4.5814,-4.58,-4.58,-4.58,-4.58,-4.58,-4.58,-4.58,-4.58,-4.58,-4.58,-4.5786,-4.5723,-4.6527,-4.72,-4.7552,-4.837,-4.9032,-4.9452,-4.9509,-4.9509,-4.9509,-4.9509,-4.9509,-4.9509,-4.9509,-4.9509,-4.9509,-4.9509,-4.9509,-4.9509,-4.9509,-4.9509,-4.1049,-4.0424,-3.9741,-3.9722,-3.9136,-3.8553,-3.8514,-3.7867,-3.7262,-3.7262,-3.6599,-3.5991,-3.5991,-3.5991,-3.572,-3.4881,-3.5447,0.0,0.0,-3.5467,-3.5991,-3.5991,-3.5991,-3.5662,-3.4822,-3.4725,-3.4354,-3.3534,-3.3456,-3.3827,-3.4705,-3.4744,-3.5135,-3.5971,-3.5971,-3.5545,-3.4705,-3.4666,-3.4666,-3.4666,-3.4686,-3.5135,-3.5932,-3.5076,-3.4237,-3.3495,-3.4334,-3.4217,-3.3573,-3.5288,-3.5991,-3.5991,-3.5991,-3.5968,-3.5898,-3.5898,-3.5937,-3.623,-3.7919,-3.906,-3.9739,-3.9719,-3.9707,-3.9703,-3.9703,-4.0266,-4.0907,-4.0907,-4.0907,-4.0907,-4.0907,-4.0946,-4.1392,-4.3012,-4.3447,-4.3928,-4.5557,-4.5893,-4.5893,-4.5814,-4.58,-4.58,-4.58,-4.58,-4.58,-4.58,-4.58,-4.58,-4.58,-4.58,-4.5723,-4.5524,-4.6817,-4.7571,-4.7321,-4.8635,-4.9471,-4.9509,-4.9509,-4.9509,-4.9509,-4.9509,-4.9509,-4.9509,-4.9509,-4.9509,-4.9509,-4.9509,-4.9509,-4.9509,-4.9509,-4.9509,-4.1108,-4.0873,-4.0522,-3.9937,-3.9605,-3.9253,-3.8726,-3.8375,-3.8004,-3.7419,-3.7067,-3.6677,-3.6111,-3.5991,-3.5893,-3.5603,-3.5818,-3.5896,0.0,-3.5818,-3.5991,-3.5991,-3.5991,-3.5662,-3.4783,-3.4178,-3.3729,-3.3417,-3.2871,-3.2929,-3.3788,-3.3846,-3.4237,-3.5115,-3.4588,-3.4413,-3.4705,-3.4139,-3.3846,-3.3846,-3.4413,-3.4842,-3.5135,-3.4822,-3.4549,-3.4237,-3.3964,-3.4003,-3.4315,-3.4901,-3.5457,-3.5934,-3.5934,-3.5918,-3.5909,-3.5898,-3.6638,-3.7858,-3.9579,-3.9569,-3.885,-3.8836,-3.8835,-3.8829,-3.8829,-3.98,-4.0907,-4.0907,-4.0907,-4.0907,-4.0907,-4.1335,-4.1886,-4.2408,-4.3393,-4.4356,-4.4918,-4.546,-4.5833,-4.5814,-4.58,-4.58,-4.58,-4.58,-4.58,-4.58,-4.58,-4.58,-4.58,-4.5673,-4.5577,-4.5507,-4.665,-4.7397,-4.7295,-4.8654,-4.9509,-4.9509,-4.9509,-4.9509,-4.9509,-4.9509,-4.9509,-4.9509,-4.9509,-4.9509,-4.9509,-4.9509,-4.9509,-4.9509,-4.9509,-4.9509,-4.1108,-4.1108,-4.0971,-4.0405,-4.0268,-4.0132,-3.9605,-3.9253,-3.8863,-3.8297,-3.7711,-3.7126,-3.6579,-3.6208,-3.5991,-3.5991,-3.5991,-3.5991,0.0,-3.5991,-3.5991,-3.5991,-3.5991,-3.5662,-3.4783,-3.3905,-3.328,-3.2968,-3.2129,-3.2012,-3.289,-3.3222,-3.3807,-3.4666,-3.4452,-3.4588,-3.5154,-3.4608,-3.4178,-3.3866,-3.4744,-3.4998,-3.4686,-3.4374,-3.4413,-3.4647,-3.3788,-3.3886,-3.4725,-3.5007,-3.5427,-3.5898,-3.5897,-3.5903,-3.59,-3.5901,-3.6983,-3.8619,-3.9708,-3.9344,-3.8442,-3.8758,-3.8654,-3.846,-3.8771,-3.982,-4.0966,-4.1276,-4.1131,-4.0966,-4.1286,-4.1528,-4.1768,-4.2036,-4.3143,-4.4221,-4.4523,-4.5239,-4.58,-4.58,-4.58,-4.58,-4.58,-4.58,-4.58,-4.58,-4.58,-4.58,-4.58,-4.5626,-4.5472,-4.5399,-4.6557,-4.7515,-4.805,-4.8972,-4.9509,-4.9509,-4.9509,-4.9509,-4.9509,-4.9509,-4.9621,-4.9922,-4.9659,-4.964,-4.9922,-4.964,-4.9509,-4.9509,-4.9509,-4.9659]}]]